<?xml version="1.0" encoding="UTF-8" standalone="no" ?>
<gpx xmlns="http://www.topografix.com/GPX/1/1" xmlns:xsi="http://www.w3.org/2001/XMLSchema-instance" xsi:schemaLocation="http://www.topografix.com/GPX/1/1 http://www.topografix.com/GPX/1/1/gpx.xsd" version="1.1" creator="VisuGPX - https://www.visugpx.com">
  <metadata>
    <name>BROVES EN SEILLANS</name>
    <desc><![CDATA[Le parking de départ de la marche est situé à la sortie de Brovès sur la gauche de la D53 sur un terre-plein à côté du cimetière.
Intérêt de la randonnée => Explications sur le viaduc qui était emprunté par le train des pignes. Un puits oratoire, une chapelle à la fin du parcours avec le lavoir (fontaine) de Brovès dans le village. Ce lavoir ainsi que les habitants du village, le cimetière, et le monument aux morts ont été déplacés de l?ancien village de Brovès en 1974 quand celui-ci est devenu zone militaire (plateau de canjuers). 
Finalement la randonnée fait 19 km pour 381 M de dénivelée.



]]></desc>
  </metadata>
  <trk>
    <name><![CDATA[Activité actuelle: 08 OCT 2019 09:12]]></name>
    <trkseg>
      <trkpt lat="43.59038" lon="6.64062">
        <ele>222.58</ele>
        <time>2019-10-08T07:14:35Z</time>
      </trkpt>
      <trkpt lat="43.59038" lon="6.64062">
        <ele>222.72</ele>
        <time>2019-10-08T07:14:36Z</time>
      </trkpt>
      <trkpt lat="43.59045" lon="6.6406">
        <ele>222.6</ele>
        <time>2019-10-08T07:14:50Z</time>
      </trkpt>
      <trkpt lat="43.59064" lon="6.64063">
        <ele>222.6</ele>
        <time>2019-10-08T07:15:05Z</time>
      </trkpt>
      <trkpt lat="43.59069" lon="6.64063">
        <ele>222.6</ele>
        <time>2019-10-08T07:15:30Z</time>
      </trkpt>
      <trkpt lat="43.59076" lon="6.64059">
        <ele>222.6</ele>
        <time>2019-10-08T07:15:56Z</time>
      </trkpt>
      <trkpt lat="43.59072" lon="6.64054">
        <ele>222.6</ele>
        <time>2019-10-08T07:16:15Z</time>
      </trkpt>
      <trkpt lat="43.59071" lon="6.64055">
        <ele>222.6</ele>
        <time>2019-10-08T07:16:30Z</time>
      </trkpt>
      <trkpt lat="43.59069" lon="6.64057">
        <ele>222.6</ele>
        <time>2019-10-08T07:16:51Z</time>
      </trkpt>
      <trkpt lat="43.59071" lon="6.64061">
        <ele>222.6</ele>
        <time>2019-10-08T07:17:16Z</time>
      </trkpt>
      <trkpt lat="43.59071" lon="6.64061">
        <ele>222.6</ele>
        <time>2019-10-08T07:17:41Z</time>
      </trkpt>
      <trkpt lat="43.59071" lon="6.64061">
        <ele>222.6</ele>
        <time>2019-10-08T07:18:06Z</time>
      </trkpt>
      <trkpt lat="43.59066" lon="6.64061">
        <ele>222.6</ele>
        <time>2019-10-08T07:18:31Z</time>
      </trkpt>
      <trkpt lat="43.59066" lon="6.64064">
        <ele>222.6</ele>
        <time>2019-10-08T07:18:54Z</time>
      </trkpt>
      <trkpt lat="43.59067" lon="6.64061">
        <ele>222.6</ele>
        <time>2019-10-08T07:19:14Z</time>
      </trkpt>
      <trkpt lat="43.5907" lon="6.6406">
        <ele>222.6</ele>
        <time>2019-10-08T07:19:29Z</time>
      </trkpt>
      <trkpt lat="43.59067" lon="6.64064">
        <ele>222.6</ele>
        <time>2019-10-08T07:19:49Z</time>
      </trkpt>
      <trkpt lat="43.59067" lon="6.64058">
        <ele>222.6</ele>
        <time>2019-10-08T07:20:12Z</time>
      </trkpt>
      <trkpt lat="43.59066" lon="6.6406">
        <ele>222.6</ele>
        <time>2019-10-08T07:20:39Z</time>
      </trkpt>
      <trkpt lat="43.59067" lon="6.64058">
        <ele>222.6</ele>
        <time>2019-10-08T07:21:01Z</time>
      </trkpt>
      <trkpt lat="43.59068" lon="6.6406">
        <ele>222.6</ele>
        <time>2019-10-08T07:21:27Z</time>
      </trkpt>
      <trkpt lat="43.59068" lon="6.64058">
        <ele>222.6</ele>
        <time>2019-10-08T07:21:54Z</time>
      </trkpt>
      <trkpt lat="43.59068" lon="6.64059">
        <ele>222.6</ele>
        <time>2019-10-08T07:22:20Z</time>
      </trkpt>
      <trkpt lat="43.5907" lon="6.64058">
        <ele>222.6</ele>
        <time>2019-10-08T07:22:48Z</time>
      </trkpt>
      <trkpt lat="43.59067" lon="6.64063">
        <ele>222.6</ele>
        <time>2019-10-08T07:23:15Z</time>
      </trkpt>
      <trkpt lat="43.59069" lon="6.64065">
        <ele>222.6</ele>
        <time>2019-10-08T07:23:35Z</time>
      </trkpt>
      <trkpt lat="43.59071" lon="6.64072">
        <ele>222.6</ele>
        <time>2019-10-08T07:23:55Z</time>
      </trkpt>
      <trkpt lat="43.59079" lon="6.64086">
        <ele>222.83</ele>
        <time>2019-10-08T07:24:13Z</time>
      </trkpt>
      <trkpt lat="43.59093" lon="6.64098">
        <ele>223.54</ele>
        <time>2019-10-08T07:24:31Z</time>
      </trkpt>
      <trkpt lat="43.59105" lon="6.64111">
        <ele>223.92</ele>
        <time>2019-10-08T07:24:44Z</time>
      </trkpt>
      <trkpt lat="43.59119" lon="6.64119">
        <ele>224.41</ele>
        <time>2019-10-08T07:24:58Z</time>
      </trkpt>
      <trkpt lat="43.59132" lon="6.64118">
        <ele>224.82</ele>
        <time>2019-10-08T07:25:09Z</time>
      </trkpt>
      <trkpt lat="43.59145" lon="6.64085">
        <ele>225.95</ele>
        <time>2019-10-08T07:25:28Z</time>
      </trkpt>
      <trkpt lat="43.59154" lon="6.64061">
        <ele>227</ele>
        <time>2019-10-08T07:25:47Z</time>
      </trkpt>
      <trkpt lat="43.59159" lon="6.64047">
        <ele>227.37</ele>
        <time>2019-10-08T07:25:56Z</time>
      </trkpt>
      <trkpt lat="43.59169" lon="6.6403">
        <ele>228.27</ele>
        <time>2019-10-08T07:26:10Z</time>
      </trkpt>
      <trkpt lat="43.59179" lon="6.64017">
        <ele>229.23</ele>
        <time>2019-10-08T07:26:26Z</time>
      </trkpt>
      <trkpt lat="43.59196" lon="6.63999">
        <ele>230.44</ele>
        <time>2019-10-08T07:26:45Z</time>
      </trkpt>
      <trkpt lat="43.59209" lon="6.63983">
        <ele>231.89</ele>
        <time>2019-10-08T07:27:05Z</time>
      </trkpt>
      <trkpt lat="43.59219" lon="6.63975">
        <ele>232.72</ele>
        <time>2019-10-08T07:27:19Z</time>
      </trkpt>
      <trkpt lat="43.5924" lon="6.63966">
        <ele>233.91</ele>
        <time>2019-10-08T07:27:41Z</time>
      </trkpt>
      <trkpt lat="43.59256" lon="6.63952">
        <ele>234.79</ele>
        <time>2019-10-08T07:27:58Z</time>
      </trkpt>
      <trkpt lat="43.59275" lon="6.63939">
        <ele>235.92</ele>
        <time>2019-10-08T07:28:17Z</time>
      </trkpt>
      <trkpt lat="43.5929" lon="6.63932">
        <ele>236.99</ele>
        <time>2019-10-08T07:28:35Z</time>
      </trkpt>
      <trkpt lat="43.59307" lon="6.63915">
        <ele>237.67</ele>
        <time>2019-10-08T07:28:52Z</time>
      </trkpt>
      <trkpt lat="43.59316" lon="6.63908">
        <ele>237.92</ele>
        <time>2019-10-08T07:29:01Z</time>
      </trkpt>
      <trkpt lat="43.59329" lon="6.63897">
        <ele>238.33</ele>
        <time>2019-10-08T07:29:17Z</time>
      </trkpt>
      <trkpt lat="43.59347" lon="6.63888">
        <ele>239.05</ele>
        <time>2019-10-08T07:29:37Z</time>
      </trkpt>
      <trkpt lat="43.5935" lon="6.63888">
        <ele>239.08</ele>
        <time>2019-10-08T07:29:40Z</time>
      </trkpt>
      <trkpt lat="43.59363" lon="6.63883">
        <ele>239.52</ele>
        <time>2019-10-08T07:29:52Z</time>
      </trkpt>
      <trkpt lat="43.59378" lon="6.63882">
        <ele>240.02</ele>
        <time>2019-10-08T07:30:05Z</time>
      </trkpt>
      <trkpt lat="43.59399" lon="6.63875">
        <ele>240.37</ele>
        <time>2019-10-08T07:30:23Z</time>
      </trkpt>
      <trkpt lat="43.59417" lon="6.6387">
        <ele>240.94</ele>
        <time>2019-10-08T07:30:41Z</time>
      </trkpt>
      <trkpt lat="43.59431" lon="6.63857">
        <ele>241.74</ele>
        <time>2019-10-08T07:30:59Z</time>
      </trkpt>
      <trkpt lat="43.59447" lon="6.63822">
        <ele>242.64</ele>
        <time>2019-10-08T07:31:17Z</time>
      </trkpt>
      <trkpt lat="43.59458" lon="6.63797">
        <ele>243.52</ele>
        <time>2019-10-08T07:31:34Z</time>
      </trkpt>
      <trkpt lat="43.59471" lon="6.63772">
        <ele>244.3</ele>
        <time>2019-10-08T07:31:53Z</time>
      </trkpt>
      <trkpt lat="43.59477" lon="6.6376">
        <ele>244.4</ele>
        <time>2019-10-08T07:32:02Z</time>
      </trkpt>
      <trkpt lat="43.59489" lon="6.63743">
        <ele>244.24</ele>
        <time>2019-10-08T07:32:15Z</time>
      </trkpt>
      <trkpt lat="43.59502" lon="6.63729">
        <ele>243.93</ele>
        <time>2019-10-08T07:32:27Z</time>
      </trkpt>
      <trkpt lat="43.59504" lon="6.63726">
        <ele>243.9</ele>
        <time>2019-10-08T07:32:29Z</time>
      </trkpt>
      <trkpt lat="43.59515" lon="6.63712">
        <ele>243.7</ele>
        <time>2019-10-08T07:32:41Z</time>
      </trkpt>
      <trkpt lat="43.59527" lon="6.63702">
        <ele>243.41</ele>
        <time>2019-10-08T07:32:53Z</time>
      </trkpt>
      <trkpt lat="43.5954" lon="6.63687">
        <ele>243.24</ele>
        <time>2019-10-08T07:33:05Z</time>
      </trkpt>
      <trkpt lat="43.5955" lon="6.63674">
        <ele>243.17</ele>
        <time>2019-10-08T07:33:15Z</time>
      </trkpt>
      <trkpt lat="43.59562" lon="6.63661">
        <ele>243.23</ele>
        <time>2019-10-08T07:33:29Z</time>
      </trkpt>
      <trkpt lat="43.59572" lon="6.6365">
        <ele>243.27</ele>
        <time>2019-10-08T07:33:40Z</time>
      </trkpt>
      <trkpt lat="43.59582" lon="6.63627">
        <ele>242.85</ele>
        <time>2019-10-08T07:33:57Z</time>
      </trkpt>
      <trkpt lat="43.59596" lon="6.6361">
        <ele>242.6</ele>
        <time>2019-10-08T07:34:11Z</time>
      </trkpt>
      <trkpt lat="43.59608" lon="6.63591">
        <ele>242.48</ele>
        <time>2019-10-08T07:34:26Z</time>
      </trkpt>
      <trkpt lat="43.59619" lon="6.63575">
        <ele>242.2</ele>
        <time>2019-10-08T07:34:38Z</time>
      </trkpt>
      <trkpt lat="43.59629" lon="6.63561">
        <ele>241.78</ele>
        <time>2019-10-08T07:34:50Z</time>
      </trkpt>
      <trkpt lat="43.59633" lon="6.63559">
        <ele>241.35</ele>
        <time>2019-10-08T07:34:55Z</time>
      </trkpt>
      <trkpt lat="43.59648" lon="6.63562">
        <ele>239.54</ele>
        <time>2019-10-08T07:35:10Z</time>
      </trkpt>
      <trkpt lat="43.59661" lon="6.63569">
        <ele>237.93</ele>
        <time>2019-10-08T07:35:23Z</time>
      </trkpt>
      <trkpt lat="43.59676" lon="6.63566">
        <ele>236.88</ele>
        <time>2019-10-08T07:35:36Z</time>
      </trkpt>
      <trkpt lat="43.59693" lon="6.63558">
        <ele>236.34</ele>
        <time>2019-10-08T07:35:49Z</time>
      </trkpt>
      <trkpt lat="43.59699" lon="6.63554">
        <ele>236.15</ele>
        <time>2019-10-08T07:35:54Z</time>
      </trkpt>
      <trkpt lat="43.59714" lon="6.63541">
        <ele>235.46</ele>
        <time>2019-10-08T07:36:07Z</time>
      </trkpt>
      <trkpt lat="43.59727" lon="6.63527">
        <ele>234.41</ele>
        <time>2019-10-08T07:36:21Z</time>
      </trkpt>
      <trkpt lat="43.59742" lon="6.63515">
        <ele>233.46</ele>
        <time>2019-10-08T07:36:36Z</time>
      </trkpt>
      <trkpt lat="43.59755" lon="6.63505">
        <ele>232.45</ele>
        <time>2019-10-08T07:36:49Z</time>
      </trkpt>
      <trkpt lat="43.59765" lon="6.63497">
        <ele>231.15</ele>
        <time>2019-10-08T07:37:01Z</time>
      </trkpt>
      <trkpt lat="43.59782" lon="6.63479">
        <ele>229.41</ele>
        <time>2019-10-08T07:37:19Z</time>
      </trkpt>
      <trkpt lat="43.59794" lon="6.63468">
        <ele>228.08</ele>
        <time>2019-10-08T07:37:32Z</time>
      </trkpt>
      <trkpt lat="43.59809" lon="6.63459">
        <ele>227.08</ele>
        <time>2019-10-08T07:37:45Z</time>
      </trkpt>
      <trkpt lat="43.59825" lon="6.6345">
        <ele>226.21</ele>
        <time>2019-10-08T07:37:59Z</time>
      </trkpt>
      <trkpt lat="43.59841" lon="6.63444">
        <ele>225.33</ele>
        <time>2019-10-08T07:38:14Z</time>
      </trkpt>
      <trkpt lat="43.59855" lon="6.63438">
        <ele>224.39</ele>
        <time>2019-10-08T07:38:27Z</time>
      </trkpt>
      <trkpt lat="43.59869" lon="6.63431">
        <ele>223.74</ele>
        <time>2019-10-08T07:38:39Z</time>
      </trkpt>
      <trkpt lat="43.59881" lon="6.6342">
        <ele>222.85</ele>
        <time>2019-10-08T07:38:51Z</time>
      </trkpt>
      <trkpt lat="43.59895" lon="6.63407">
        <ele>221.81</ele>
        <time>2019-10-08T07:39:04Z</time>
      </trkpt>
      <trkpt lat="43.59897" lon="6.63406">
        <ele>221.66</ele>
        <time>2019-10-08T07:39:06Z</time>
      </trkpt>
      <trkpt lat="43.59911" lon="6.634">
        <ele>220.91</ele>
        <time>2019-10-08T07:39:19Z</time>
      </trkpt>
      <trkpt lat="43.59929" lon="6.63396">
        <ele>220.13</ele>
        <time>2019-10-08T07:39:34Z</time>
      </trkpt>
      <trkpt lat="43.59947" lon="6.63396">
        <ele>219.29</ele>
        <time>2019-10-08T07:39:49Z</time>
      </trkpt>
      <trkpt lat="43.59963" lon="6.63395">
        <ele>218.29</ele>
        <time>2019-10-08T07:40:02Z</time>
      </trkpt>
      <trkpt lat="43.59966" lon="6.63394">
        <ele>217.93</ele>
        <time>2019-10-08T07:40:05Z</time>
      </trkpt>
      <trkpt lat="43.59968" lon="6.63395">
        <ele>217.72</ele>
        <time>2019-10-08T07:40:07Z</time>
      </trkpt>
      <trkpt lat="43.59974" lon="6.63395">
        <ele>217.39</ele>
        <time>2019-10-08T07:40:12Z</time>
      </trkpt>
      <trkpt lat="43.5998" lon="6.63398">
        <ele>217.09</ele>
        <time>2019-10-08T07:40:18Z</time>
      </trkpt>
      <trkpt lat="43.59985" lon="6.63398">
        <ele>216.87</ele>
        <time>2019-10-08T07:40:22Z</time>
      </trkpt>
      <trkpt lat="43.60002" lon="6.63403">
        <ele>216.36</ele>
        <time>2019-10-08T07:40:35Z</time>
      </trkpt>
      <trkpt lat="43.60007" lon="6.63405">
        <ele>216.17</ele>
        <time>2019-10-08T07:40:40Z</time>
      </trkpt>
      <trkpt lat="43.60025" lon="6.63418">
        <ele>216.15</ele>
        <time>2019-10-08T07:40:55Z</time>
      </trkpt>
      <trkpt lat="43.60045" lon="6.63424">
        <ele>216.08</ele>
        <time>2019-10-08T07:41:11Z</time>
      </trkpt>
      <trkpt lat="43.60063" lon="6.63431">
        <ele>215.77</ele>
        <time>2019-10-08T07:41:25Z</time>
      </trkpt>
      <trkpt lat="43.60082" lon="6.63433">
        <ele>214.74</ele>
        <time>2019-10-08T07:41:38Z</time>
      </trkpt>
      <trkpt lat="43.60097" lon="6.63432">
        <ele>214.06</ele>
        <time>2019-10-08T07:41:50Z</time>
      </trkpt>
      <trkpt lat="43.60115" lon="6.63427">
        <ele>213.65</ele>
        <time>2019-10-08T07:42:04Z</time>
      </trkpt>
      <trkpt lat="43.6013" lon="6.63427">
        <ele>215.15</ele>
        <time>2019-10-08T07:42:17Z</time>
      </trkpt>
      <trkpt lat="43.60145" lon="6.6343">
        <ele>216.24</ele>
        <time>2019-10-08T07:42:30Z</time>
      </trkpt>
      <trkpt lat="43.60161" lon="6.63426">
        <ele>217.51</ele>
        <time>2019-10-08T07:42:43Z</time>
      </trkpt>
      <trkpt lat="43.60177" lon="6.63406">
        <ele>219.69</ele>
        <time>2019-10-08T07:42:58Z</time>
      </trkpt>
      <trkpt lat="43.60187" lon="6.63389">
        <ele>221.65</ele>
        <time>2019-10-08T07:43:13Z</time>
      </trkpt>
      <trkpt lat="43.60197" lon="6.6338">
        <ele>222.77</ele>
        <time>2019-10-08T07:43:26Z</time>
      </trkpt>
      <trkpt lat="43.60203" lon="6.63375">
        <ele>223.74</ele>
        <time>2019-10-08T07:43:34Z</time>
      </trkpt>
      <trkpt lat="43.60216" lon="6.63359">
        <ele>225.47</ele>
        <time>2019-10-08T07:43:48Z</time>
      </trkpt>
      <trkpt lat="43.60221" lon="6.6335">
        <ele>226.26</ele>
        <time>2019-10-08T07:43:56Z</time>
      </trkpt>
      <trkpt lat="43.60233" lon="6.63335">
        <ele>227.76</ele>
        <time>2019-10-08T07:44:11Z</time>
      </trkpt>
      <trkpt lat="43.60244" lon="6.63326">
        <ele>229.79</ele>
        <time>2019-10-08T07:44:26Z</time>
      </trkpt>
      <trkpt lat="43.60247" lon="6.63325">
        <ele>230.19</ele>
        <time>2019-10-08T07:44:29Z</time>
      </trkpt>
      <trkpt lat="43.6026" lon="6.63321">
        <ele>231.55</ele>
        <time>2019-10-08T07:44:41Z</time>
      </trkpt>
      <trkpt lat="43.60275" lon="6.63317">
        <ele>233.22</ele>
        <time>2019-10-08T07:44:56Z</time>
      </trkpt>
      <trkpt lat="43.60288" lon="6.63309">
        <ele>234.74</ele>
        <time>2019-10-08T07:45:09Z</time>
      </trkpt>
      <trkpt lat="43.60298" lon="6.63301">
        <ele>235.52</ele>
        <time>2019-10-08T07:45:22Z</time>
      </trkpt>
      <trkpt lat="43.60299" lon="6.63293">
        <ele>235.78</ele>
        <time>2019-10-08T07:45:39Z</time>
      </trkpt>
      <trkpt lat="43.60296" lon="6.63288">
        <ele>235.78</ele>
        <time>2019-10-08T07:46:02Z</time>
      </trkpt>
      <trkpt lat="43.60295" lon="6.6328">
        <ele>235.78</ele>
        <time>2019-10-08T07:46:26Z</time>
      </trkpt>
      <trkpt lat="43.60296" lon="6.63278">
        <ele>235.78</ele>
        <time>2019-10-08T07:46:51Z</time>
      </trkpt>
      <trkpt lat="43.60296" lon="6.6328">
        <ele>235.78</ele>
        <time>2019-10-08T07:47:17Z</time>
      </trkpt>
      <trkpt lat="43.60297" lon="6.63285">
        <ele>235.78</ele>
        <time>2019-10-08T07:47:40Z</time>
      </trkpt>
      <trkpt lat="43.60298" lon="6.63283">
        <ele>235.78</ele>
        <time>2019-10-08T07:48:04Z</time>
      </trkpt>
      <trkpt lat="43.60297" lon="6.63284">
        <ele>235.78</ele>
        <time>2019-10-08T07:48:29Z</time>
      </trkpt>
      <trkpt lat="43.60298" lon="6.63286">
        <ele>235.78</ele>
        <time>2019-10-08T07:48:56Z</time>
      </trkpt>
      <trkpt lat="43.60298" lon="6.63285">
        <ele>235.78</ele>
        <time>2019-10-08T07:49:20Z</time>
      </trkpt>
      <trkpt lat="43.60296" lon="6.63282">
        <ele>235.78</ele>
        <time>2019-10-08T07:49:44Z</time>
      </trkpt>
      <trkpt lat="43.60297" lon="6.63282">
        <ele>235.78</ele>
        <time>2019-10-08T07:50:10Z</time>
      </trkpt>
      <trkpt lat="43.60307" lon="6.6328">
        <ele>235.78</ele>
        <time>2019-10-08T07:50:28Z</time>
      </trkpt>
      <trkpt lat="43.6032" lon="6.63277">
        <ele>235.97</ele>
        <time>2019-10-08T07:50:41Z</time>
      </trkpt>
      <trkpt lat="43.60334" lon="6.63269">
        <ele>236.45</ele>
        <time>2019-10-08T07:50:55Z</time>
      </trkpt>
      <trkpt lat="43.60351" lon="6.63264">
        <ele>237.82</ele>
        <time>2019-10-08T07:51:12Z</time>
      </trkpt>
      <trkpt lat="43.60363" lon="6.63257">
        <ele>238.84</ele>
        <time>2019-10-08T07:51:24Z</time>
      </trkpt>
      <trkpt lat="43.60373" lon="6.63251">
        <ele>239.89</ele>
        <time>2019-10-08T07:51:34Z</time>
      </trkpt>
      <trkpt lat="43.60387" lon="6.63237">
        <ele>241.11</ele>
        <time>2019-10-08T07:51:48Z</time>
      </trkpt>
      <trkpt lat="43.60397" lon="6.6322">
        <ele>242.06</ele>
        <time>2019-10-08T07:52:02Z</time>
      </trkpt>
      <trkpt lat="43.60407" lon="6.63201">
        <ele>242.85</ele>
        <time>2019-10-08T07:52:16Z</time>
      </trkpt>
      <trkpt lat="43.60412" lon="6.63188">
        <ele>243.31</ele>
        <time>2019-10-08T07:52:27Z</time>
      </trkpt>
      <trkpt lat="43.60422" lon="6.63163">
        <ele>243.98</ele>
        <time>2019-10-08T07:52:45Z</time>
      </trkpt>
      <trkpt lat="43.60426" lon="6.63158">
        <ele>244.19</ele>
        <time>2019-10-08T07:52:50Z</time>
      </trkpt>
      <trkpt lat="43.60436" lon="6.63146">
        <ele>244.58</ele>
        <time>2019-10-08T07:53:03Z</time>
      </trkpt>
      <trkpt lat="43.60448" lon="6.63137">
        <ele>244.69</ele>
        <time>2019-10-08T07:53:17Z</time>
      </trkpt>
      <trkpt lat="43.60464" lon="6.63123">
        <ele>245.18</ele>
        <time>2019-10-08T07:53:32Z</time>
      </trkpt>
      <trkpt lat="43.60473" lon="6.63115">
        <ele>245.45</ele>
        <time>2019-10-08T07:53:41Z</time>
      </trkpt>
      <trkpt lat="43.60476" lon="6.63112">
        <ele>245.5</ele>
        <time>2019-10-08T07:53:44Z</time>
      </trkpt>
      <trkpt lat="43.60487" lon="6.63098">
        <ele>245.83</ele>
        <time>2019-10-08T07:53:56Z</time>
      </trkpt>
      <trkpt lat="43.60499" lon="6.63088">
        <ele>245.63</ele>
        <time>2019-10-08T07:54:10Z</time>
      </trkpt>
      <trkpt lat="43.60519" lon="6.63078">
        <ele>245.2</ele>
        <time>2019-10-08T07:54:26Z</time>
      </trkpt>
      <trkpt lat="43.60528" lon="6.63074">
        <ele>245.09</ele>
        <time>2019-10-08T07:54:35Z</time>
      </trkpt>
      <trkpt lat="43.60541" lon="6.63067">
        <ele>244.93</ele>
        <time>2019-10-08T07:54:47Z</time>
      </trkpt>
      <trkpt lat="43.60552" lon="6.63064">
        <ele>245.4</ele>
        <time>2019-10-08T07:54:56Z</time>
      </trkpt>
      <trkpt lat="43.60561" lon="6.63061">
        <ele>245.91</ele>
        <time>2019-10-08T07:55:04Z</time>
      </trkpt>
      <trkpt lat="43.60573" lon="6.63052">
        <ele>246.75</ele>
        <time>2019-10-08T07:55:17Z</time>
      </trkpt>
      <trkpt lat="43.60584" lon="6.63047">
        <ele>247.34</ele>
        <time>2019-10-08T07:55:28Z</time>
      </trkpt>
      <trkpt lat="43.60595" lon="6.63042">
        <ele>248.11</ele>
        <time>2019-10-08T07:55:37Z</time>
      </trkpt>
      <trkpt lat="43.60598" lon="6.63041">
        <ele>248.26</ele>
        <time>2019-10-08T07:55:40Z</time>
      </trkpt>
      <trkpt lat="43.6062" lon="6.63029">
        <ele>248.56</ele>
        <time>2019-10-08T07:55:56Z</time>
      </trkpt>
      <trkpt lat="43.60621" lon="6.63028">
        <ele>248.56</ele>
        <time>2019-10-08T07:55:57Z</time>
      </trkpt>
      <trkpt lat="43.60638" lon="6.63015">
        <ele>248.98</ele>
        <time>2019-10-08T07:56:12Z</time>
      </trkpt>
      <trkpt lat="43.60654" lon="6.63008">
        <ele>249.39</ele>
        <time>2019-10-08T07:56:24Z</time>
      </trkpt>
      <trkpt lat="43.60668" lon="6.62999">
        <ele>249.81</ele>
        <time>2019-10-08T07:56:37Z</time>
      </trkpt>
      <trkpt lat="43.60673" lon="6.62994">
        <ele>250.07</ele>
        <time>2019-10-08T07:56:42Z</time>
      </trkpt>
      <trkpt lat="43.60682" lon="6.62984">
        <ele>249.81</ele>
        <time>2019-10-08T07:56:51Z</time>
      </trkpt>
      <trkpt lat="43.60688" lon="6.62979">
        <ele>249.85</ele>
        <time>2019-10-08T07:56:58Z</time>
      </trkpt>
      <trkpt lat="43.60693" lon="6.62979">
        <ele>249.99</ele>
        <time>2019-10-08T07:57:02Z</time>
      </trkpt>
      <trkpt lat="43.60706" lon="6.6298">
        <ele>251.3</ele>
        <time>2019-10-08T07:57:15Z</time>
      </trkpt>
      <trkpt lat="43.60721" lon="6.62976">
        <ele>253.21</ele>
        <time>2019-10-08T07:57:30Z</time>
      </trkpt>
      <trkpt lat="43.60734" lon="6.62977">
        <ele>255.29</ele>
        <time>2019-10-08T07:57:44Z</time>
      </trkpt>
      <trkpt lat="43.60745" lon="6.62978">
        <ele>256.24</ele>
        <time>2019-10-08T07:57:54Z</time>
      </trkpt>
      <trkpt lat="43.60772" lon="6.62977">
        <ele>257.1</ele>
        <time>2019-10-08T07:58:13Z</time>
      </trkpt>
      <trkpt lat="43.60789" lon="6.62975">
        <ele>257.67</ele>
        <time>2019-10-08T07:58:26Z</time>
      </trkpt>
      <trkpt lat="43.60803" lon="6.62972">
        <ele>259.23</ele>
        <time>2019-10-08T07:58:39Z</time>
      </trkpt>
      <trkpt lat="43.60815" lon="6.6296">
        <ele>260.18</ele>
        <time>2019-10-08T07:58:51Z</time>
      </trkpt>
      <trkpt lat="43.60827" lon="6.62953">
        <ele>260.93</ele>
        <time>2019-10-08T07:59:01Z</time>
      </trkpt>
      <trkpt lat="43.60838" lon="6.62945">
        <ele>261.89</ele>
        <time>2019-10-08T07:59:12Z</time>
      </trkpt>
      <trkpt lat="43.60849" lon="6.62935">
        <ele>263.29</ele>
        <time>2019-10-08T07:59:24Z</time>
      </trkpt>
      <trkpt lat="43.60859" lon="6.62923">
        <ele>264.73</ele>
        <time>2019-10-08T07:59:37Z</time>
      </trkpt>
      <trkpt lat="43.60869" lon="6.62913">
        <ele>266.68</ele>
        <time>2019-10-08T07:59:50Z</time>
      </trkpt>
      <trkpt lat="43.6088" lon="6.62897">
        <ele>268.6</ele>
        <time>2019-10-08T08:00:05Z</time>
      </trkpt>
      <trkpt lat="43.6089" lon="6.6288">
        <ele>270.6</ele>
        <time>2019-10-08T08:00:22Z</time>
      </trkpt>
      <trkpt lat="43.60899" lon="6.6287">
        <ele>272.2</ele>
        <time>2019-10-08T08:00:33Z</time>
      </trkpt>
      <trkpt lat="43.60914" lon="6.62857">
        <ele>274.25</ele>
        <time>2019-10-08T08:00:51Z</time>
      </trkpt>
      <trkpt lat="43.60928" lon="6.62846">
        <ele>275.27</ele>
        <time>2019-10-08T08:01:08Z</time>
      </trkpt>
      <trkpt lat="43.60948" lon="6.62826">
        <ele>277.14</ele>
        <time>2019-10-08T08:01:27Z</time>
      </trkpt>
      <trkpt lat="43.60954" lon="6.62818">
        <ele>277.74</ele>
        <time>2019-10-08T08:01:33Z</time>
      </trkpt>
      <trkpt lat="43.60967" lon="6.62803">
        <ele>279.29</ele>
        <time>2019-10-08T08:01:48Z</time>
      </trkpt>
      <trkpt lat="43.60972" lon="6.62793">
        <ele>280.2</ele>
        <time>2019-10-08T08:01:57Z</time>
      </trkpt>
      <trkpt lat="43.60982" lon="6.62773">
        <ele>282.43</ele>
        <time>2019-10-08T08:02:14Z</time>
      </trkpt>
      <trkpt lat="43.60992" lon="6.62761">
        <ele>283.89</ele>
        <time>2019-10-08T08:02:27Z</time>
      </trkpt>
      <trkpt lat="43.60998" lon="6.62758">
        <ele>284.34</ele>
        <time>2019-10-08T08:02:33Z</time>
      </trkpt>
      <trkpt lat="43.6101" lon="6.62744">
        <ele>285.12</ele>
        <time>2019-10-08T08:02:46Z</time>
      </trkpt>
      <trkpt lat="43.61012" lon="6.62741">
        <ele>285.25</ele>
        <time>2019-10-08T08:02:48Z</time>
      </trkpt>
      <trkpt lat="43.61015" lon="6.62737">
        <ele>285.44</ele>
        <time>2019-10-08T08:02:51Z</time>
      </trkpt>
      <trkpt lat="43.61031" lon="6.62716">
        <ele>288.04</ele>
        <time>2019-10-08T08:03:11Z</time>
      </trkpt>
      <trkpt lat="43.61045" lon="6.62701">
        <ele>289.64</ele>
        <time>2019-10-08T08:03:27Z</time>
      </trkpt>
      <trkpt lat="43.61059" lon="6.62681">
        <ele>292.2</ele>
        <time>2019-10-08T08:03:45Z</time>
      </trkpt>
      <trkpt lat="43.61068" lon="6.62656">
        <ele>295.39</ele>
        <time>2019-10-08T08:04:03Z</time>
      </trkpt>
      <trkpt lat="43.61074" lon="6.62634">
        <ele>297.34</ele>
        <time>2019-10-08T08:04:16Z</time>
      </trkpt>
      <trkpt lat="43.61081" lon="6.62621">
        <ele>298.22</ele>
        <time>2019-10-08T08:04:24Z</time>
      </trkpt>
      <trkpt lat="43.61088" lon="6.62609">
        <ele>298.79</ele>
        <time>2019-10-08T08:04:33Z</time>
      </trkpt>
      <trkpt lat="43.61096" lon="6.62593">
        <ele>299.21</ele>
        <time>2019-10-08T08:04:43Z</time>
      </trkpt>
      <trkpt lat="43.61098" lon="6.62588">
        <ele>299.45</ele>
        <time>2019-10-08T08:04:47Z</time>
      </trkpt>
      <trkpt lat="43.61107" lon="6.62571">
        <ele>300.09</ele>
        <time>2019-10-08T08:04:59Z</time>
      </trkpt>
      <trkpt lat="43.61114" lon="6.62555">
        <ele>299.91</ele>
        <time>2019-10-08T08:05:10Z</time>
      </trkpt>
      <trkpt lat="43.61119" lon="6.62544">
        <ele>299.9</ele>
        <time>2019-10-08T08:05:17Z</time>
      </trkpt>
      <trkpt lat="43.61128" lon="6.62523">
        <ele>300.12</ele>
        <time>2019-10-08T08:05:30Z</time>
      </trkpt>
      <trkpt lat="43.61134" lon="6.62504">
        <ele>301.12</ele>
        <time>2019-10-08T08:05:44Z</time>
      </trkpt>
      <trkpt lat="43.61137" lon="6.62485">
        <ele>302.53</ele>
        <time>2019-10-08T08:05:56Z</time>
      </trkpt>
      <trkpt lat="43.61137" lon="6.62479">
        <ele>302.91</ele>
        <time>2019-10-08T08:06:00Z</time>
      </trkpt>
      <trkpt lat="43.61141" lon="6.62455">
        <ele>304.49</ele>
        <time>2019-10-08T08:06:14Z</time>
      </trkpt>
      <trkpt lat="43.61144" lon="6.62447">
        <ele>305.06</ele>
        <time>2019-10-08T08:06:20Z</time>
      </trkpt>
      <trkpt lat="43.61146" lon="6.62436">
        <ele>305.75</ele>
        <time>2019-10-08T08:06:27Z</time>
      </trkpt>
      <trkpt lat="43.61154" lon="6.62419">
        <ele>306.27</ele>
        <time>2019-10-08T08:06:39Z</time>
      </trkpt>
      <trkpt lat="43.61161" lon="6.62411">
        <ele>306.76</ele>
        <time>2019-10-08T08:06:47Z</time>
      </trkpt>
      <trkpt lat="43.61169" lon="6.62405">
        <ele>306.06</ele>
        <time>2019-10-08T08:06:58Z</time>
      </trkpt>
      <trkpt lat="43.6117" lon="6.62403">
        <ele>305.72</ele>
        <time>2019-10-08T08:07:00Z</time>
      </trkpt>
      <trkpt lat="43.61181" lon="6.62397">
        <ele>302.98</ele>
        <time>2019-10-08T08:07:14Z</time>
      </trkpt>
      <trkpt lat="43.61186" lon="6.62399">
        <ele>302.35</ele>
        <time>2019-10-08T08:07:18Z</time>
      </trkpt>
      <trkpt lat="43.61194" lon="6.62397">
        <ele>301.22</ele>
        <time>2019-10-08T08:07:26Z</time>
      </trkpt>
      <trkpt lat="43.61196" lon="6.62396">
        <ele>300.96</ele>
        <time>2019-10-08T08:07:28Z</time>
      </trkpt>
      <trkpt lat="43.612" lon="6.62393">
        <ele>300.58</ele>
        <time>2019-10-08T08:07:31Z</time>
      </trkpt>
      <trkpt lat="43.61207" lon="6.62387">
        <ele>299.98</ele>
        <time>2019-10-08T08:07:40Z</time>
      </trkpt>
      <trkpt lat="43.61216" lon="6.62383">
        <ele>299.76</ele>
        <time>2019-10-08T08:07:49Z</time>
      </trkpt>
      <trkpt lat="43.6122" lon="6.62382">
        <ele>299.58</ele>
        <time>2019-10-08T08:08:00Z</time>
      </trkpt>
      <trkpt lat="43.61219" lon="6.62374">
        <ele>299.54</ele>
        <time>2019-10-08T08:08:29Z</time>
      </trkpt>
      <trkpt lat="43.61222" lon="6.62373">
        <ele>299.62</ele>
        <time>2019-10-08T08:08:57Z</time>
      </trkpt>
      <trkpt lat="43.61219" lon="6.62376">
        <ele>299.62</ele>
        <time>2019-10-08T08:09:24Z</time>
      </trkpt>
      <trkpt lat="43.6122" lon="6.62376">
        <ele>299.62</ele>
        <time>2019-10-08T08:09:48Z</time>
      </trkpt>
      <trkpt lat="43.6122" lon="6.62376">
        <ele>299.62</ele>
        <time>2019-10-08T08:10:34Z</time>
      </trkpt>
      <trkpt lat="43.61222" lon="6.62376">
        <ele>299.62</ele>
        <time>2019-10-08T08:11:01Z</time>
      </trkpt>
      <trkpt lat="43.61226" lon="6.62377">
        <ele>299.62</ele>
        <time>2019-10-08T08:11:24Z</time>
      </trkpt>
      <trkpt lat="43.61227" lon="6.62381">
        <ele>299.42</ele>
        <time>2019-10-08T08:12:10Z</time>
      </trkpt>
      <trkpt lat="43.61225" lon="6.62388">
        <ele>299.39</ele>
        <time>2019-10-08T08:12:31Z</time>
      </trkpt>
      <trkpt lat="43.61225" lon="6.62411">
        <ele>299.3</ele>
        <time>2019-10-08T08:12:50Z</time>
      </trkpt>
      <trkpt lat="43.61224" lon="6.62421">
        <ele>299.3</ele>
        <time>2019-10-08T08:12:59Z</time>
      </trkpt>
      <trkpt lat="43.61223" lon="6.62433">
        <ele>299.3</ele>
        <time>2019-10-08T08:13:06Z</time>
      </trkpt>
      <trkpt lat="43.61219" lon="6.62464">
        <ele>299.43</ele>
        <time>2019-10-08T08:13:25Z</time>
      </trkpt>
      <trkpt lat="43.61211" lon="6.62477">
        <ele>299.44</ele>
        <time>2019-10-08T08:13:34Z</time>
      </trkpt>
      <trkpt lat="43.61205" lon="6.62498">
        <ele>299.4</ele>
        <time>2019-10-08T08:13:47Z</time>
      </trkpt>
      <trkpt lat="43.61198" lon="6.62519">
        <ele>299.3</ele>
        <time>2019-10-08T08:14:00Z</time>
      </trkpt>
      <trkpt lat="43.61192" lon="6.62529">
        <ele>299.25</ele>
        <time>2019-10-08T08:14:08Z</time>
      </trkpt>
      <trkpt lat="43.61189" lon="6.62535">
        <ele>299.18</ele>
        <time>2019-10-08T08:14:13Z</time>
      </trkpt>
      <trkpt lat="43.61186" lon="6.62538">
        <ele>299.16</ele>
        <time>2019-10-08T08:14:16Z</time>
      </trkpt>
      <trkpt lat="43.61182" lon="6.62551">
        <ele>299.21</ele>
        <time>2019-10-08T08:14:24Z</time>
      </trkpt>
      <trkpt lat="43.61179" lon="6.62555">
        <ele>299.22</ele>
        <time>2019-10-08T08:14:27Z</time>
      </trkpt>
      <trkpt lat="43.61176" lon="6.62559">
        <ele>299.24</ele>
        <time>2019-10-08T08:14:31Z</time>
      </trkpt>
      <trkpt lat="43.61174" lon="6.62572">
        <ele>299.26</ele>
        <time>2019-10-08T08:14:39Z</time>
      </trkpt>
      <trkpt lat="43.61174" lon="6.62576">
        <ele>299.28</ele>
        <time>2019-10-08T08:14:41Z</time>
      </trkpt>
      <trkpt lat="43.61172" lon="6.62589">
        <ele>299.07</ele>
        <time>2019-10-08T08:14:47Z</time>
      </trkpt>
      <trkpt lat="43.61169" lon="6.62598">
        <ele>299.07</ele>
        <time>2019-10-08T08:14:52Z</time>
      </trkpt>
      <trkpt lat="43.61164" lon="6.62607">
        <ele>299.06</ele>
        <time>2019-10-08T08:14:59Z</time>
      </trkpt>
      <trkpt lat="43.61156" lon="6.62631">
        <ele>299.05</ele>
        <time>2019-10-08T08:15:14Z</time>
      </trkpt>
      <trkpt lat="43.61154" lon="6.62645">
        <ele>298.95</ele>
        <time>2019-10-08T08:15:22Z</time>
      </trkpt>
      <trkpt lat="43.61153" lon="6.62651">
        <ele>298.93</ele>
        <time>2019-10-08T08:15:26Z</time>
      </trkpt>
      <trkpt lat="43.61146" lon="6.62666">
        <ele>298.89</ele>
        <time>2019-10-08T08:15:37Z</time>
      </trkpt>
      <trkpt lat="43.6114" lon="6.62687">
        <ele>298.67</ele>
        <time>2019-10-08T08:15:51Z</time>
      </trkpt>
      <trkpt lat="43.61133" lon="6.62704">
        <ele>298.58</ele>
        <time>2019-10-08T08:16:03Z</time>
      </trkpt>
      <trkpt lat="43.61124" lon="6.62722">
        <ele>298.39</ele>
        <time>2019-10-08T08:16:15Z</time>
      </trkpt>
      <trkpt lat="43.61123" lon="6.62726">
        <ele>298.35</ele>
        <time>2019-10-08T08:16:18Z</time>
      </trkpt>
      <trkpt lat="43.6112" lon="6.62729">
        <ele>298.28</ele>
        <time>2019-10-08T08:16:21Z</time>
      </trkpt>
      <trkpt lat="43.61117" lon="6.62736">
        <ele>298.14</ele>
        <time>2019-10-08T08:16:26Z</time>
      </trkpt>
      <trkpt lat="43.61113" lon="6.62741">
        <ele>298.14</ele>
        <time>2019-10-08T08:16:30Z</time>
      </trkpt>
      <trkpt lat="43.61112" lon="6.62744">
        <ele>298.14</ele>
        <time>2019-10-08T08:16:32Z</time>
      </trkpt>
      <trkpt lat="43.61104" lon="6.62763">
        <ele>297.99</ele>
        <time>2019-10-08T08:16:46Z</time>
      </trkpt>
      <trkpt lat="43.61096" lon="6.62779">
        <ele>297.9</ele>
        <time>2019-10-08T08:16:57Z</time>
      </trkpt>
      <trkpt lat="43.61091" lon="6.62788">
        <ele>297.79</ele>
        <time>2019-10-08T08:17:03Z</time>
      </trkpt>
      <trkpt lat="43.61089" lon="6.62792">
        <ele>297.74</ele>
        <time>2019-10-08T08:17:06Z</time>
      </trkpt>
      <trkpt lat="43.61077" lon="6.62806">
        <ele>297.63</ele>
        <time>2019-10-08T08:17:19Z</time>
      </trkpt>
      <trkpt lat="43.61076" lon="6.62811">
        <ele>297.58</ele>
        <time>2019-10-08T08:17:22Z</time>
      </trkpt>
      <trkpt lat="43.6107" lon="6.62821">
        <ele>297.54</ele>
        <time>2019-10-08T08:17:29Z</time>
      </trkpt>
      <trkpt lat="43.61067" lon="6.62827">
        <ele>297.47</ele>
        <time>2019-10-08T08:17:33Z</time>
      </trkpt>
      <trkpt lat="43.61061" lon="6.62839">
        <ele>297.36</ele>
        <time>2019-10-08T08:17:42Z</time>
      </trkpt>
      <trkpt lat="43.61058" lon="6.62849">
        <ele>297.38</ele>
        <time>2019-10-08T08:17:47Z</time>
      </trkpt>
      <trkpt lat="43.61053" lon="6.62868">
        <ele>297.17</ele>
        <time>2019-10-08T08:17:59Z</time>
      </trkpt>
      <trkpt lat="43.61051" lon="6.62888">
        <ele>297.04</ele>
        <time>2019-10-08T08:18:11Z</time>
      </trkpt>
      <trkpt lat="43.61051" lon="6.62906">
        <ele>296.91</ele>
        <time>2019-10-08T08:18:21Z</time>
      </trkpt>
      <trkpt lat="43.61052" lon="6.62918">
        <ele>296.86</ele>
        <time>2019-10-08T08:18:28Z</time>
      </trkpt>
      <trkpt lat="43.61052" lon="6.62923">
        <ele>296.83</ele>
        <time>2019-10-08T08:18:31Z</time>
      </trkpt>
      <trkpt lat="43.61051" lon="6.6293">
        <ele>296.72</ele>
        <time>2019-10-08T08:18:35Z</time>
      </trkpt>
      <trkpt lat="43.61053" lon="6.62936">
        <ele>296.66</ele>
        <time>2019-10-08T08:18:38Z</time>
      </trkpt>
      <trkpt lat="43.61054" lon="6.6295">
        <ele>296.6</ele>
        <time>2019-10-08T08:18:45Z</time>
      </trkpt>
      <trkpt lat="43.61054" lon="6.62953">
        <ele>296.55</ele>
        <time>2019-10-08T08:18:47Z</time>
      </trkpt>
      <trkpt lat="43.61055" lon="6.62958">
        <ele>296.5</ele>
        <time>2019-10-08T08:18:51Z</time>
      </trkpt>
      <trkpt lat="43.61054" lon="6.62963">
        <ele>296.47</ele>
        <time>2019-10-08T08:18:54Z</time>
      </trkpt>
      <trkpt lat="43.6105" lon="6.62984">
        <ele>296.28</ele>
        <time>2019-10-08T08:19:07Z</time>
      </trkpt>
      <trkpt lat="43.61049" lon="6.62994">
        <ele>296.15</ele>
        <time>2019-10-08T08:19:13Z</time>
      </trkpt>
      <trkpt lat="43.61048" lon="6.63003">
        <ele>296.07</ele>
        <time>2019-10-08T08:19:18Z</time>
      </trkpt>
      <trkpt lat="43.61047" lon="6.6301">
        <ele>296.06</ele>
        <time>2019-10-08T08:19:22Z</time>
      </trkpt>
      <trkpt lat="43.61047" lon="6.63017">
        <ele>296.06</ele>
        <time>2019-10-08T08:19:26Z</time>
      </trkpt>
      <trkpt lat="43.61046" lon="6.63039">
        <ele>295.74</ele>
        <time>2019-10-08T08:19:39Z</time>
      </trkpt>
      <trkpt lat="43.61043" lon="6.63059">
        <ele>295.59</ele>
        <time>2019-10-08T08:19:51Z</time>
      </trkpt>
      <trkpt lat="43.61041" lon="6.63065">
        <ele>295.45</ele>
        <time>2019-10-08T08:19:55Z</time>
      </trkpt>
      <trkpt lat="43.61039" lon="6.63073">
        <ele>295.4</ele>
        <time>2019-10-08T08:20:00Z</time>
      </trkpt>
      <trkpt lat="43.61034" lon="6.63085">
        <ele>295.39</ele>
        <time>2019-10-08T08:20:08Z</time>
      </trkpt>
      <trkpt lat="43.61032" lon="6.63096">
        <ele>295.38</ele>
        <time>2019-10-08T08:20:15Z</time>
      </trkpt>
      <trkpt lat="43.6103" lon="6.63101">
        <ele>295.38</ele>
        <time>2019-10-08T08:20:18Z</time>
      </trkpt>
      <trkpt lat="43.61027" lon="6.63115">
        <ele>295.3</ele>
        <time>2019-10-08T08:20:27Z</time>
      </trkpt>
      <trkpt lat="43.61025" lon="6.63123">
        <ele>295.29</ele>
        <time>2019-10-08T08:20:32Z</time>
      </trkpt>
      <trkpt lat="43.61023" lon="6.63128">
        <ele>295.24</ele>
        <time>2019-10-08T08:20:35Z</time>
      </trkpt>
      <trkpt lat="43.61022" lon="6.63133">
        <ele>295.15</ele>
        <time>2019-10-08T08:20:38Z</time>
      </trkpt>
      <trkpt lat="43.6102" lon="6.63141">
        <ele>295.07</ele>
        <time>2019-10-08T08:20:42Z</time>
      </trkpt>
      <trkpt lat="43.61019" lon="6.63146">
        <ele>295.05</ele>
        <time>2019-10-08T08:20:45Z</time>
      </trkpt>
      <trkpt lat="43.61019" lon="6.63155">
        <ele>295.05</ele>
        <time>2019-10-08T08:20:50Z</time>
      </trkpt>
      <trkpt lat="43.6102" lon="6.63164">
        <ele>294.96</ele>
        <time>2019-10-08T08:20:55Z</time>
      </trkpt>
      <trkpt lat="43.6102" lon="6.63169">
        <ele>294.93</ele>
        <time>2019-10-08T08:20:58Z</time>
      </trkpt>
      <trkpt lat="43.61019" lon="6.63186">
        <ele>294.79</ele>
        <time>2019-10-08T08:21:08Z</time>
      </trkpt>
      <trkpt lat="43.61016" lon="6.63203">
        <ele>294.74</ele>
        <time>2019-10-08T08:21:19Z</time>
      </trkpt>
      <trkpt lat="43.61012" lon="6.63228">
        <ele>294.6</ele>
        <time>2019-10-08T08:21:33Z</time>
      </trkpt>
      <trkpt lat="43.61012" lon="6.63231">
        <ele>294.58</ele>
        <time>2019-10-08T08:21:35Z</time>
      </trkpt>
      <trkpt lat="43.61012" lon="6.63237">
        <ele>294.56</ele>
        <time>2019-10-08T08:21:38Z</time>
      </trkpt>
      <trkpt lat="43.61012" lon="6.63245">
        <ele>294.5</ele>
        <time>2019-10-08T08:21:43Z</time>
      </trkpt>
      <trkpt lat="43.61014" lon="6.63253">
        <ele>294.41</ele>
        <time>2019-10-08T08:21:48Z</time>
      </trkpt>
      <trkpt lat="43.61016" lon="6.63265">
        <ele>294.22</ele>
        <time>2019-10-08T08:21:55Z</time>
      </trkpt>
      <trkpt lat="43.61022" lon="6.63279">
        <ele>294.2</ele>
        <time>2019-10-08T08:22:04Z</time>
      </trkpt>
      <trkpt lat="43.61024" lon="6.63289">
        <ele>294.15</ele>
        <time>2019-10-08T08:22:10Z</time>
      </trkpt>
      <trkpt lat="43.6103" lon="6.63314">
        <ele>294.05</ele>
        <time>2019-10-08T08:22:25Z</time>
      </trkpt>
      <trkpt lat="43.61036" lon="6.63332">
        <ele>293.71</ele>
        <time>2019-10-08T08:22:37Z</time>
      </trkpt>
      <trkpt lat="43.61042" lon="6.63349">
        <ele>293.48</ele>
        <time>2019-10-08T08:22:49Z</time>
      </trkpt>
      <trkpt lat="43.61045" lon="6.63356">
        <ele>293.48</ele>
        <time>2019-10-08T08:22:53Z</time>
      </trkpt>
      <trkpt lat="43.61052" lon="6.63365">
        <ele>293.48</ele>
        <time>2019-10-08T08:23:00Z</time>
      </trkpt>
      <trkpt lat="43.61055" lon="6.6337">
        <ele>293.41</ele>
        <time>2019-10-08T08:23:04Z</time>
      </trkpt>
      <trkpt lat="43.61057" lon="6.63372">
        <ele>293.38</ele>
        <time>2019-10-08T08:23:06Z</time>
      </trkpt>
      <trkpt lat="43.61059" lon="6.63376">
        <ele>293.36</ele>
        <time>2019-10-08T08:23:09Z</time>
      </trkpt>
      <trkpt lat="43.61066" lon="6.63384">
        <ele>293.28</ele>
        <time>2019-10-08T08:23:15Z</time>
      </trkpt>
      <trkpt lat="43.61069" lon="6.6339">
        <ele>293.24</ele>
        <time>2019-10-08T08:23:20Z</time>
      </trkpt>
      <trkpt lat="43.61073" lon="6.63396">
        <ele>293.22</ele>
        <time>2019-10-08T08:23:24Z</time>
      </trkpt>
      <trkpt lat="43.61082" lon="6.63407">
        <ele>293.03</ele>
        <time>2019-10-08T08:23:31Z</time>
      </trkpt>
      <trkpt lat="43.61085" lon="6.63412">
        <ele>292.9</ele>
        <time>2019-10-08T08:23:36Z</time>
      </trkpt>
      <trkpt lat="43.61096" lon="6.63428">
        <ele>292.75</ele>
        <time>2019-10-08T08:23:50Z</time>
      </trkpt>
      <trkpt lat="43.61098" lon="6.6343">
        <ele>292.75</ele>
        <time>2019-10-08T08:23:52Z</time>
      </trkpt>
      <trkpt lat="43.61107" lon="6.63441">
        <ele>292.64</ele>
        <time>2019-10-08T08:24:00Z</time>
      </trkpt>
      <trkpt lat="43.61112" lon="6.63444">
        <ele>292.47</ele>
        <time>2019-10-08T08:24:04Z</time>
      </trkpt>
      <trkpt lat="43.61113" lon="6.63445">
        <ele>292.41</ele>
        <time>2019-10-08T08:24:06Z</time>
      </trkpt>
      <trkpt lat="43.61117" lon="6.63449">
        <ele>292.34</ele>
        <time>2019-10-08T08:24:09Z</time>
      </trkpt>
      <trkpt lat="43.61119" lon="6.63451">
        <ele>292.33</ele>
        <time>2019-10-08T08:24:11Z</time>
      </trkpt>
      <trkpt lat="43.6113" lon="6.63464">
        <ele>292.17</ele>
        <time>2019-10-08T08:24:22Z</time>
      </trkpt>
      <trkpt lat="43.61141" lon="6.6348">
        <ele>292.03</ele>
        <time>2019-10-08T08:24:35Z</time>
      </trkpt>
      <trkpt lat="43.61153" lon="6.635">
        <ele>291.87</ele>
        <time>2019-10-08T08:24:50Z</time>
      </trkpt>
      <trkpt lat="43.6116" lon="6.63512">
        <ele>291.78</ele>
        <time>2019-10-08T08:25:01Z</time>
      </trkpt>
      <trkpt lat="43.61163" lon="6.6352">
        <ele>291.71</ele>
        <time>2019-10-08T08:25:06Z</time>
      </trkpt>
      <trkpt lat="43.61166" lon="6.63528">
        <ele>291.61</ele>
        <time>2019-10-08T08:25:12Z</time>
      </trkpt>
      <trkpt lat="43.6118" lon="6.63553">
        <ele>291.65</ele>
        <time>2019-10-08T08:25:29Z</time>
      </trkpt>
      <trkpt lat="43.61191" lon="6.6357">
        <ele>291.51</ele>
        <time>2019-10-08T08:25:42Z</time>
      </trkpt>
      <trkpt lat="43.61194" lon="6.63575">
        <ele>291.45</ele>
        <time>2019-10-08T08:25:46Z</time>
      </trkpt>
      <trkpt lat="43.61205" lon="6.63585">
        <ele>291.28</ele>
        <time>2019-10-08T08:25:58Z</time>
      </trkpt>
      <trkpt lat="43.6121" lon="6.63591">
        <ele>291.13</ele>
        <time>2019-10-08T08:26:03Z</time>
      </trkpt>
      <trkpt lat="43.61223" lon="6.63607">
        <ele>290.95</ele>
        <time>2019-10-08T08:26:16Z</time>
      </trkpt>
      <trkpt lat="43.61236" lon="6.6362">
        <ele>290.67</ele>
        <time>2019-10-08T08:26:28Z</time>
      </trkpt>
      <trkpt lat="43.61251" lon="6.63628">
        <ele>290.35</ele>
        <time>2019-10-08T08:26:41Z</time>
      </trkpt>
      <trkpt lat="43.61268" lon="6.63639">
        <ele>290.14</ele>
        <time>2019-10-08T08:26:56Z</time>
      </trkpt>
      <trkpt lat="43.61279" lon="6.63644">
        <ele>290.12</ele>
        <time>2019-10-08T08:27:06Z</time>
      </trkpt>
      <trkpt lat="43.61283" lon="6.63645">
        <ele>290.12</ele>
        <time>2019-10-08T08:27:09Z</time>
      </trkpt>
      <trkpt lat="43.61288" lon="6.63649">
        <ele>290.02</ele>
        <time>2019-10-08T08:27:13Z</time>
      </trkpt>
      <trkpt lat="43.61294" lon="6.63653">
        <ele>289.93</ele>
        <time>2019-10-08T08:27:18Z</time>
      </trkpt>
      <trkpt lat="43.61303" lon="6.63658">
        <ele>289.9</ele>
        <time>2019-10-08T08:27:26Z</time>
      </trkpt>
      <trkpt lat="43.61308" lon="6.63661">
        <ele>289.8</ele>
        <time>2019-10-08T08:27:32Z</time>
      </trkpt>
      <trkpt lat="43.61313" lon="6.63664">
        <ele>289.66</ele>
        <time>2019-10-08T08:27:37Z</time>
      </trkpt>
      <trkpt lat="43.61316" lon="6.63666">
        <ele>289.65</ele>
        <time>2019-10-08T08:27:39Z</time>
      </trkpt>
      <trkpt lat="43.61327" lon="6.63666">
        <ele>289.64</ele>
        <time>2019-10-08T08:27:46Z</time>
      </trkpt>
      <trkpt lat="43.61343" lon="6.63675">
        <ele>289.48</ele>
        <time>2019-10-08T08:28:00Z</time>
      </trkpt>
      <trkpt lat="43.61382" lon="6.63691">
        <ele>289.38</ele>
        <time>2019-10-08T08:28:32Z</time>
      </trkpt>
      <trkpt lat="43.61386" lon="6.63691">
        <ele>289.36</ele>
        <time>2019-10-08T08:28:34Z</time>
      </trkpt>
      <trkpt lat="43.6139" lon="6.63691">
        <ele>289.32</ele>
        <time>2019-10-08T08:28:37Z</time>
      </trkpt>
      <trkpt lat="43.61399" lon="6.63694">
        <ele>289.27</ele>
        <time>2019-10-08T08:28:45Z</time>
      </trkpt>
      <trkpt lat="43.61406" lon="6.63698">
        <ele>289.13</ele>
        <time>2019-10-08T08:28:54Z</time>
      </trkpt>
      <trkpt lat="43.6141" lon="6.63703">
        <ele>289.17</ele>
        <time>2019-10-08T08:29:02Z</time>
      </trkpt>
      <trkpt lat="43.61421" lon="6.63712">
        <ele>289.13</ele>
        <time>2019-10-08T08:29:19Z</time>
      </trkpt>
      <trkpt lat="43.61434" lon="6.63725">
        <ele>289.19</ele>
        <time>2019-10-08T08:29:32Z</time>
      </trkpt>
      <trkpt lat="43.61441" lon="6.63735">
        <ele>289.19</ele>
        <time>2019-10-08T08:29:40Z</time>
      </trkpt>
      <trkpt lat="43.61445" lon="6.6374">
        <ele>289.18</ele>
        <time>2019-10-08T08:29:44Z</time>
      </trkpt>
      <trkpt lat="43.6145" lon="6.63746">
        <ele>289.3</ele>
        <time>2019-10-08T08:29:49Z</time>
      </trkpt>
      <trkpt lat="43.61455" lon="6.63754">
        <ele>289.33</ele>
        <time>2019-10-08T08:29:54Z</time>
      </trkpt>
      <trkpt lat="43.61457" lon="6.63759">
        <ele>289.27</ele>
        <time>2019-10-08T08:30:02Z</time>
      </trkpt>
      <trkpt lat="43.61459" lon="6.63757">
        <ele>289.29</ele>
        <time>2019-10-08T08:30:20Z</time>
      </trkpt>
      <trkpt lat="43.61458" lon="6.63757">
        <ele>289.14</ele>
        <time>2019-10-08T08:30:41Z</time>
      </trkpt>
      <trkpt lat="43.61457" lon="6.63759">
        <ele>289.17</ele>
        <time>2019-10-08T08:31:11Z</time>
      </trkpt>
      <trkpt lat="43.61458" lon="6.63758">
        <ele>289.17</ele>
        <time>2019-10-08T08:31:37Z</time>
      </trkpt>
      <trkpt lat="43.6146" lon="6.63758">
        <ele>289.17</ele>
        <time>2019-10-08T08:32:00Z</time>
      </trkpt>
      <trkpt lat="43.61465" lon="6.63749">
        <ele>289.17</ele>
        <time>2019-10-08T08:32:17Z</time>
      </trkpt>
      <trkpt lat="43.61462" lon="6.63753">
        <ele>289.17</ele>
        <time>2019-10-08T08:32:39Z</time>
      </trkpt>
      <trkpt lat="43.61543" lon="6.63773">
        <ele>289.4</ele>
        <time>2019-10-08T08:33:57Z</time>
      </trkpt>
      <trkpt lat="43.61531" lon="6.63769">
        <ele>289.4</ele>
        <time>2019-10-08T08:33:58Z</time>
      </trkpt>
      <trkpt lat="43.61457" lon="6.63747">
        <ele>289.4</ele>
        <time>2019-10-08T08:34:19Z</time>
      </trkpt>
      <trkpt lat="43.61447" lon="6.63755">
        <ele>289.4</ele>
        <time>2019-10-08T08:34:45Z</time>
      </trkpt>
      <trkpt lat="43.61445" lon="6.6376">
        <ele>289.4</ele>
        <time>2019-10-08T08:35:03Z</time>
      </trkpt>
      <trkpt lat="43.61449" lon="6.63759">
        <ele>289.4</ele>
        <time>2019-10-08T08:35:23Z</time>
      </trkpt>
      <trkpt lat="43.61451" lon="6.6376">
        <ele>289.4</ele>
        <time>2019-10-08T08:35:45Z</time>
      </trkpt>
      <trkpt lat="43.61456" lon="6.63755">
        <ele>289.4</ele>
        <time>2019-10-08T08:36:05Z</time>
      </trkpt>
      <trkpt lat="43.61458" lon="6.63757">
        <ele>289.4</ele>
        <time>2019-10-08T08:36:24Z</time>
      </trkpt>
      <trkpt lat="43.61461" lon="6.63762">
        <ele>289.4</ele>
        <time>2019-10-08T08:36:37Z</time>
      </trkpt>
      <trkpt lat="43.6146" lon="6.63758">
        <ele>289.4</ele>
        <time>2019-10-08T08:36:52Z</time>
      </trkpt>
      <trkpt lat="43.61459" lon="6.63755">
        <ele>289.4</ele>
        <time>2019-10-08T08:37:15Z</time>
      </trkpt>
      <trkpt lat="43.61461" lon="6.63753">
        <ele>289.4</ele>
        <time>2019-10-08T08:37:38Z</time>
      </trkpt>
      <trkpt lat="43.61462" lon="6.63747">
        <ele>289.4</ele>
        <time>2019-10-08T08:38:04Z</time>
      </trkpt>
      <trkpt lat="43.61457" lon="6.63752">
        <ele>289.4</ele>
        <time>2019-10-08T08:38:28Z</time>
      </trkpt>
      <trkpt lat="43.61456" lon="6.63752">
        <ele>289.4</ele>
        <time>2019-10-08T08:38:52Z</time>
      </trkpt>
      <trkpt lat="43.61458" lon="6.63751">
        <ele>289.4</ele>
        <time>2019-10-08T08:39:14Z</time>
      </trkpt>
      <trkpt lat="43.61466" lon="6.63763">
        <ele>289.4</ele>
        <time>2019-10-08T08:39:26Z</time>
      </trkpt>
      <trkpt lat="43.61471" lon="6.63785">
        <ele>289.49</ele>
        <time>2019-10-08T08:39:41Z</time>
      </trkpt>
      <trkpt lat="43.61469" lon="6.63796">
        <ele>289.6</ele>
        <time>2019-10-08T08:39:53Z</time>
      </trkpt>
      <trkpt lat="43.61469" lon="6.63797">
        <ele>289.49</ele>
        <time>2019-10-08T08:40:12Z</time>
      </trkpt>
      <trkpt lat="43.61473" lon="6.638">
        <ele>289.72</ele>
        <time>2019-10-08T08:40:29Z</time>
      </trkpt>
      <trkpt lat="43.61474" lon="6.63799">
        <ele>289.68</ele>
        <time>2019-10-08T08:40:44Z</time>
      </trkpt>
      <trkpt lat="43.61477" lon="6.63804">
        <ele>289.65</ele>
        <time>2019-10-08T08:41:01Z</time>
      </trkpt>
      <trkpt lat="43.61478" lon="6.63817">
        <ele>289.7</ele>
        <time>2019-10-08T08:41:12Z</time>
      </trkpt>
      <trkpt lat="43.61481" lon="6.63832">
        <ele>289.87</ele>
        <time>2019-10-08T08:41:27Z</time>
      </trkpt>
      <trkpt lat="43.61482" lon="6.6385">
        <ele>290.13</ele>
        <time>2019-10-08T08:41:42Z</time>
      </trkpt>
      <trkpt lat="43.61482" lon="6.63861">
        <ele>290.14</ele>
        <time>2019-10-08T08:41:51Z</time>
      </trkpt>
      <trkpt lat="43.61481" lon="6.63882">
        <ele>290.29</ele>
        <time>2019-10-08T08:42:08Z</time>
      </trkpt>
      <trkpt lat="43.61478" lon="6.63906">
        <ele>290.55</ele>
        <time>2019-10-08T08:42:25Z</time>
      </trkpt>
      <trkpt lat="43.61473" lon="6.63924">
        <ele>290.74</ele>
        <time>2019-10-08T08:42:38Z</time>
      </trkpt>
      <trkpt lat="43.61467" lon="6.63944">
        <ele>290.98</ele>
        <time>2019-10-08T08:42:52Z</time>
      </trkpt>
      <trkpt lat="43.61461" lon="6.63961">
        <ele>291.15</ele>
        <time>2019-10-08T08:43:04Z</time>
      </trkpt>
      <trkpt lat="43.61455" lon="6.63974">
        <ele>291.26</ele>
        <time>2019-10-08T08:43:15Z</time>
      </trkpt>
      <trkpt lat="43.61447" lon="6.63986">
        <ele>291.57</ele>
        <time>2019-10-08T08:43:28Z</time>
      </trkpt>
      <trkpt lat="43.61439" lon="6.63992">
        <ele>292</ele>
        <time>2019-10-08T08:43:41Z</time>
      </trkpt>
      <trkpt lat="43.61442" lon="6.63999">
        <ele>292.17</ele>
        <time>2019-10-08T08:44:01Z</time>
      </trkpt>
      <trkpt lat="43.6145" lon="6.64005">
        <ele>293.53</ele>
        <time>2019-10-08T08:44:13Z</time>
      </trkpt>
      <trkpt lat="43.61457" lon="6.6401">
        <ele>295.29</ele>
        <time>2019-10-08T08:44:24Z</time>
      </trkpt>
      <trkpt lat="43.6146" lon="6.64011">
        <ele>295.73</ele>
        <time>2019-10-08T08:44:27Z</time>
      </trkpt>
      <trkpt lat="43.61472" lon="6.64015">
        <ele>297.65</ele>
        <time>2019-10-08T08:44:40Z</time>
      </trkpt>
      <trkpt lat="43.61478" lon="6.64015">
        <ele>299.17</ele>
        <time>2019-10-08T08:44:52Z</time>
      </trkpt>
      <trkpt lat="43.61495" lon="6.64015">
        <ele>301.85</ele>
        <time>2019-10-08T08:45:12Z</time>
      </trkpt>
      <trkpt lat="43.61499" lon="6.64019">
        <ele>302.65</ele>
        <time>2019-10-08T08:45:30Z</time>
      </trkpt>
      <trkpt lat="43.61487" lon="6.64017">
        <ele>303.76</ele>
        <time>2019-10-08T08:45:46Z</time>
      </trkpt>
      <trkpt lat="43.61475" lon="6.6403">
        <ele>305.42</ele>
        <time>2019-10-08T08:46:06Z</time>
      </trkpt>
      <trkpt lat="43.61468" lon="6.64039">
        <ele>306.2</ele>
        <time>2019-10-08T08:46:18Z</time>
      </trkpt>
      <trkpt lat="43.61456" lon="6.64056">
        <ele>308.24</ele>
        <time>2019-10-08T08:46:40Z</time>
      </trkpt>
      <trkpt lat="43.61445" lon="6.64071">
        <ele>310.31</ele>
        <time>2019-10-08T08:46:58Z</time>
      </trkpt>
      <trkpt lat="43.61445" lon="6.64096">
        <ele>313.28</ele>
        <time>2019-10-08T08:47:19Z</time>
      </trkpt>
      <trkpt lat="43.61449" lon="6.64112">
        <ele>315</ele>
        <time>2019-10-08T08:47:33Z</time>
      </trkpt>
      <trkpt lat="43.61467" lon="6.64127">
        <ele>317.35</ele>
        <time>2019-10-08T08:47:54Z</time>
      </trkpt>
      <trkpt lat="43.6148" lon="6.64128">
        <ele>319.37</ele>
        <time>2019-10-08T08:48:11Z</time>
      </trkpt>
      <trkpt lat="43.61495" lon="6.64128">
        <ele>321.84</ele>
        <time>2019-10-08T08:48:30Z</time>
      </trkpt>
      <trkpt lat="43.61496" lon="6.64139">
        <ele>324.54</ele>
        <time>2019-10-08T08:48:47Z</time>
      </trkpt>
      <trkpt lat="43.61502" lon="6.64155">
        <ele>326.48</ele>
        <time>2019-10-08T08:49:05Z</time>
      </trkpt>
      <trkpt lat="43.61505" lon="6.64173">
        <ele>327.74</ele>
        <time>2019-10-08T08:49:22Z</time>
      </trkpt>
      <trkpt lat="43.61507" lon="6.64186">
        <ele>328.5</ele>
        <time>2019-10-08T08:49:33Z</time>
      </trkpt>
      <trkpt lat="43.61508" lon="6.6419">
        <ele>328.71</ele>
        <time>2019-10-08T08:49:36Z</time>
      </trkpt>
      <trkpt lat="43.61518" lon="6.64211">
        <ele>329.72</ele>
        <time>2019-10-08T08:49:52Z</time>
      </trkpt>
      <trkpt lat="43.61525" lon="6.64223">
        <ele>330.35</ele>
        <time>2019-10-08T08:50:02Z</time>
      </trkpt>
      <trkpt lat="43.61533" lon="6.64237">
        <ele>331</ele>
        <time>2019-10-08T08:50:15Z</time>
      </trkpt>
      <trkpt lat="43.61548" lon="6.64242">
        <ele>332.59</ele>
        <time>2019-10-08T08:50:31Z</time>
      </trkpt>
      <trkpt lat="43.61556" lon="6.64223">
        <ele>335.04</ele>
        <time>2019-10-08T08:50:49Z</time>
      </trkpt>
      <trkpt lat="43.61565" lon="6.64203">
        <ele>337.15</ele>
        <time>2019-10-08T08:51:09Z</time>
      </trkpt>
      <trkpt lat="43.61566" lon="6.64202">
        <ele>337.24</ele>
        <time>2019-10-08T08:51:10Z</time>
      </trkpt>
      <trkpt lat="43.61573" lon="6.64189">
        <ele>338.48</ele>
        <time>2019-10-08T08:51:25Z</time>
      </trkpt>
      <trkpt lat="43.61579" lon="6.64186">
        <ele>338.98</ele>
        <time>2019-10-08T08:51:32Z</time>
      </trkpt>
      <trkpt lat="43.61589" lon="6.64182">
        <ele>340.08</ele>
        <time>2019-10-08T08:51:43Z</time>
      </trkpt>
      <trkpt lat="43.61599" lon="6.64181">
        <ele>340.79</ele>
        <time>2019-10-08T08:51:55Z</time>
      </trkpt>
      <trkpt lat="43.61612" lon="6.64178">
        <ele>341.05</ele>
        <time>2019-10-08T08:52:09Z</time>
      </trkpt>
      <trkpt lat="43.61624" lon="6.64173">
        <ele>341.14</ele>
        <time>2019-10-08T08:52:23Z</time>
      </trkpt>
      <trkpt lat="43.61637" lon="6.6416">
        <ele>341.47</ele>
        <time>2019-10-08T08:52:34Z</time>
      </trkpt>
      <trkpt lat="43.61642" lon="6.64154">
        <ele>341.74</ele>
        <time>2019-10-08T08:52:39Z</time>
      </trkpt>
      <trkpt lat="43.61648" lon="6.64145">
        <ele>342.26</ele>
        <time>2019-10-08T08:52:49Z</time>
      </trkpt>
      <trkpt lat="43.61656" lon="6.64131">
        <ele>341.37</ele>
        <time>2019-10-08T08:53:00Z</time>
      </trkpt>
      <trkpt lat="43.61666" lon="6.6411">
        <ele>340.67</ele>
        <time>2019-10-08T08:53:17Z</time>
      </trkpt>
      <trkpt lat="43.61676" lon="6.64101">
        <ele>340.41</ele>
        <time>2019-10-08T08:53:27Z</time>
      </trkpt>
      <trkpt lat="43.61692" lon="6.64088">
        <ele>340.49</ele>
        <time>2019-10-08T08:53:40Z</time>
      </trkpt>
      <trkpt lat="43.61699" lon="6.64074">
        <ele>340.71</ele>
        <time>2019-10-08T08:53:52Z</time>
      </trkpt>
      <trkpt lat="43.61706" lon="6.64063">
        <ele>341.06</ele>
        <time>2019-10-08T08:54:01Z</time>
      </trkpt>
      <trkpt lat="43.61712" lon="6.64052">
        <ele>341.43</ele>
        <time>2019-10-08T08:54:10Z</time>
      </trkpt>
      <trkpt lat="43.61727" lon="6.6404">
        <ele>341.89</ele>
        <time>2019-10-08T08:54:24Z</time>
      </trkpt>
      <trkpt lat="43.61736" lon="6.64028">
        <ele>342.71</ele>
        <time>2019-10-08T08:54:36Z</time>
      </trkpt>
      <trkpt lat="43.61752" lon="6.64014">
        <ele>344.31</ele>
        <time>2019-10-08T08:54:53Z</time>
      </trkpt>
      <trkpt lat="43.61765" lon="6.63997">
        <ele>346.19</ele>
        <time>2019-10-08T08:55:11Z</time>
      </trkpt>
      <trkpt lat="43.61776" lon="6.63986">
        <ele>347.17</ele>
        <time>2019-10-08T08:55:24Z</time>
      </trkpt>
      <trkpt lat="43.61787" lon="6.63978">
        <ele>348.09</ele>
        <time>2019-10-08T08:55:35Z</time>
      </trkpt>
      <trkpt lat="43.61796" lon="6.63967">
        <ele>349.18</ele>
        <time>2019-10-08T08:55:48Z</time>
      </trkpt>
      <trkpt lat="43.61807" lon="6.63955">
        <ele>350.41</ele>
        <time>2019-10-08T08:56:01Z</time>
      </trkpt>
      <trkpt lat="43.61819" lon="6.63934">
        <ele>352.51</ele>
        <time>2019-10-08T08:56:20Z</time>
      </trkpt>
      <trkpt lat="43.61831" lon="6.63921">
        <ele>354.81</ele>
        <time>2019-10-08T08:56:38Z</time>
      </trkpt>
      <trkpt lat="43.61844" lon="6.63911">
        <ele>356.67</ele>
        <time>2019-10-08T08:56:55Z</time>
      </trkpt>
      <trkpt lat="43.61859" lon="6.63901">
        <ele>358.31</ele>
        <time>2019-10-08T08:57:13Z</time>
      </trkpt>
      <trkpt lat="43.6187" lon="6.63886">
        <ele>359.84</ele>
        <time>2019-10-08T08:57:32Z</time>
      </trkpt>
      <trkpt lat="43.61882" lon="6.63864">
        <ele>361.4</ele>
        <time>2019-10-08T08:57:51Z</time>
      </trkpt>
      <trkpt lat="43.6189" lon="6.6386">
        <ele>361.9</ele>
        <time>2019-10-08T08:57:59Z</time>
      </trkpt>
      <trkpt lat="43.61895" lon="6.6386">
        <ele>363.28</ele>
        <time>2019-10-08T08:58:11Z</time>
      </trkpt>
      <trkpt lat="43.61901" lon="6.63866">
        <ele>364.94</ele>
        <time>2019-10-08T08:58:24Z</time>
      </trkpt>
      <trkpt lat="43.61912" lon="6.63878">
        <ele>366.37</ele>
        <time>2019-10-08T08:58:40Z</time>
      </trkpt>
      <trkpt lat="43.61924" lon="6.63884">
        <ele>367.5</ele>
        <time>2019-10-08T08:58:51Z</time>
      </trkpt>
      <trkpt lat="43.61933" lon="6.63897">
        <ele>369.63</ele>
        <time>2019-10-08T08:59:07Z</time>
      </trkpt>
      <trkpt lat="43.61949" lon="6.63903">
        <ele>371.68</ele>
        <time>2019-10-08T08:59:24Z</time>
      </trkpt>
      <trkpt lat="43.61964" lon="6.63905">
        <ele>373.55</ele>
        <time>2019-10-08T08:59:39Z</time>
      </trkpt>
      <trkpt lat="43.61978" lon="6.63908">
        <ele>375.09</ele>
        <time>2019-10-08T08:59:54Z</time>
      </trkpt>
      <trkpt lat="43.61991" lon="6.63911">
        <ele>376.61</ele>
        <time>2019-10-08T09:00:12Z</time>
      </trkpt>
      <trkpt lat="43.62007" lon="6.63911">
        <ele>378.07</ele>
        <time>2019-10-08T09:00:27Z</time>
      </trkpt>
      <trkpt lat="43.62015" lon="6.6391">
        <ele>378.77</ele>
        <time>2019-10-08T09:00:34Z</time>
      </trkpt>
      <trkpt lat="43.62019" lon="6.6391">
        <ele>379.2</ele>
        <time>2019-10-08T09:00:38Z</time>
      </trkpt>
      <trkpt lat="43.62035" lon="6.63906">
        <ele>380.76</ele>
        <time>2019-10-08T09:00:55Z</time>
      </trkpt>
      <trkpt lat="43.62047" lon="6.639">
        <ele>382.03</ele>
        <time>2019-10-08T09:01:09Z</time>
      </trkpt>
      <trkpt lat="43.62058" lon="6.63893">
        <ele>383.42</ele>
        <time>2019-10-08T09:01:24Z</time>
      </trkpt>
      <trkpt lat="43.62076" lon="6.63889">
        <ele>385.36</ele>
        <time>2019-10-08T09:01:42Z</time>
      </trkpt>
      <trkpt lat="43.62089" lon="6.63888">
        <ele>386.78</ele>
        <time>2019-10-08T09:01:57Z</time>
      </trkpt>
      <trkpt lat="43.62108" lon="6.6389">
        <ele>388.77</ele>
        <time>2019-10-08T09:02:17Z</time>
      </trkpt>
      <trkpt lat="43.6212" lon="6.63893">
        <ele>389.69</ele>
        <time>2019-10-08T09:02:27Z</time>
      </trkpt>
      <trkpt lat="43.62137" lon="6.63892">
        <ele>391.04</ele>
        <time>2019-10-08T09:02:44Z</time>
      </trkpt>
      <trkpt lat="43.62144" lon="6.63891">
        <ele>391.72</ele>
        <time>2019-10-08T09:02:53Z</time>
      </trkpt>
      <trkpt lat="43.6216" lon="6.63892">
        <ele>392.81</ele>
        <time>2019-10-08T09:03:07Z</time>
      </trkpt>
      <trkpt lat="43.62177" lon="6.63891">
        <ele>394.19</ele>
        <time>2019-10-08T09:03:25Z</time>
      </trkpt>
      <trkpt lat="43.62191" lon="6.63895">
        <ele>395.22</ele>
        <time>2019-10-08T09:03:40Z</time>
      </trkpt>
      <trkpt lat="43.62202" lon="6.63897">
        <ele>395.71</ele>
        <time>2019-10-08T09:03:49Z</time>
      </trkpt>
      <trkpt lat="43.62223" lon="6.63897">
        <ele>396.55</ele>
        <time>2019-10-08T09:04:09Z</time>
      </trkpt>
      <trkpt lat="43.62237" lon="6.63898">
        <ele>396.94</ele>
        <time>2019-10-08T09:04:22Z</time>
      </trkpt>
      <trkpt lat="43.62253" lon="6.63893">
        <ele>398.11</ele>
        <time>2019-10-08T09:04:37Z</time>
      </trkpt>
      <trkpt lat="43.6227" lon="6.63883">
        <ele>400.25</ele>
        <time>2019-10-08T09:04:57Z</time>
      </trkpt>
      <trkpt lat="43.62282" lon="6.63874">
        <ele>401.93</ele>
        <time>2019-10-08T09:05:11Z</time>
      </trkpt>
      <trkpt lat="43.62294" lon="6.63875">
        <ele>403.57</ele>
        <time>2019-10-08T09:05:28Z</time>
      </trkpt>
      <trkpt lat="43.62304" lon="6.63876">
        <ele>404.46</ele>
        <time>2019-10-08T09:05:37Z</time>
      </trkpt>
      <trkpt lat="43.62317" lon="6.63881">
        <ele>405.69</ele>
        <time>2019-10-08T09:05:49Z</time>
      </trkpt>
      <trkpt lat="43.62341" lon="6.63885">
        <ele>407.59</ele>
        <time>2019-10-08T09:06:09Z</time>
      </trkpt>
      <trkpt lat="43.62355" lon="6.63891">
        <ele>408.75</ele>
        <time>2019-10-08T09:06:24Z</time>
      </trkpt>
      <trkpt lat="43.62368" lon="6.63898">
        <ele>410.07</ele>
        <time>2019-10-08T09:06:42Z</time>
      </trkpt>
      <trkpt lat="43.62383" lon="6.63901">
        <ele>411.23</ele>
        <time>2019-10-08T09:06:56Z</time>
      </trkpt>
      <trkpt lat="43.62397" lon="6.63908">
        <ele>412.53</ele>
        <time>2019-10-08T09:07:12Z</time>
      </trkpt>
      <trkpt lat="43.6241" lon="6.63912">
        <ele>413.51</ele>
        <time>2019-10-08T09:07:26Z</time>
      </trkpt>
      <trkpt lat="43.62428" lon="6.63917">
        <ele>414.19</ele>
        <time>2019-10-08T09:07:44Z</time>
      </trkpt>
      <trkpt lat="43.62439" lon="6.6392">
        <ele>414.46</ele>
        <time>2019-10-08T09:07:56Z</time>
      </trkpt>
      <trkpt lat="43.62454" lon="6.63925">
        <ele>415.1</ele>
        <time>2019-10-08T09:08:14Z</time>
      </trkpt>
      <trkpt lat="43.62462" lon="6.6393">
        <ele>415.48</ele>
        <time>2019-10-08T09:08:30Z</time>
      </trkpt>
      <trkpt lat="43.62477" lon="6.63922">
        <ele>415.6</ele>
        <time>2019-10-08T09:08:46Z</time>
      </trkpt>
      <trkpt lat="43.62495" lon="6.63913">
        <ele>414.61</ele>
        <time>2019-10-08T09:09:05Z</time>
      </trkpt>
      <trkpt lat="43.62499" lon="6.63911">
        <ele>414.43</ele>
        <time>2019-10-08T09:09:09Z</time>
      </trkpt>
      <trkpt lat="43.62511" lon="6.639">
        <ele>413.9</ele>
        <time>2019-10-08T09:09:22Z</time>
      </trkpt>
      <trkpt lat="43.62513" lon="6.63898">
        <ele>413.8</ele>
        <time>2019-10-08T09:09:25Z</time>
      </trkpt>
      <trkpt lat="43.62523" lon="6.63878">
        <ele>413.61</ele>
        <time>2019-10-08T09:09:39Z</time>
      </trkpt>
      <trkpt lat="43.62524" lon="6.63874">
        <ele>413.61</ele>
        <time>2019-10-08T09:09:42Z</time>
      </trkpt>
      <trkpt lat="43.62529" lon="6.63855">
        <ele>412.9</ele>
        <time>2019-10-08T09:09:55Z</time>
      </trkpt>
      <trkpt lat="43.6253" lon="6.63849">
        <ele>412.37</ele>
        <time>2019-10-08T09:09:59Z</time>
      </trkpt>
      <trkpt lat="43.62533" lon="6.63827">
        <ele>410.66</ele>
        <time>2019-10-08T09:10:13Z</time>
      </trkpt>
      <trkpt lat="43.62534" lon="6.63806">
        <ele>409.43</ele>
        <time>2019-10-08T09:10:27Z</time>
      </trkpt>
      <trkpt lat="43.62535" lon="6.63797">
        <ele>409</ele>
        <time>2019-10-08T09:10:33Z</time>
      </trkpt>
      <trkpt lat="43.6254" lon="6.6378">
        <ele>407.71</ele>
        <time>2019-10-08T09:10:45Z</time>
      </trkpt>
      <trkpt lat="43.62542" lon="6.63776">
        <ele>407.25</ele>
        <time>2019-10-08T09:10:49Z</time>
      </trkpt>
      <trkpt lat="43.62545" lon="6.6377">
        <ele>406.27</ele>
        <time>2019-10-08T09:11:03Z</time>
      </trkpt>
      <trkpt lat="43.62545" lon="6.63772">
        <ele>405.94</ele>
        <time>2019-10-08T09:11:21Z</time>
      </trkpt>
      <trkpt lat="43.6255" lon="6.63764">
        <ele>405.72</ele>
        <time>2019-10-08T09:11:40Z</time>
      </trkpt>
      <trkpt lat="43.62551" lon="6.63761">
        <ele>405.71</ele>
        <time>2019-10-08T09:11:42Z</time>
      </trkpt>
      <trkpt lat="43.62549" lon="6.63755">
        <ele>405.69</ele>
        <time>2019-10-08T09:12:00Z</time>
      </trkpt>
      <trkpt lat="43.62551" lon="6.63752">
        <ele>405.53</ele>
        <time>2019-10-08T09:12:23Z</time>
      </trkpt>
      <trkpt lat="43.62545" lon="6.63756">
        <ele>405.92</ele>
        <time>2019-10-08T09:12:47Z</time>
      </trkpt>
      <trkpt lat="43.62545" lon="6.63759">
        <ele>406.01</ele>
        <time>2019-10-08T09:13:08Z</time>
      </trkpt>
      <trkpt lat="43.62545" lon="6.63759">
        <ele>406.01</ele>
        <time>2019-10-08T09:13:33Z</time>
      </trkpt>
      <trkpt lat="43.62544" lon="6.63757">
        <ele>406.01</ele>
        <time>2019-10-08T09:13:57Z</time>
      </trkpt>
      <trkpt lat="43.62546" lon="6.63757">
        <ele>406.01</ele>
        <time>2019-10-08T09:14:33Z</time>
      </trkpt>
      <trkpt lat="43.62545" lon="6.63757">
        <ele>406.01</ele>
        <time>2019-10-08T09:15:12Z</time>
      </trkpt>
      <trkpt lat="43.62545" lon="6.6376">
        <ele>406.01</ele>
        <time>2019-10-08T09:15:33Z</time>
      </trkpt>
      <trkpt lat="43.62546" lon="6.63763">
        <ele>406.01</ele>
        <time>2019-10-08T09:15:58Z</time>
      </trkpt>
      <trkpt lat="43.62541" lon="6.63769">
        <ele>406.01</ele>
        <time>2019-10-08T09:16:21Z</time>
      </trkpt>
      <trkpt lat="43.62536" lon="6.63763">
        <ele>406.01</ele>
        <time>2019-10-08T09:16:45Z</time>
      </trkpt>
      <trkpt lat="43.62541" lon="6.63761">
        <ele>406.01</ele>
        <time>2019-10-08T09:17:12Z</time>
      </trkpt>
      <trkpt lat="43.62537" lon="6.63759">
        <ele>406.01</ele>
        <time>2019-10-08T09:17:34Z</time>
      </trkpt>
      <trkpt lat="43.62536" lon="6.63757">
        <ele>406.01</ele>
        <time>2019-10-08T09:17:58Z</time>
      </trkpt>
      <trkpt lat="43.62535" lon="6.63754">
        <ele>406.01</ele>
        <time>2019-10-08T09:18:23Z</time>
      </trkpt>
      <trkpt lat="43.62541" lon="6.63755">
        <ele>406.01</ele>
        <time>2019-10-08T09:18:51Z</time>
      </trkpt>
      <trkpt lat="43.6254" lon="6.63759">
        <ele>406.01</ele>
        <time>2019-10-08T09:19:11Z</time>
      </trkpt>
      <trkpt lat="43.62546" lon="6.6377">
        <ele>406.01</ele>
        <time>2019-10-08T09:19:30Z</time>
      </trkpt>
      <trkpt lat="43.62542" lon="6.63781">
        <ele>405.83</ele>
        <time>2019-10-08T09:19:43Z</time>
      </trkpt>
      <trkpt lat="43.62544" lon="6.63802">
        <ele>403.88</ele>
        <time>2019-10-08T09:19:57Z</time>
      </trkpt>
      <trkpt lat="43.62545" lon="6.63812">
        <ele>403.4</ele>
        <time>2019-10-08T09:20:03Z</time>
      </trkpt>
      <trkpt lat="43.62548" lon="6.63823">
        <ele>402.98</ele>
        <time>2019-10-08T09:20:10Z</time>
      </trkpt>
      <trkpt lat="43.6255" lon="6.63827">
        <ele>402.85</ele>
        <time>2019-10-08T09:20:13Z</time>
      </trkpt>
      <trkpt lat="43.62548" lon="6.63833">
        <ele>402.55</ele>
        <time>2019-10-08T09:20:19Z</time>
      </trkpt>
      <trkpt lat="43.62552" lon="6.63843">
        <ele>402.24</ele>
        <time>2019-10-08T09:20:25Z</time>
      </trkpt>
      <trkpt lat="43.62557" lon="6.63864">
        <ele>401.68</ele>
        <time>2019-10-08T09:20:38Z</time>
      </trkpt>
      <trkpt lat="43.62559" lon="6.63873">
        <ele>401.32</ele>
        <time>2019-10-08T09:20:45Z</time>
      </trkpt>
      <trkpt lat="43.62566" lon="6.63882">
        <ele>401.07</ele>
        <time>2019-10-08T09:20:52Z</time>
      </trkpt>
      <trkpt lat="43.62579" lon="6.6389">
        <ele>400.59</ele>
        <time>2019-10-08T09:21:05Z</time>
      </trkpt>
      <trkpt lat="43.62587" lon="6.63888">
        <ele>400.34</ele>
        <time>2019-10-08T09:21:13Z</time>
      </trkpt>
      <trkpt lat="43.62594" lon="6.63871">
        <ele>399.84</ele>
        <time>2019-10-08T09:21:27Z</time>
      </trkpt>
      <trkpt lat="43.62593" lon="6.63862">
        <ele>399.56</ele>
        <time>2019-10-08T09:21:31Z</time>
      </trkpt>
      <trkpt lat="43.62591" lon="6.63837">
        <ele>398.14</ele>
        <time>2019-10-08T09:21:47Z</time>
      </trkpt>
      <trkpt lat="43.62594" lon="6.63826">
        <ele>397.11</ele>
        <time>2019-10-08T09:21:55Z</time>
      </trkpt>
      <trkpt lat="43.62605" lon="6.6382">
        <ele>395.85</ele>
        <time>2019-10-08T09:22:08Z</time>
      </trkpt>
      <trkpt lat="43.62617" lon="6.63831">
        <ele>395.11</ele>
        <time>2019-10-08T09:22:23Z</time>
      </trkpt>
      <trkpt lat="43.62631" lon="6.63835">
        <ele>394.45</ele>
        <time>2019-10-08T09:22:37Z</time>
      </trkpt>
      <trkpt lat="43.62646" lon="6.63839">
        <ele>393.6</ele>
        <time>2019-10-08T09:22:52Z</time>
      </trkpt>
      <trkpt lat="43.6266" lon="6.63844">
        <ele>392.93</ele>
        <time>2019-10-08T09:23:05Z</time>
      </trkpt>
      <trkpt lat="43.62667" lon="6.63844">
        <ele>392.85</ele>
        <time>2019-10-08T09:23:09Z</time>
      </trkpt>
      <trkpt lat="43.6267" lon="6.63847">
        <ele>392.01</ele>
        <time>2019-10-08T09:23:20Z</time>
      </trkpt>
      <trkpt lat="43.6266" lon="6.63848">
        <ele>390.93</ele>
        <time>2019-10-08T09:23:33Z</time>
      </trkpt>
      <trkpt lat="43.6265" lon="6.63849">
        <ele>389.68</ele>
        <time>2019-10-08T09:23:49Z</time>
      </trkpt>
      <trkpt lat="43.62637" lon="6.63852">
        <ele>388.37</ele>
        <time>2019-10-08T09:24:05Z</time>
      </trkpt>
      <trkpt lat="43.6262" lon="6.63854">
        <ele>386.54</ele>
        <time>2019-10-08T09:24:23Z</time>
      </trkpt>
      <trkpt lat="43.62621" lon="6.63874">
        <ele>385.04</ele>
        <time>2019-10-08T09:24:38Z</time>
      </trkpt>
      <trkpt lat="43.62621" lon="6.63882">
        <ele>384.51</ele>
        <time>2019-10-08T09:24:42Z</time>
      </trkpt>
      <trkpt lat="43.62625" lon="6.63904">
        <ele>383.07</ele>
        <time>2019-10-08T09:24:56Z</time>
      </trkpt>
      <trkpt lat="43.62626" lon="6.63918">
        <ele>381.95</ele>
        <time>2019-10-08T09:25:05Z</time>
      </trkpt>
      <trkpt lat="43.62627" lon="6.63929">
        <ele>381.12</ele>
        <time>2019-10-08T09:25:12Z</time>
      </trkpt>
      <trkpt lat="43.62626" lon="6.63945">
        <ele>379.88</ele>
        <time>2019-10-08T09:25:23Z</time>
      </trkpt>
      <trkpt lat="43.62625" lon="6.63965">
        <ele>378.73</ele>
        <time>2019-10-08T09:25:36Z</time>
      </trkpt>
      <trkpt lat="43.62626" lon="6.63985">
        <ele>377.41</ele>
        <time>2019-10-08T09:25:49Z</time>
      </trkpt>
      <trkpt lat="43.62621" lon="6.64003">
        <ele>376.58</ele>
        <time>2019-10-08T09:26:00Z</time>
      </trkpt>
      <trkpt lat="43.62615" lon="6.64022">
        <ele>375.53</ele>
        <time>2019-10-08T09:26:13Z</time>
      </trkpt>
      <trkpt lat="43.62613" lon="6.64038">
        <ele>374.38</ele>
        <time>2019-10-08T09:26:25Z</time>
      </trkpt>
      <trkpt lat="43.62614" lon="6.64049">
        <ele>373.91</ele>
        <time>2019-10-08T09:26:31Z</time>
      </trkpt>
      <trkpt lat="43.62613" lon="6.64073">
        <ele>373.15</ele>
        <time>2019-10-08T09:26:43Z</time>
      </trkpt>
      <trkpt lat="43.62613" lon="6.64098">
        <ele>372.54</ele>
        <time>2019-10-08T09:26:59Z</time>
      </trkpt>
      <trkpt lat="43.62616" lon="6.64118">
        <ele>371.95</ele>
        <time>2019-10-08T09:27:12Z</time>
      </trkpt>
      <trkpt lat="43.62616" lon="6.64124">
        <ele>371.91</ele>
        <time>2019-10-08T09:27:16Z</time>
      </trkpt>
      <trkpt lat="43.62615" lon="6.64129">
        <ele>371.91</ele>
        <time>2019-10-08T09:27:19Z</time>
      </trkpt>
      <trkpt lat="43.62614" lon="6.6415">
        <ele>372.41</ele>
        <time>2019-10-08T09:27:32Z</time>
      </trkpt>
      <trkpt lat="43.62614" lon="6.64155">
        <ele>372.48</ele>
        <time>2019-10-08T09:27:36Z</time>
      </trkpt>
      <trkpt lat="43.62615" lon="6.64178">
        <ele>372.48</ele>
        <time>2019-10-08T09:27:49Z</time>
      </trkpt>
      <trkpt lat="43.62617" lon="6.64185">
        <ele>372.48</ele>
        <time>2019-10-08T09:27:53Z</time>
      </trkpt>
      <trkpt lat="43.62618" lon="6.64205">
        <ele>372.32</ele>
        <time>2019-10-08T09:28:05Z</time>
      </trkpt>
      <trkpt lat="43.62618" lon="6.64224">
        <ele>371.9</ele>
        <time>2019-10-08T09:28:16Z</time>
      </trkpt>
      <trkpt lat="43.62619" lon="6.64243">
        <ele>371.36</ele>
        <time>2019-10-08T09:28:27Z</time>
      </trkpt>
      <trkpt lat="43.62618" lon="6.64264">
        <ele>370.98</ele>
        <time>2019-10-08T09:28:41Z</time>
      </trkpt>
      <trkpt lat="43.62619" lon="6.64266">
        <ele>370.94</ele>
        <time>2019-10-08T09:28:42Z</time>
      </trkpt>
      <trkpt lat="43.6262" lon="6.64273">
        <ele>370.87</ele>
        <time>2019-10-08T09:28:46Z</time>
      </trkpt>
      <trkpt lat="43.62621" lon="6.64293">
        <ele>370.86</ele>
        <time>2019-10-08T09:28:58Z</time>
      </trkpt>
      <trkpt lat="43.62622" lon="6.64318">
        <ele>370.23</ele>
        <time>2019-10-08T09:29:15Z</time>
      </trkpt>
      <trkpt lat="43.62619" lon="6.64339">
        <ele>369.79</ele>
        <time>2019-10-08T09:29:28Z</time>
      </trkpt>
      <trkpt lat="43.62616" lon="6.64358">
        <ele>368.94</ele>
        <time>2019-10-08T09:29:40Z</time>
      </trkpt>
      <trkpt lat="43.62613" lon="6.64377">
        <ele>368.35</ele>
        <time>2019-10-08T09:29:51Z</time>
      </trkpt>
      <trkpt lat="43.6261" lon="6.64395">
        <ele>367.75</ele>
        <time>2019-10-08T09:30:03Z</time>
      </trkpt>
      <trkpt lat="43.62608" lon="6.64401">
        <ele>367.65</ele>
        <time>2019-10-08T09:30:07Z</time>
      </trkpt>
      <trkpt lat="43.62605" lon="6.6442">
        <ele>367.2</ele>
        <time>2019-10-08T09:30:20Z</time>
      </trkpt>
      <trkpt lat="43.626" lon="6.64451">
        <ele>366.59</ele>
        <time>2019-10-08T09:30:36Z</time>
      </trkpt>
      <trkpt lat="43.62597" lon="6.64468">
        <ele>366.04</ele>
        <time>2019-10-08T09:30:47Z</time>
      </trkpt>
      <trkpt lat="43.62587" lon="6.64483">
        <ele>365.31</ele>
        <time>2019-10-08T09:30:59Z</time>
      </trkpt>
      <trkpt lat="43.62577" lon="6.645">
        <ele>363.91</ele>
        <time>2019-10-08T09:31:12Z</time>
      </trkpt>
      <trkpt lat="43.62568" lon="6.64515">
        <ele>362.01</ele>
        <time>2019-10-08T09:31:25Z</time>
      </trkpt>
      <trkpt lat="43.62555" lon="6.64525">
        <ele>361.1</ele>
        <time>2019-10-08T09:31:36Z</time>
      </trkpt>
      <trkpt lat="43.6254" lon="6.6453">
        <ele>360.5</ele>
        <time>2019-10-08T09:31:48Z</time>
      </trkpt>
      <trkpt lat="43.6253" lon="6.64532">
        <ele>360.26</ele>
        <time>2019-10-08T09:31:56Z</time>
      </trkpt>
      <trkpt lat="43.62517" lon="6.64536">
        <ele>360.14</ele>
        <time>2019-10-08T09:32:09Z</time>
      </trkpt>
      <trkpt lat="43.62497" lon="6.64539">
        <ele>360.61</ele>
        <time>2019-10-08T09:32:27Z</time>
      </trkpt>
      <trkpt lat="43.62478" lon="6.64545">
        <ele>361.2</ele>
        <time>2019-10-08T09:32:44Z</time>
      </trkpt>
      <trkpt lat="43.62461" lon="6.64552">
        <ele>361.79</ele>
        <time>2019-10-08T09:32:58Z</time>
      </trkpt>
      <trkpt lat="43.62453" lon="6.64553">
        <ele>362.21</ele>
        <time>2019-10-08T09:33:07Z</time>
      </trkpt>
      <trkpt lat="43.62436" lon="6.64553">
        <ele>362.73</ele>
        <time>2019-10-08T09:33:21Z</time>
      </trkpt>
      <trkpt lat="43.6242" lon="6.64556">
        <ele>362.76</ele>
        <time>2019-10-08T09:33:34Z</time>
      </trkpt>
      <trkpt lat="43.62406" lon="6.64562">
        <ele>362.85</ele>
        <time>2019-10-08T09:33:47Z</time>
      </trkpt>
      <trkpt lat="43.62391" lon="6.64569">
        <ele>362.83</ele>
        <time>2019-10-08T09:33:58Z</time>
      </trkpt>
      <trkpt lat="43.62378" lon="6.64566">
        <ele>362.49</ele>
        <time>2019-10-08T09:34:09Z</time>
      </trkpt>
      <trkpt lat="43.62371" lon="6.64553">
        <ele>360.78</ele>
        <time>2019-10-08T09:34:22Z</time>
      </trkpt>
      <trkpt lat="43.62366" lon="6.64545">
        <ele>359.67</ele>
        <time>2019-10-08T09:34:31Z</time>
      </trkpt>
      <trkpt lat="43.62363" lon="6.64542">
        <ele>359.12</ele>
        <time>2019-10-08T09:34:34Z</time>
      </trkpt>
      <trkpt lat="43.62352" lon="6.64535">
        <ele>357.7</ele>
        <time>2019-10-08T09:34:44Z</time>
      </trkpt>
      <trkpt lat="43.62343" lon="6.64537">
        <ele>357.33</ele>
        <time>2019-10-08T09:34:50Z</time>
      </trkpt>
      <trkpt lat="43.62341" lon="6.64538">
        <ele>357.18</ele>
        <time>2019-10-08T09:34:52Z</time>
      </trkpt>
      <trkpt lat="43.62334" lon="6.64542">
        <ele>356.96</ele>
        <time>2019-10-08T09:34:56Z</time>
      </trkpt>
      <trkpt lat="43.62319" lon="6.6455">
        <ele>356.3</ele>
        <time>2019-10-08T09:35:08Z</time>
      </trkpt>
      <trkpt lat="43.62306" lon="6.64563">
        <ele>356.1</ele>
        <time>2019-10-08T09:35:21Z</time>
      </trkpt>
      <trkpt lat="43.62301" lon="6.64571">
        <ele>356.18</ele>
        <time>2019-10-08T09:35:32Z</time>
      </trkpt>
      <trkpt lat="43.62294" lon="6.64586">
        <ele>356.32</ele>
        <time>2019-10-08T09:35:46Z</time>
      </trkpt>
      <trkpt lat="43.6229" lon="6.64589">
        <ele>356.32</ele>
        <time>2019-10-08T09:35:50Z</time>
      </trkpt>
      <trkpt lat="43.62275" lon="6.646">
        <ele>356.32</ele>
        <time>2019-10-08T09:36:03Z</time>
      </trkpt>
      <trkpt lat="43.62264" lon="6.64609">
        <ele>356.28</ele>
        <time>2019-10-08T09:36:14Z</time>
      </trkpt>
      <trkpt lat="43.62253" lon="6.64623">
        <ele>355.71</ele>
        <time>2019-10-08T09:36:26Z</time>
      </trkpt>
      <trkpt lat="43.62243" lon="6.64641">
        <ele>354.96</ele>
        <time>2019-10-08T09:36:39Z</time>
      </trkpt>
      <trkpt lat="43.62233" lon="6.64658">
        <ele>354.23</ele>
        <time>2019-10-08T09:36:51Z</time>
      </trkpt>
      <trkpt lat="43.6222" lon="6.64666">
        <ele>353.12</ele>
        <time>2019-10-08T09:37:05Z</time>
      </trkpt>
      <trkpt lat="43.62204" lon="6.64674">
        <ele>351.68</ele>
        <time>2019-10-08T09:37:18Z</time>
      </trkpt>
      <trkpt lat="43.62192" lon="6.64687">
        <ele>350.42</ele>
        <time>2019-10-08T09:37:29Z</time>
      </trkpt>
      <trkpt lat="43.6218" lon="6.64697">
        <ele>348.87</ele>
        <time>2019-10-08T09:37:41Z</time>
      </trkpt>
      <trkpt lat="43.62165" lon="6.64706">
        <ele>347.12</ele>
        <time>2019-10-08T09:37:55Z</time>
      </trkpt>
      <trkpt lat="43.62151" lon="6.64708">
        <ele>346.47</ele>
        <time>2019-10-08T09:38:07Z</time>
      </trkpt>
      <trkpt lat="43.62137" lon="6.64709">
        <ele>346.28</ele>
        <time>2019-10-08T09:38:20Z</time>
      </trkpt>
      <trkpt lat="43.62134" lon="6.6471">
        <ele>346.28</ele>
        <time>2019-10-08T09:38:23Z</time>
      </trkpt>
      <trkpt lat="43.62118" lon="6.64711">
        <ele>346.39</ele>
        <time>2019-10-08T09:38:37Z</time>
      </trkpt>
      <trkpt lat="43.62105" lon="6.64708">
        <ele>346.39</ele>
        <time>2019-10-08T09:38:48Z</time>
      </trkpt>
      <trkpt lat="43.6209" lon="6.64705">
        <ele>346.58</ele>
        <time>2019-10-08T09:38:59Z</time>
      </trkpt>
      <trkpt lat="43.62077" lon="6.64703">
        <ele>346.62</ele>
        <time>2019-10-08T09:39:10Z</time>
      </trkpt>
      <trkpt lat="43.62059" lon="6.64699">
        <ele>346.66</ele>
        <time>2019-10-08T09:39:23Z</time>
      </trkpt>
      <trkpt lat="43.62044" lon="6.64694">
        <ele>346.3</ele>
        <time>2019-10-08T09:39:36Z</time>
      </trkpt>
      <trkpt lat="43.62042" lon="6.64694">
        <ele>346.26</ele>
        <time>2019-10-08T09:39:38Z</time>
      </trkpt>
      <trkpt lat="43.62026" lon="6.64686">
        <ele>345.83</ele>
        <time>2019-10-08T09:39:51Z</time>
      </trkpt>
      <trkpt lat="43.62022" lon="6.64685">
        <ele>345.82</ele>
        <time>2019-10-08T09:39:54Z</time>
      </trkpt>
      <trkpt lat="43.62008" lon="6.64683">
        <ele>345.73</ele>
        <time>2019-10-08T09:40:06Z</time>
      </trkpt>
      <trkpt lat="43.61999" lon="6.6468">
        <ele>345.84</ele>
        <time>2019-10-08T09:40:16Z</time>
      </trkpt>
      <trkpt lat="43.61994" lon="6.64678">
        <ele>346.01</ele>
        <time>2019-10-08T09:40:33Z</time>
      </trkpt>
      <trkpt lat="43.61993" lon="6.64678">
        <ele>346.1</ele>
        <time>2019-10-08T09:40:51Z</time>
      </trkpt>
      <trkpt lat="43.61991" lon="6.64683">
        <ele>346.36</ele>
        <time>2019-10-08T09:41:11Z</time>
      </trkpt>
      <trkpt lat="43.61991" lon="6.64684">
        <ele>346.14</ele>
        <time>2019-10-08T09:41:26Z</time>
      </trkpt>
      <trkpt lat="43.61992" lon="6.64683">
        <ele>346.14</ele>
        <time>2019-10-08T09:41:46Z</time>
      </trkpt>
      <trkpt lat="43.61993" lon="6.64681">
        <ele>346.14</ele>
        <time>2019-10-08T09:42:09Z</time>
      </trkpt>
      <trkpt lat="43.61992" lon="6.64679">
        <ele>346.14</ele>
        <time>2019-10-08T09:42:33Z</time>
      </trkpt>
      <trkpt lat="43.61992" lon="6.64679">
        <ele>346.14</ele>
        <time>2019-10-08T09:42:58Z</time>
      </trkpt>
      <trkpt lat="43.61991" lon="6.6468">
        <ele>346.14</ele>
        <time>2019-10-08T09:43:28Z</time>
      </trkpt>
      <trkpt lat="43.61993" lon="6.64682">
        <ele>346.14</ele>
        <time>2019-10-08T09:43:50Z</time>
      </trkpt>
      <trkpt lat="43.61992" lon="6.64683">
        <ele>346.14</ele>
        <time>2019-10-08T09:44:30Z</time>
      </trkpt>
      <trkpt lat="43.61988" lon="6.64688">
        <ele>346.14</ele>
        <time>2019-10-08T09:44:53Z</time>
      </trkpt>
      <trkpt lat="43.61979" lon="6.64688">
        <ele>346.14</ele>
        <time>2019-10-08T09:45:02Z</time>
      </trkpt>
      <trkpt lat="43.61962" lon="6.64692">
        <ele>344.12</ele>
        <time>2019-10-08T09:45:17Z</time>
      </trkpt>
      <trkpt lat="43.61948" lon="6.64692">
        <ele>342.94</ele>
        <time>2019-10-08T09:45:31Z</time>
      </trkpt>
      <trkpt lat="43.61935" lon="6.647">
        <ele>342.22</ele>
        <time>2019-10-08T09:45:44Z</time>
      </trkpt>
      <trkpt lat="43.61922" lon="6.64701">
        <ele>341.49</ele>
        <time>2019-10-08T09:45:58Z</time>
      </trkpt>
      <trkpt lat="43.6191" lon="6.64703">
        <ele>340.45</ele>
        <time>2019-10-08T09:46:09Z</time>
      </trkpt>
      <trkpt lat="43.61894" lon="6.64704">
        <ele>339.19</ele>
        <time>2019-10-08T09:46:23Z</time>
      </trkpt>
      <trkpt lat="43.6188" lon="6.64704">
        <ele>337.77</ele>
        <time>2019-10-08T09:46:34Z</time>
      </trkpt>
      <trkpt lat="43.61874" lon="6.64705">
        <ele>337.34</ele>
        <time>2019-10-08T09:46:40Z</time>
      </trkpt>
      <trkpt lat="43.61863" lon="6.64698">
        <ele>336.15</ele>
        <time>2019-10-08T09:46:52Z</time>
      </trkpt>
      <trkpt lat="43.61861" lon="6.64684">
        <ele>334.85</ele>
        <time>2019-10-08T09:47:02Z</time>
      </trkpt>
      <trkpt lat="43.61851" lon="6.64673">
        <ele>333.64</ele>
        <time>2019-10-08T09:47:15Z</time>
      </trkpt>
      <trkpt lat="43.6184" lon="6.64661">
        <ele>332.06</ele>
        <time>2019-10-08T09:47:31Z</time>
      </trkpt>
      <trkpt lat="43.61839" lon="6.64659">
        <ele>331.93</ele>
        <time>2019-10-08T09:47:33Z</time>
      </trkpt>
      <trkpt lat="43.61831" lon="6.64648">
        <ele>330.95</ele>
        <time>2019-10-08T09:47:44Z</time>
      </trkpt>
      <trkpt lat="43.6183" lon="6.64647">
        <ele>330.91</ele>
        <time>2019-10-08T09:47:45Z</time>
      </trkpt>
      <trkpt lat="43.61827" lon="6.64644">
        <ele>330.74</ele>
        <time>2019-10-08T09:47:48Z</time>
      </trkpt>
      <trkpt lat="43.61815" lon="6.64631">
        <ele>330.23</ele>
        <time>2019-10-08T09:48:01Z</time>
      </trkpt>
      <trkpt lat="43.61806" lon="6.64625">
        <ele>330.12</ele>
        <time>2019-10-08T09:48:08Z</time>
      </trkpt>
      <trkpt lat="43.61794" lon="6.64613">
        <ele>329.76</ele>
        <time>2019-10-08T09:48:21Z</time>
      </trkpt>
      <trkpt lat="43.6178" lon="6.64599">
        <ele>329.17</ele>
        <time>2019-10-08T09:48:35Z</time>
      </trkpt>
      <trkpt lat="43.61767" lon="6.6459">
        <ele>328.2</ele>
        <time>2019-10-08T09:48:47Z</time>
      </trkpt>
      <trkpt lat="43.61751" lon="6.6458">
        <ele>327.95</ele>
        <time>2019-10-08T09:49:01Z</time>
      </trkpt>
      <trkpt lat="43.61739" lon="6.6457">
        <ele>327.28</ele>
        <time>2019-10-08T09:49:13Z</time>
      </trkpt>
      <trkpt lat="43.61735" lon="6.64563">
        <ele>326.95</ele>
        <time>2019-10-08T09:49:18Z</time>
      </trkpt>
      <trkpt lat="43.61733" lon="6.64561">
        <ele>326.84</ele>
        <time>2019-10-08T09:49:20Z</time>
      </trkpt>
      <trkpt lat="43.61726" lon="6.64548">
        <ele>326.35</ele>
        <time>2019-10-08T09:49:31Z</time>
      </trkpt>
      <trkpt lat="43.61721" lon="6.64542">
        <ele>326.09</ele>
        <time>2019-10-08T09:49:43Z</time>
      </trkpt>
      <trkpt lat="43.61721" lon="6.64541">
        <ele>326.07</ele>
        <time>2019-10-08T09:49:44Z</time>
      </trkpt>
      <trkpt lat="43.61717" lon="6.64536">
        <ele>325.87</ele>
        <time>2019-10-08T09:49:49Z</time>
      </trkpt>
      <trkpt lat="43.6171" lon="6.64524">
        <ele>325.65</ele>
        <time>2019-10-08T09:49:58Z</time>
      </trkpt>
      <trkpt lat="43.61704" lon="6.64511">
        <ele>324.94</ele>
        <time>2019-10-08T09:50:07Z</time>
      </trkpt>
      <trkpt lat="43.617" lon="6.64504">
        <ele>324.33</ele>
        <time>2019-10-08T09:50:12Z</time>
      </trkpt>
      <trkpt lat="43.61697" lon="6.64494">
        <ele>323.7</ele>
        <time>2019-10-08T09:50:19Z</time>
      </trkpt>
      <trkpt lat="43.61687" lon="6.64481">
        <ele>322.43</ele>
        <time>2019-10-08T09:50:31Z</time>
      </trkpt>
      <trkpt lat="43.61673" lon="6.64472">
        <ele>321.38</ele>
        <time>2019-10-08T09:50:43Z</time>
      </trkpt>
      <trkpt lat="43.6166" lon="6.64467">
        <ele>320</ele>
        <time>2019-10-08T09:50:54Z</time>
      </trkpt>
      <trkpt lat="43.61653" lon="6.64452">
        <ele>318.07</ele>
        <time>2019-10-08T09:51:06Z</time>
      </trkpt>
      <trkpt lat="43.61646" lon="6.64447">
        <ele>316.03</ele>
        <time>2019-10-08T09:51:18Z</time>
      </trkpt>
      <trkpt lat="43.61644" lon="6.64449">
        <ele>315.61</ele>
        <time>2019-10-08T09:51:20Z</time>
      </trkpt>
      <trkpt lat="43.61634" lon="6.64461">
        <ele>313.94</ele>
        <time>2019-10-08T09:51:31Z</time>
      </trkpt>
      <trkpt lat="43.61632" lon="6.64474">
        <ele>312.79</ele>
        <time>2019-10-08T09:51:38Z</time>
      </trkpt>
      <trkpt lat="43.61632" lon="6.64496">
        <ele>311.11</ele>
        <time>2019-10-08T09:51:49Z</time>
      </trkpt>
      <trkpt lat="43.6164" lon="6.64514">
        <ele>308.91</ele>
        <time>2019-10-08T09:52:02Z</time>
      </trkpt>
      <trkpt lat="43.61646" lon="6.64524">
        <ele>308.14</ele>
        <time>2019-10-08T09:52:09Z</time>
      </trkpt>
      <trkpt lat="43.6165" lon="6.64532">
        <ele>307.85</ele>
        <time>2019-10-08T09:52:15Z</time>
      </trkpt>
      <trkpt lat="43.61659" lon="6.64555">
        <ele>307.52</ele>
        <time>2019-10-08T09:52:29Z</time>
      </trkpt>
      <trkpt lat="43.6166" lon="6.64576">
        <ele>307.6</ele>
        <time>2019-10-08T09:52:42Z</time>
      </trkpt>
      <trkpt lat="43.61659" lon="6.64601">
        <ele>306.52</ele>
        <time>2019-10-08T09:52:56Z</time>
      </trkpt>
      <trkpt lat="43.61658" lon="6.64619">
        <ele>305.02</ele>
        <time>2019-10-08T09:53:08Z</time>
      </trkpt>
      <trkpt lat="43.61657" lon="6.6463">
        <ele>303.95</ele>
        <time>2019-10-08T09:53:15Z</time>
      </trkpt>
      <trkpt lat="43.61653" lon="6.64641">
        <ele>302.51</ele>
        <time>2019-10-08T09:53:22Z</time>
      </trkpt>
      <trkpt lat="43.61651" lon="6.64643">
        <ele>301.95</ele>
        <time>2019-10-08T09:53:25Z</time>
      </trkpt>
      <trkpt lat="43.61639" lon="6.64659">
        <ele>299.83</ele>
        <time>2019-10-08T09:53:37Z</time>
      </trkpt>
      <trkpt lat="43.61629" lon="6.64673">
        <ele>298.1</ele>
        <time>2019-10-08T09:53:49Z</time>
      </trkpt>
      <trkpt lat="43.61621" lon="6.64685">
        <ele>297.58</ele>
        <time>2019-10-08T09:53:59Z</time>
      </trkpt>
      <trkpt lat="43.61623" lon="6.64703">
        <ele>296.81</ele>
        <time>2019-10-08T09:54:10Z</time>
      </trkpt>
      <trkpt lat="43.61614" lon="6.64713">
        <ele>296.13</ele>
        <time>2019-10-08T09:54:23Z</time>
      </trkpt>
      <trkpt lat="43.61606" lon="6.64706">
        <ele>296.91</ele>
        <time>2019-10-08T09:54:38Z</time>
      </trkpt>
      <trkpt lat="43.61599" lon="6.64701">
        <ele>297.83</ele>
        <time>2019-10-08T09:54:48Z</time>
      </trkpt>
      <trkpt lat="43.61581" lon="6.64704">
        <ele>299.16</ele>
        <time>2019-10-08T09:55:03Z</time>
      </trkpt>
      <trkpt lat="43.61568" lon="6.64711">
        <ele>298.98</ele>
        <time>2019-10-08T09:55:16Z</time>
      </trkpt>
      <trkpt lat="43.61555" lon="6.64725">
        <ele>296.74</ele>
        <time>2019-10-08T09:55:34Z</time>
      </trkpt>
      <trkpt lat="43.61555" lon="6.64728">
        <ele>296.66</ele>
        <time>2019-10-08T09:55:36Z</time>
      </trkpt>
      <trkpt lat="43.61548" lon="6.64745">
        <ele>295.96</ele>
        <time>2019-10-08T09:55:49Z</time>
      </trkpt>
      <trkpt lat="43.61542" lon="6.64765">
        <ele>294.84</ele>
        <time>2019-10-08T09:56:02Z</time>
      </trkpt>
      <trkpt lat="43.61538" lon="6.64781">
        <ele>294.54</ele>
        <time>2019-10-08T09:56:14Z</time>
      </trkpt>
      <trkpt lat="43.61533" lon="6.64799">
        <ele>294.02</ele>
        <time>2019-10-08T09:56:27Z</time>
      </trkpt>
      <trkpt lat="43.61525" lon="6.6482">
        <ele>293.33</ele>
        <time>2019-10-08T09:56:41Z</time>
      </trkpt>
      <trkpt lat="43.61517" lon="6.64835">
        <ele>292.13</ele>
        <time>2019-10-08T09:56:54Z</time>
      </trkpt>
      <trkpt lat="43.61509" lon="6.64848">
        <ele>290.64</ele>
        <time>2019-10-08T09:57:07Z</time>
      </trkpt>
      <trkpt lat="43.61507" lon="6.64851">
        <ele>290.25</ele>
        <time>2019-10-08T09:57:10Z</time>
      </trkpt>
      <trkpt lat="43.61504" lon="6.6486">
        <ele>289.51</ele>
        <time>2019-10-08T09:57:16Z</time>
      </trkpt>
      <trkpt lat="43.6149" lon="6.6488">
        <ele>287.42</ele>
        <time>2019-10-08T09:57:31Z</time>
      </trkpt>
      <trkpt lat="43.61475" lon="6.64891">
        <ele>286.1</ele>
        <time>2019-10-08T09:57:44Z</time>
      </trkpt>
      <trkpt lat="43.6146" lon="6.64897">
        <ele>284.93</ele>
        <time>2019-10-08T09:57:57Z</time>
      </trkpt>
      <trkpt lat="43.61447" lon="6.64903">
        <ele>284.49</ele>
        <time>2019-10-08T09:58:09Z</time>
      </trkpt>
      <trkpt lat="43.61442" lon="6.64905">
        <ele>284.29</ele>
        <time>2019-10-08T09:58:15Z</time>
      </trkpt>
      <trkpt lat="43.61439" lon="6.64907">
        <ele>284.25</ele>
        <time>2019-10-08T09:58:18Z</time>
      </trkpt>
      <trkpt lat="43.61422" lon="6.64917">
        <ele>283.54</ele>
        <time>2019-10-08T09:58:33Z</time>
      </trkpt>
      <trkpt lat="43.61407" lon="6.64925">
        <ele>282.86</ele>
        <time>2019-10-08T09:58:44Z</time>
      </trkpt>
      <trkpt lat="43.61398" lon="6.6493">
        <ele>282.29</ele>
        <time>2019-10-08T09:58:51Z</time>
      </trkpt>
      <trkpt lat="43.61394" lon="6.64933">
        <ele>281.88</ele>
        <time>2019-10-08T09:58:55Z</time>
      </trkpt>
      <trkpt lat="43.6138" lon="6.64941">
        <ele>280.34</ele>
        <time>2019-10-08T09:59:08Z</time>
      </trkpt>
      <trkpt lat="43.61367" lon="6.64947">
        <ele>278.81</ele>
        <time>2019-10-08T09:59:19Z</time>
      </trkpt>
      <trkpt lat="43.61354" lon="6.64953">
        <ele>276.99</ele>
        <time>2019-10-08T09:59:31Z</time>
      </trkpt>
      <trkpt lat="43.61339" lon="6.64961">
        <ele>275.15</ele>
        <time>2019-10-08T09:59:44Z</time>
      </trkpt>
      <trkpt lat="43.61326" lon="6.6497">
        <ele>273.21</ele>
        <time>2019-10-08T09:59:56Z</time>
      </trkpt>
      <trkpt lat="43.61315" lon="6.64975">
        <ele>271.07</ele>
        <time>2019-10-08T10:00:08Z</time>
      </trkpt>
      <trkpt lat="43.61314" lon="6.64976">
        <ele>270.92</ele>
        <time>2019-10-08T10:00:09Z</time>
      </trkpt>
      <trkpt lat="43.613" lon="6.64984">
        <ele>269.19</ele>
        <time>2019-10-08T10:00:21Z</time>
      </trkpt>
      <trkpt lat="43.61287" lon="6.64993">
        <ele>268.63</ele>
        <time>2019-10-08T10:00:33Z</time>
      </trkpt>
      <trkpt lat="43.61286" lon="6.64997">
        <ele>268.57</ele>
        <time>2019-10-08T10:00:38Z</time>
      </trkpt>
      <trkpt lat="43.61285" lon="6.65025">
        <ele>269.29</ele>
        <time>2019-10-08T10:00:54Z</time>
      </trkpt>
      <trkpt lat="43.61285" lon="6.65051">
        <ele>269.87</ele>
        <time>2019-10-08T10:01:08Z</time>
      </trkpt>
      <trkpt lat="43.61284" lon="6.65072">
        <ele>270.66</ele>
        <time>2019-10-08T10:01:22Z</time>
      </trkpt>
      <trkpt lat="43.61278" lon="6.65081">
        <ele>271.44</ele>
        <time>2019-10-08T10:01:36Z</time>
      </trkpt>
      <trkpt lat="43.61271" lon="6.65074">
        <ele>272.74</ele>
        <time>2019-10-08T10:01:54Z</time>
      </trkpt>
      <trkpt lat="43.61268" lon="6.65076">
        <ele>273.79</ele>
        <time>2019-10-08T10:02:10Z</time>
      </trkpt>
      <trkpt lat="43.61264" lon="6.6508">
        <ele>274.15</ele>
        <time>2019-10-08T10:02:28Z</time>
      </trkpt>
      <trkpt lat="43.61261" lon="6.65078">
        <ele>274.16</ele>
        <time>2019-10-08T10:02:47Z</time>
      </trkpt>
      <trkpt lat="43.61257" lon="6.6508">
        <ele>273.89</ele>
        <time>2019-10-08T10:03:10Z</time>
      </trkpt>
      <trkpt lat="43.61258" lon="6.65084">
        <ele>273.51</ele>
        <time>2019-10-08T10:03:32Z</time>
      </trkpt>
      <trkpt lat="43.61259" lon="6.65082">
        <ele>273.67</ele>
        <time>2019-10-08T10:03:55Z</time>
      </trkpt>
      <trkpt lat="43.61258" lon="6.65087">
        <ele>273.6</ele>
        <time>2019-10-08T10:04:21Z</time>
      </trkpt>
      <trkpt lat="43.61261" lon="6.65089">
        <ele>273.54</ele>
        <time>2019-10-08T10:04:49Z</time>
      </trkpt>
      <trkpt lat="43.61259" lon="6.65092">
        <ele>273.54</ele>
        <time>2019-10-08T10:05:13Z</time>
      </trkpt>
      <trkpt lat="43.61255" lon="6.65093">
        <ele>273.54</ele>
        <time>2019-10-08T10:05:39Z</time>
      </trkpt>
      <trkpt lat="43.61255" lon="6.65093">
        <ele>273.54</ele>
        <time>2019-10-08T10:06:09Z</time>
      </trkpt>
      <trkpt lat="43.61256" lon="6.65091">
        <ele>273.54</ele>
        <time>2019-10-08T10:06:35Z</time>
      </trkpt>
      <trkpt lat="43.61254" lon="6.65095">
        <ele>273.54</ele>
        <time>2019-10-08T10:07:02Z</time>
      </trkpt>
      <trkpt lat="43.61254" lon="6.65095">
        <ele>273.54</ele>
        <time>2019-10-08T10:07:29Z</time>
      </trkpt>
      <trkpt lat="43.61256" lon="6.65093">
        <ele>273.54</ele>
        <time>2019-10-08T10:07:55Z</time>
      </trkpt>
      <trkpt lat="43.61257" lon="6.65094">
        <ele>273.54</ele>
        <time>2019-10-08T10:08:22Z</time>
      </trkpt>
      <trkpt lat="43.61257" lon="6.65093">
        <ele>273.54</ele>
        <time>2019-10-08T10:08:45Z</time>
      </trkpt>
      <trkpt lat="43.6126" lon="6.65093">
        <ele>273.54</ele>
        <time>2019-10-08T10:09:11Z</time>
      </trkpt>
      <trkpt lat="43.61261" lon="6.65092">
        <ele>273.54</ele>
        <time>2019-10-08T10:09:36Z</time>
      </trkpt>
      <trkpt lat="43.61259" lon="6.65092">
        <ele>273.54</ele>
        <time>2019-10-08T10:10:01Z</time>
      </trkpt>
      <trkpt lat="43.61259" lon="6.65094">
        <ele>273.54</ele>
        <time>2019-10-08T10:10:26Z</time>
      </trkpt>
      <trkpt lat="43.61255" lon="6.65094">
        <ele>273.54</ele>
        <time>2019-10-08T10:10:50Z</time>
      </trkpt>
      <trkpt lat="43.61253" lon="6.65096">
        <ele>273.54</ele>
        <time>2019-10-08T10:11:07Z</time>
      </trkpt>
      <trkpt lat="43.61246" lon="6.65098">
        <ele>273.54</ele>
        <time>2019-10-08T10:11:23Z</time>
      </trkpt>
      <trkpt lat="43.61239" lon="6.65104">
        <ele>273.54</ele>
        <time>2019-10-08T10:11:35Z</time>
      </trkpt>
      <trkpt lat="43.61231" lon="6.65109">
        <ele>273.54</ele>
        <time>2019-10-08T10:11:52Z</time>
      </trkpt>
      <trkpt lat="43.61234" lon="6.65115">
        <ele>273.54</ele>
        <time>2019-10-08T10:12:12Z</time>
      </trkpt>
      <trkpt lat="43.61236" lon="6.65121">
        <ele>273.54</ele>
        <time>2019-10-08T10:12:35Z</time>
      </trkpt>
      <trkpt lat="43.61239" lon="6.65115">
        <ele>273.54</ele>
        <time>2019-10-08T10:13:02Z</time>
      </trkpt>
      <trkpt lat="43.61236" lon="6.65116">
        <ele>273.54</ele>
        <time>2019-10-08T10:13:17Z</time>
      </trkpt>
      <trkpt lat="43.61231" lon="6.65125">
        <ele>273.54</ele>
        <time>2019-10-08T10:13:41Z</time>
      </trkpt>
      <trkpt lat="43.61227" lon="6.65124">
        <ele>275.78</ele>
        <time>2019-10-08T10:14:06Z</time>
      </trkpt>
      <trkpt lat="43.61227" lon="6.65124">
        <ele>275.79</ele>
        <time>2019-10-08T10:14:07Z</time>
      </trkpt>
      <trkpt lat="43.61233" lon="6.65122">
        <ele>275.83</ele>
        <time>2019-10-08T10:14:29Z</time>
      </trkpt>
      <trkpt lat="43.61238" lon="6.65116">
        <ele>275.45</ele>
        <time>2019-10-08T10:14:47Z</time>
      </trkpt>
      <trkpt lat="43.61252" lon="6.65103">
        <ele>275.45</ele>
        <time>2019-10-08T10:15:02Z</time>
      </trkpt>
      <trkpt lat="43.6126" lon="6.65091">
        <ele>275.45</ele>
        <time>2019-10-08T10:15:21Z</time>
      </trkpt>
      <trkpt lat="43.61262" lon="6.65091">
        <ele>275.45</ele>
        <time>2019-10-08T10:15:34Z</time>
      </trkpt>
      <trkpt lat="43.61261" lon="6.65092">
        <ele>275.45</ele>
        <time>2019-10-08T10:15:57Z</time>
      </trkpt>
      <trkpt lat="43.61261" lon="6.65093">
        <ele>275.45</ele>
        <time>2019-10-08T10:16:21Z</time>
      </trkpt>
      <trkpt lat="43.6126" lon="6.65089">
        <ele>275.45</ele>
        <time>2019-10-08T10:16:42Z</time>
      </trkpt>
      <trkpt lat="43.6126" lon="6.65088">
        <ele>275.45</ele>
        <time>2019-10-08T10:17:09Z</time>
      </trkpt>
      <trkpt lat="43.61259" lon="6.65091">
        <ele>275.45</ele>
        <time>2019-10-08T10:18:03Z</time>
      </trkpt>
      <trkpt lat="43.61259" lon="6.65089">
        <ele>275.45</ele>
        <time>2019-10-08T10:18:58Z</time>
      </trkpt>
      <trkpt lat="43.61262" lon="6.65089">
        <ele>275.45</ele>
        <time>2019-10-08T10:19:44Z</time>
      </trkpt>
      <trkpt lat="43.61261" lon="6.65088">
        <ele>275.45</ele>
        <time>2019-10-08T10:20:08Z</time>
      </trkpt>
      <trkpt lat="43.61261" lon="6.65091">
        <ele>275.45</ele>
        <time>2019-10-08T10:20:20Z</time>
      </trkpt>
      <trkpt lat="43.6126" lon="6.65098">
        <ele>273.97</ele>
        <time>2019-10-08T10:20:47Z</time>
      </trkpt>
      <trkpt lat="43.61258" lon="6.65094">
        <ele>274.04</ele>
        <time>2019-10-08T10:21:12Z</time>
      </trkpt>
      <trkpt lat="43.6126" lon="6.65093">
        <ele>273.9</ele>
        <time>2019-10-08T10:21:38Z</time>
      </trkpt>
      <trkpt lat="43.61259" lon="6.65088">
        <ele>273.9</ele>
        <time>2019-10-08T10:22:02Z</time>
      </trkpt>
      <trkpt lat="43.6126" lon="6.65088">
        <ele>273.9</ele>
        <time>2019-10-08T10:22:28Z</time>
      </trkpt>
      <trkpt lat="43.61258" lon="6.65092">
        <ele>273.9</ele>
        <time>2019-10-08T10:22:54Z</time>
      </trkpt>
      <trkpt lat="43.61261" lon="6.6509">
        <ele>273.9</ele>
        <time>2019-10-08T10:23:15Z</time>
      </trkpt>
      <trkpt lat="43.6126" lon="6.6509">
        <ele>273.9</ele>
        <time>2019-10-08T10:23:39Z</time>
      </trkpt>
      <trkpt lat="43.61261" lon="6.65096">
        <ele>273.9</ele>
        <time>2019-10-08T10:24:08Z</time>
      </trkpt>
      <trkpt lat="43.61254" lon="6.65097">
        <ele>273.9</ele>
        <time>2019-10-08T10:24:35Z</time>
      </trkpt>
      <trkpt lat="43.61253" lon="6.65095">
        <ele>273.9</ele>
        <time>2019-10-08T10:25:00Z</time>
      </trkpt>
      <trkpt lat="43.61256" lon="6.65093">
        <ele>273.9</ele>
        <time>2019-10-08T10:25:34Z</time>
      </trkpt>
      <trkpt lat="43.61257" lon="6.65096">
        <ele>273.9</ele>
        <time>2019-10-08T10:26:01Z</time>
      </trkpt>
      <trkpt lat="43.61257" lon="6.65095">
        <ele>273.9</ele>
        <time>2019-10-08T10:26:21Z</time>
      </trkpt>
      <trkpt lat="43.61256" lon="6.65094">
        <ele>273.9</ele>
        <time>2019-10-08T10:26:49Z</time>
      </trkpt>
      <trkpt lat="43.61249" lon="6.65098">
        <ele>273.9</ele>
        <time>2019-10-08T10:27:28Z</time>
      </trkpt>
      <trkpt lat="43.61253" lon="6.65093">
        <ele>273.9</ele>
        <time>2019-10-08T10:27:53Z</time>
      </trkpt>
      <trkpt lat="43.61259" lon="6.65089">
        <ele>273.9</ele>
        <time>2019-10-08T10:28:11Z</time>
      </trkpt>
      <trkpt lat="43.61261" lon="6.65088">
        <ele>273.9</ele>
        <time>2019-10-08T10:28:36Z</time>
      </trkpt>
      <trkpt lat="43.61258" lon="6.65091">
        <ele>273.9</ele>
        <time>2019-10-08T10:29:03Z</time>
      </trkpt>
      <trkpt lat="43.6126" lon="6.65088">
        <ele>273.9</ele>
        <time>2019-10-08T10:29:31Z</time>
      </trkpt>
      <trkpt lat="43.61262" lon="6.65085">
        <ele>273.9</ele>
        <time>2019-10-08T10:29:56Z</time>
      </trkpt>
      <trkpt lat="43.61261" lon="6.65088">
        <ele>273.9</ele>
        <time>2019-10-08T10:30:25Z</time>
      </trkpt>
      <trkpt lat="43.61254" lon="6.65091">
        <ele>273.9</ele>
        <time>2019-10-08T10:30:52Z</time>
      </trkpt>
      <trkpt lat="43.61255" lon="6.65092">
        <ele>273.9</ele>
        <time>2019-10-08T10:31:19Z</time>
      </trkpt>
      <trkpt lat="43.61257" lon="6.6509">
        <ele>273.9</ele>
        <time>2019-10-08T10:31:46Z</time>
      </trkpt>
      <trkpt lat="43.6126" lon="6.65094">
        <ele>274.05</ele>
        <time>2019-10-08T10:32:12Z</time>
      </trkpt>
      <trkpt lat="43.61254" lon="6.65096">
        <ele>275.29</ele>
        <time>2019-10-08T10:32:37Z</time>
      </trkpt>
      <trkpt lat="43.61256" lon="6.65094">
        <ele>275.32</ele>
        <time>2019-10-08T10:33:03Z</time>
      </trkpt>
      <trkpt lat="43.61257" lon="6.65089">
        <ele>275.16</ele>
        <time>2019-10-08T10:33:29Z</time>
      </trkpt>
      <trkpt lat="43.6126" lon="6.65089">
        <ele>275.16</ele>
        <time>2019-10-08T10:33:53Z</time>
      </trkpt>
      <trkpt lat="43.61257" lon="6.65093">
        <ele>275.16</ele>
        <time>2019-10-08T10:34:19Z</time>
      </trkpt>
      <trkpt lat="43.61254" lon="6.65097">
        <ele>275.03</ele>
        <time>2019-10-08T10:34:46Z</time>
      </trkpt>
      <trkpt lat="43.61255" lon="6.65096">
        <ele>274.93</ele>
        <time>2019-10-08T10:35:11Z</time>
      </trkpt>
      <trkpt lat="43.61254" lon="6.65091">
        <ele>275.05</ele>
        <time>2019-10-08T10:35:38Z</time>
      </trkpt>
      <trkpt lat="43.61253" lon="6.65087">
        <ele>275.05</ele>
        <time>2019-10-08T10:36:10Z</time>
      </trkpt>
      <trkpt lat="43.61253" lon="6.65096">
        <ele>275.05</ele>
        <time>2019-10-08T10:36:34Z</time>
      </trkpt>
      <trkpt lat="43.61252" lon="6.65097">
        <ele>275.05</ele>
        <time>2019-10-08T10:36:58Z</time>
      </trkpt>
      <trkpt lat="43.61253" lon="6.65092">
        <ele>275.05</ele>
        <time>2019-10-08T10:37:21Z</time>
      </trkpt>
      <trkpt lat="43.61255" lon="6.65094">
        <ele>275.05</ele>
        <time>2019-10-08T10:37:44Z</time>
      </trkpt>
      <trkpt lat="43.61255" lon="6.65094">
        <ele>275.05</ele>
        <time>2019-10-08T10:38:10Z</time>
      </trkpt>
      <trkpt lat="43.61257" lon="6.65095">
        <ele>275.05</ele>
        <time>2019-10-08T10:38:34Z</time>
      </trkpt>
      <trkpt lat="43.61255" lon="6.65098">
        <ele>275.05</ele>
        <time>2019-10-08T10:39:00Z</time>
      </trkpt>
      <trkpt lat="43.61256" lon="6.65097">
        <ele>275.05</ele>
        <time>2019-10-08T10:39:24Z</time>
      </trkpt>
      <trkpt lat="43.61257" lon="6.65098">
        <ele>275.05</ele>
        <time>2019-10-08T10:39:51Z</time>
      </trkpt>
      <trkpt lat="43.61258" lon="6.65099">
        <ele>275.05</ele>
        <time>2019-10-08T10:40:21Z</time>
      </trkpt>
      <trkpt lat="43.61259" lon="6.65098">
        <ele>275.05</ele>
        <time>2019-10-08T10:40:49Z</time>
      </trkpt>
      <trkpt lat="43.61266" lon="6.6509">
        <ele>275.05</ele>
        <time>2019-10-08T10:41:07Z</time>
      </trkpt>
      <trkpt lat="43.6127" lon="6.65087">
        <ele>275.05</ele>
        <time>2019-10-08T10:41:21Z</time>
      </trkpt>
      <trkpt lat="43.6127" lon="6.65081">
        <ele>275.05</ele>
        <time>2019-10-08T10:41:35Z</time>
      </trkpt>
      <trkpt lat="43.61269" lon="6.65081">
        <ele>275.05</ele>
        <time>2019-10-08T10:41:52Z</time>
      </trkpt>
      <trkpt lat="43.61271" lon="6.65097">
        <ele>275.05</ele>
        <time>2019-10-08T10:42:06Z</time>
      </trkpt>
      <trkpt lat="43.61274" lon="6.65099">
        <ele>275.05</ele>
        <time>2019-10-08T10:42:24Z</time>
      </trkpt>
      <trkpt lat="43.61275" lon="6.65088">
        <ele>275.05</ele>
        <time>2019-10-08T10:42:41Z</time>
      </trkpt>
      <trkpt lat="43.61273" lon="6.65078">
        <ele>275.05</ele>
        <time>2019-10-08T10:43:01Z</time>
      </trkpt>
      <trkpt lat="43.61266" lon="6.65076">
        <ele>275.05</ele>
        <time>2019-10-08T10:43:19Z</time>
      </trkpt>
      <trkpt lat="43.61266" lon="6.65076">
        <ele>275.05</ele>
        <time>2019-10-08T10:43:20Z</time>
      </trkpt>
      <trkpt lat="43.61264" lon="6.65075">
        <ele>275.05</ele>
        <time>2019-10-08T10:43:41Z</time>
      </trkpt>
      <trkpt lat="43.61261" lon="6.65076">
        <ele>275.05</ele>
        <time>2019-10-08T10:44:05Z</time>
      </trkpt>
      <trkpt lat="43.61264" lon="6.65081">
        <ele>275.05</ele>
        <time>2019-10-08T10:44:30Z</time>
      </trkpt>
      <trkpt lat="43.61262" lon="6.65087">
        <ele>275.05</ele>
        <time>2019-10-08T10:44:55Z</time>
      </trkpt>
      <trkpt lat="43.61261" lon="6.65083">
        <ele>275.05</ele>
        <time>2019-10-08T10:45:18Z</time>
      </trkpt>
      <trkpt lat="43.6126" lon="6.6508">
        <ele>275.05</ele>
        <time>2019-10-08T10:45:43Z</time>
      </trkpt>
      <trkpt lat="43.61259" lon="6.65076">
        <ele>275.05</ele>
        <time>2019-10-08T10:46:07Z</time>
      </trkpt>
      <trkpt lat="43.61262" lon="6.65079">
        <ele>275.05</ele>
        <time>2019-10-08T10:46:23Z</time>
      </trkpt>
      <trkpt lat="43.61265" lon="6.65082">
        <ele>275.05</ele>
        <time>2019-10-08T10:46:47Z</time>
      </trkpt>
      <trkpt lat="43.61268" lon="6.65079">
        <ele>275.05</ele>
        <time>2019-10-08T10:47:28Z</time>
      </trkpt>
      <trkpt lat="43.61267" lon="6.65079">
        <ele>275.05</ele>
        <time>2019-10-08T10:47:49Z</time>
      </trkpt>
      <trkpt lat="43.61268" lon="6.6508">
        <ele>275.05</ele>
        <time>2019-10-08T10:48:15Z</time>
      </trkpt>
      <trkpt lat="43.61271" lon="6.65081">
        <ele>275.05</ele>
        <time>2019-10-08T10:48:48Z</time>
      </trkpt>
      <trkpt lat="43.61269" lon="6.65082">
        <ele>275.05</ele>
        <time>2019-10-08T10:49:33Z</time>
      </trkpt>
      <trkpt lat="43.6127" lon="6.65085">
        <ele>275.05</ele>
        <time>2019-10-08T10:49:51Z</time>
      </trkpt>
      <trkpt lat="43.61273" lon="6.65086">
        <ele>275.05</ele>
        <time>2019-10-08T10:50:09Z</time>
      </trkpt>
      <trkpt lat="43.61275" lon="6.65097">
        <ele>275.05</ele>
        <time>2019-10-08T10:50:23Z</time>
      </trkpt>
      <trkpt lat="43.6128" lon="6.65109">
        <ele>275.05</ele>
        <time>2019-10-08T10:50:41Z</time>
      </trkpt>
      <trkpt lat="43.6128" lon="6.6511">
        <ele>271.2</ele>
        <time>2019-10-08T10:50:43Z</time>
      </trkpt>
      <trkpt lat="43.6128" lon="6.65111">
        <ele>271.16</ele>
        <time>2019-10-08T10:50:44Z</time>
      </trkpt>
      <trkpt lat="43.61286" lon="6.65124">
        <ele>269.87</ele>
        <time>2019-10-08T10:51:02Z</time>
      </trkpt>
      <trkpt lat="43.61295" lon="6.65142">
        <ele>268.25</ele>
        <time>2019-10-08T10:51:19Z</time>
      </trkpt>
      <trkpt lat="43.61298" lon="6.65156">
        <ele>267.4</ele>
        <time>2019-10-08T10:51:32Z</time>
      </trkpt>
      <trkpt lat="43.61305" lon="6.65167">
        <ele>266.3</ele>
        <time>2019-10-08T10:51:48Z</time>
      </trkpt>
      <trkpt lat="43.61305" lon="6.65177">
        <ele>266.3</ele>
        <time>2019-10-08T10:52:04Z</time>
      </trkpt>
      <trkpt lat="43.61295" lon="6.65182">
        <ele>266.86</ele>
        <time>2019-10-08T10:52:19Z</time>
      </trkpt>
      <trkpt lat="43.61291" lon="6.65192">
        <ele>268.18</ele>
        <time>2019-10-08T10:52:33Z</time>
      </trkpt>
      <trkpt lat="43.61291" lon="6.65195">
        <ele>268.43</ele>
        <time>2019-10-08T10:52:35Z</time>
      </trkpt>
      <trkpt lat="43.61296" lon="6.65218">
        <ele>269.4</ele>
        <time>2019-10-08T10:52:51Z</time>
      </trkpt>
      <trkpt lat="43.61296" lon="6.6522">
        <ele>269.49</ele>
        <time>2019-10-08T10:52:52Z</time>
      </trkpt>
      <trkpt lat="43.61303" lon="6.65237">
        <ele>270.27</ele>
        <time>2019-10-08T10:53:07Z</time>
      </trkpt>
      <trkpt lat="43.61313" lon="6.65259">
        <ele>271.1</ele>
        <time>2019-10-08T10:53:25Z</time>
      </trkpt>
      <trkpt lat="43.61319" lon="6.65281">
        <ele>272.29</ele>
        <time>2019-10-08T10:53:42Z</time>
      </trkpt>
      <trkpt lat="43.61319" lon="6.65298">
        <ele>272.96</ele>
        <time>2019-10-08T10:53:55Z</time>
      </trkpt>
      <trkpt lat="43.61313" lon="6.65316">
        <ele>273.9</ele>
        <time>2019-10-08T10:54:13Z</time>
      </trkpt>
      <trkpt lat="43.61299" lon="6.65332">
        <ele>274.51</ele>
        <time>2019-10-08T10:54:31Z</time>
      </trkpt>
      <trkpt lat="43.61284" lon="6.65354">
        <ele>274.6</ele>
        <time>2019-10-08T10:54:50Z</time>
      </trkpt>
      <trkpt lat="43.6128" lon="6.65365">
        <ele>274.62</ele>
        <time>2019-10-08T10:54:58Z</time>
      </trkpt>
      <trkpt lat="43.61274" lon="6.65385">
        <ele>274.63</ele>
        <time>2019-10-08T10:55:10Z</time>
      </trkpt>
      <trkpt lat="43.61264" lon="6.65411">
        <ele>274.58</ele>
        <time>2019-10-08T10:55:27Z</time>
      </trkpt>
      <trkpt lat="43.61261" lon="6.65415">
        <ele>274.61</ele>
        <time>2019-10-08T10:55:31Z</time>
      </trkpt>
      <trkpt lat="43.61245" lon="6.65431">
        <ele>273.92</ele>
        <time>2019-10-08T10:55:49Z</time>
      </trkpt>
      <trkpt lat="43.61235" lon="6.65446">
        <ele>273.02</ele>
        <time>2019-10-08T10:56:03Z</time>
      </trkpt>
      <trkpt lat="43.61228" lon="6.65464">
        <ele>272.45</ele>
        <time>2019-10-08T10:56:16Z</time>
      </trkpt>
      <trkpt lat="43.61224" lon="6.65486">
        <ele>272</ele>
        <time>2019-10-08T10:56:29Z</time>
      </trkpt>
      <trkpt lat="43.61221" lon="6.65508">
        <ele>271.56</ele>
        <time>2019-10-08T10:56:42Z</time>
      </trkpt>
      <trkpt lat="43.61215" lon="6.65528">
        <ele>270.83</ele>
        <time>2019-10-08T10:56:56Z</time>
      </trkpt>
      <trkpt lat="43.61211" lon="6.65535">
        <ele>270.69</ele>
        <time>2019-10-08T10:57:03Z</time>
      </trkpt>
      <trkpt lat="43.61201" lon="6.6554">
        <ele>270.38</ele>
        <time>2019-10-08T10:57:15Z</time>
      </trkpt>
      <trkpt lat="43.61183" lon="6.65544">
        <ele>270.28</ele>
        <time>2019-10-08T10:57:30Z</time>
      </trkpt>
      <trkpt lat="43.61171" lon="6.65553">
        <ele>270.57</ele>
        <time>2019-10-08T10:57:41Z</time>
      </trkpt>
      <trkpt lat="43.61157" lon="6.65566">
        <ele>270.73</ele>
        <time>2019-10-08T10:57:55Z</time>
      </trkpt>
      <trkpt lat="43.61146" lon="6.65577">
        <ele>270.82</ele>
        <time>2019-10-08T10:58:07Z</time>
      </trkpt>
      <trkpt lat="43.61134" lon="6.6559">
        <ele>270.96</ele>
        <time>2019-10-08T10:58:19Z</time>
      </trkpt>
      <trkpt lat="43.61121" lon="6.65601">
        <ele>271.14</ele>
        <time>2019-10-08T10:58:33Z</time>
      </trkpt>
      <trkpt lat="43.61106" lon="6.65605">
        <ele>271.4</ele>
        <time>2019-10-08T10:58:47Z</time>
      </trkpt>
      <trkpt lat="43.61098" lon="6.65601">
        <ele>271.4</ele>
        <time>2019-10-08T10:58:58Z</time>
      </trkpt>
      <trkpt lat="43.61088" lon="6.65603">
        <ele>270.86</ele>
        <time>2019-10-08T10:59:08Z</time>
      </trkpt>
      <trkpt lat="43.61077" lon="6.65616">
        <ele>270.68</ele>
        <time>2019-10-08T10:59:20Z</time>
      </trkpt>
      <trkpt lat="43.61061" lon="6.65629">
        <ele>270.62</ele>
        <time>2019-10-08T10:59:35Z</time>
      </trkpt>
      <trkpt lat="43.61048" lon="6.65639">
        <ele>270.11</ele>
        <time>2019-10-08T10:59:47Z</time>
      </trkpt>
      <trkpt lat="43.61033" lon="6.65653">
        <ele>269.74</ele>
        <time>2019-10-08T11:00:01Z</time>
      </trkpt>
      <trkpt lat="43.61023" lon="6.65666">
        <ele>269.63</ele>
        <time>2019-10-08T11:00:15Z</time>
      </trkpt>
      <trkpt lat="43.61022" lon="6.65668">
        <ele>269.67</ele>
        <time>2019-10-08T11:00:17Z</time>
      </trkpt>
      <trkpt lat="43.61004" lon="6.65679">
        <ele>270.28</ele>
        <time>2019-10-08T11:00:31Z</time>
      </trkpt>
      <trkpt lat="43.60998" lon="6.65687">
        <ele>270.6</ele>
        <time>2019-10-08T11:00:38Z</time>
      </trkpt>
      <trkpt lat="43.60997" lon="6.65704">
        <ele>271.14</ele>
        <time>2019-10-08T11:00:47Z</time>
      </trkpt>
      <trkpt lat="43.61005" lon="6.65729">
        <ele>271.6</ele>
        <time>2019-10-08T11:01:02Z</time>
      </trkpt>
      <trkpt lat="43.6101" lon="6.65744">
        <ele>271.69</ele>
        <time>2019-10-08T11:01:11Z</time>
      </trkpt>
      <trkpt lat="43.61007" lon="6.65756">
        <ele>271.54</ele>
        <time>2019-10-08T11:01:23Z</time>
      </trkpt>
      <trkpt lat="43.60993" lon="6.6577">
        <ele>271.47</ele>
        <time>2019-10-08T11:01:38Z</time>
      </trkpt>
      <trkpt lat="43.60981" lon="6.65779">
        <ele>271.78</ele>
        <time>2019-10-08T11:01:50Z</time>
      </trkpt>
      <trkpt lat="43.6097" lon="6.65785">
        <ele>272.06</ele>
        <time>2019-10-08T11:02:01Z</time>
      </trkpt>
      <trkpt lat="43.60955" lon="6.65792">
        <ele>272.33</ele>
        <time>2019-10-08T11:02:14Z</time>
      </trkpt>
      <trkpt lat="43.60945" lon="6.65799">
        <ele>272.77</ele>
        <time>2019-10-08T11:02:25Z</time>
      </trkpt>
      <trkpt lat="43.60943" lon="6.65804">
        <ele>272.84</ele>
        <time>2019-10-08T11:02:28Z</time>
      </trkpt>
      <trkpt lat="43.60929" lon="6.65815">
        <ele>273.17</ele>
        <time>2019-10-08T11:02:43Z</time>
      </trkpt>
      <trkpt lat="43.60916" lon="6.65833">
        <ele>273.37</ele>
        <time>2019-10-08T11:02:56Z</time>
      </trkpt>
      <trkpt lat="43.60901" lon="6.65852">
        <ele>273.66</ele>
        <time>2019-10-08T11:03:11Z</time>
      </trkpt>
      <trkpt lat="43.60891" lon="6.65865">
        <ele>273.77</ele>
        <time>2019-10-08T11:03:22Z</time>
      </trkpt>
      <trkpt lat="43.60877" lon="6.65882">
        <ele>273.9</ele>
        <time>2019-10-08T11:03:37Z</time>
      </trkpt>
      <trkpt lat="43.60861" lon="6.65899">
        <ele>273.97</ele>
        <time>2019-10-08T11:03:54Z</time>
      </trkpt>
      <trkpt lat="43.60848" lon="6.65918">
        <ele>274.06</ele>
        <time>2019-10-08T11:04:10Z</time>
      </trkpt>
      <trkpt lat="43.60838" lon="6.65937">
        <ele>273.84</ele>
        <time>2019-10-08T11:04:24Z</time>
      </trkpt>
      <trkpt lat="43.60834" lon="6.65959">
        <ele>273.19</ele>
        <time>2019-10-08T11:04:38Z</time>
      </trkpt>
      <trkpt lat="43.60826" lon="6.65979">
        <ele>271.99</ele>
        <time>2019-10-08T11:04:55Z</time>
      </trkpt>
      <trkpt lat="43.60815" lon="6.65992">
        <ele>271.45</ele>
        <time>2019-10-08T11:05:08Z</time>
      </trkpt>
      <trkpt lat="43.60799" lon="6.66005">
        <ele>271.53</ele>
        <time>2019-10-08T11:05:23Z</time>
      </trkpt>
      <trkpt lat="43.60787" lon="6.66021">
        <ele>271.56</ele>
        <time>2019-10-08T11:05:37Z</time>
      </trkpt>
      <trkpt lat="43.60779" lon="6.66037">
        <ele>271.52</ele>
        <time>2019-10-08T11:05:50Z</time>
      </trkpt>
      <trkpt lat="43.60768" lon="6.66053">
        <ele>271.56</ele>
        <time>2019-10-08T11:06:02Z</time>
      </trkpt>
      <trkpt lat="43.60759" lon="6.66072">
        <ele>271.55</ele>
        <time>2019-10-08T11:06:17Z</time>
      </trkpt>
      <trkpt lat="43.60753" lon="6.66078">
        <ele>271.62</ele>
        <time>2019-10-08T11:06:23Z</time>
      </trkpt>
      <trkpt lat="43.60742" lon="6.66099">
        <ele>271.47</ele>
        <time>2019-10-08T11:06:37Z</time>
      </trkpt>
      <trkpt lat="43.60728" lon="6.66118">
        <ele>271.57</ele>
        <time>2019-10-08T11:06:51Z</time>
      </trkpt>
      <trkpt lat="43.60713" lon="6.66132">
        <ele>271.74</ele>
        <time>2019-10-08T11:07:05Z</time>
      </trkpt>
      <trkpt lat="43.60698" lon="6.66139">
        <ele>271.88</ele>
        <time>2019-10-08T11:07:19Z</time>
      </trkpt>
      <trkpt lat="43.60691" lon="6.66128">
        <ele>272.65</ele>
        <time>2019-10-08T11:07:32Z</time>
      </trkpt>
      <trkpt lat="43.60683" lon="6.66114">
        <ele>273.92</ele>
        <time>2019-10-08T11:07:45Z</time>
      </trkpt>
      <trkpt lat="43.60668" lon="6.6612">
        <ele>274.42</ele>
        <time>2019-10-08T11:07:57Z</time>
      </trkpt>
      <trkpt lat="43.6066" lon="6.66137">
        <ele>274.51</ele>
        <time>2019-10-08T11:08:10Z</time>
      </trkpt>
      <trkpt lat="43.60654" lon="6.66156">
        <ele>274.16</ele>
        <time>2019-10-08T11:08:22Z</time>
      </trkpt>
      <trkpt lat="43.60647" lon="6.66176">
        <ele>273.83</ele>
        <time>2019-10-08T11:08:34Z</time>
      </trkpt>
      <trkpt lat="43.60641" lon="6.66195">
        <ele>273.23</ele>
        <time>2019-10-08T11:08:46Z</time>
      </trkpt>
      <trkpt lat="43.60635" lon="6.66215">
        <ele>272.44</ele>
        <time>2019-10-08T11:08:59Z</time>
      </trkpt>
      <trkpt lat="43.60628" lon="6.66233">
        <ele>272</ele>
        <time>2019-10-08T11:09:12Z</time>
      </trkpt>
      <trkpt lat="43.60622" lon="6.66261">
        <ele>271.06</ele>
        <time>2019-10-08T11:09:27Z</time>
      </trkpt>
      <trkpt lat="43.60611" lon="6.66275">
        <ele>270.83</ele>
        <time>2019-10-08T11:09:41Z</time>
      </trkpt>
      <trkpt lat="43.60593" lon="6.6629">
        <ele>270.44</ele>
        <time>2019-10-08T11:09:57Z</time>
      </trkpt>
      <trkpt lat="43.60582" lon="6.66303">
        <ele>269.97</ele>
        <time>2019-10-08T11:10:11Z</time>
      </trkpt>
      <trkpt lat="43.60569" lon="6.6631">
        <ele>269.19</ele>
        <time>2019-10-08T11:10:24Z</time>
      </trkpt>
      <trkpt lat="43.60551" lon="6.6632">
        <ele>268</ele>
        <time>2019-10-08T11:10:38Z</time>
      </trkpt>
      <trkpt lat="43.60537" lon="6.66336">
        <ele>266.94</ele>
        <time>2019-10-08T11:10:52Z</time>
      </trkpt>
      <trkpt lat="43.60534" lon="6.6634">
        <ele>266.87</ele>
        <time>2019-10-08T11:10:55Z</time>
      </trkpt>
      <trkpt lat="43.60524" lon="6.6636">
        <ele>266.22</ele>
        <time>2019-10-08T11:11:09Z</time>
      </trkpt>
      <trkpt lat="43.60515" lon="6.66375">
        <ele>265.75</ele>
        <time>2019-10-08T11:11:21Z</time>
      </trkpt>
      <trkpt lat="43.60509" lon="6.66393">
        <ele>265.24</ele>
        <time>2019-10-08T11:11:35Z</time>
      </trkpt>
      <trkpt lat="43.60518" lon="6.66412">
        <ele>264.87</ele>
        <time>2019-10-08T11:11:48Z</time>
      </trkpt>
      <trkpt lat="43.60528" lon="6.66429">
        <ele>264.37</ele>
        <time>2019-10-08T11:12:01Z</time>
      </trkpt>
      <trkpt lat="43.60541" lon="6.66448">
        <ele>263.38</ele>
        <time>2019-10-08T11:12:14Z</time>
      </trkpt>
      <trkpt lat="43.60552" lon="6.66458">
        <ele>262.89</ele>
        <time>2019-10-08T11:12:26Z</time>
      </trkpt>
      <trkpt lat="43.60563" lon="6.66474">
        <ele>262.89</ele>
        <time>2019-10-08T11:12:39Z</time>
      </trkpt>
      <trkpt lat="43.6057" lon="6.66486">
        <ele>263.53</ele>
        <time>2019-10-08T11:12:52Z</time>
      </trkpt>
      <trkpt lat="43.60569" lon="6.66487">
        <ele>263.77</ele>
        <time>2019-10-08T11:12:55Z</time>
      </trkpt>
      <trkpt lat="43.60566" lon="6.66489">
        <ele>263.93</ele>
        <time>2019-10-08T11:13:02Z</time>
      </trkpt>
      <trkpt lat="43.60557" lon="6.66503">
        <ele>263.3</ele>
        <time>2019-10-08T11:13:17Z</time>
      </trkpt>
      <trkpt lat="43.60548" lon="6.66519">
        <ele>263.28</ele>
        <time>2019-10-08T11:13:30Z</time>
      </trkpt>
      <trkpt lat="43.60543" lon="6.66546">
        <ele>263.21</ele>
        <time>2019-10-08T11:13:46Z</time>
      </trkpt>
      <trkpt lat="43.60531" lon="6.66564">
        <ele>262.92</ele>
        <time>2019-10-08T11:13:58Z</time>
      </trkpt>
      <trkpt lat="43.6052" lon="6.66581">
        <ele>262.29</ele>
        <time>2019-10-08T11:14:12Z</time>
      </trkpt>
      <trkpt lat="43.60517" lon="6.66585">
        <ele>262.16</ele>
        <time>2019-10-08T11:14:16Z</time>
      </trkpt>
      <trkpt lat="43.60508" lon="6.66599">
        <ele>262.09</ele>
        <time>2019-10-08T11:14:32Z</time>
      </trkpt>
      <trkpt lat="43.60507" lon="6.666">
        <ele>262.09</ele>
        <time>2019-10-08T11:14:33Z</time>
      </trkpt>
      <trkpt lat="43.60494" lon="6.66614">
        <ele>262.14</ele>
        <time>2019-10-08T11:14:50Z</time>
      </trkpt>
      <trkpt lat="43.60489" lon="6.6662">
        <ele>262.09</ele>
        <time>2019-10-08T11:15:07Z</time>
      </trkpt>
      <trkpt lat="43.60488" lon="6.66622">
        <ele>262.09</ele>
        <time>2019-10-08T11:15:28Z</time>
      </trkpt>
      <trkpt lat="43.60488" lon="6.66621">
        <ele>262.09</ele>
        <time>2019-10-08T11:15:52Z</time>
      </trkpt>
      <trkpt lat="43.60487" lon="6.66623">
        <ele>262.09</ele>
        <time>2019-10-08T11:16:13Z</time>
      </trkpt>
      <trkpt lat="43.60484" lon="6.66625">
        <ele>262.09</ele>
        <time>2019-10-08T11:16:33Z</time>
      </trkpt>
      <trkpt lat="43.60484" lon="6.6663">
        <ele>262.09</ele>
        <time>2019-10-08T11:16:57Z</time>
      </trkpt>
      <trkpt lat="43.60484" lon="6.66632">
        <ele>262.09</ele>
        <time>2019-10-08T11:17:19Z</time>
      </trkpt>
      <trkpt lat="43.60482" lon="6.66634">
        <ele>262.09</ele>
        <time>2019-10-08T11:17:41Z</time>
      </trkpt>
      <trkpt lat="43.60471" lon="6.66637">
        <ele>262.37</ele>
        <time>2019-10-08T11:17:57Z</time>
      </trkpt>
      <trkpt lat="43.60472" lon="6.66657">
        <ele>263.7</ele>
        <time>2019-10-08T11:18:14Z</time>
      </trkpt>
      <trkpt lat="43.60478" lon="6.66673">
        <ele>264.81</ele>
        <time>2019-10-08T11:18:27Z</time>
      </trkpt>
      <trkpt lat="43.60482" lon="6.66682">
        <ele>265.24</ele>
        <time>2019-10-08T11:18:33Z</time>
      </trkpt>
      <trkpt lat="43.60493" lon="6.66698">
        <ele>265.47</ele>
        <time>2019-10-08T11:18:47Z</time>
      </trkpt>
      <trkpt lat="43.60495" lon="6.66705">
        <ele>265.51</ele>
        <time>2019-10-08T11:18:51Z</time>
      </trkpt>
      <trkpt lat="43.60503" lon="6.66721">
        <ele>265.58</ele>
        <time>2019-10-08T11:19:05Z</time>
      </trkpt>
      <trkpt lat="43.60505" lon="6.66724">
        <ele>265.6</ele>
        <time>2019-10-08T11:19:08Z</time>
      </trkpt>
      <trkpt lat="43.60507" lon="6.6673">
        <ele>265.67</ele>
        <time>2019-10-08T11:19:13Z</time>
      </trkpt>
      <trkpt lat="43.60513" lon="6.66749">
        <ele>265.79</ele>
        <time>2019-10-08T11:19:26Z</time>
      </trkpt>
      <trkpt lat="43.60518" lon="6.66766">
        <ele>265.83</ele>
        <time>2019-10-08T11:19:39Z</time>
      </trkpt>
      <trkpt lat="43.6052" lon="6.66772">
        <ele>265.79</ele>
        <time>2019-10-08T11:19:43Z</time>
      </trkpt>
      <trkpt lat="43.60523" lon="6.66786">
        <ele>265.64</ele>
        <time>2019-10-08T11:19:52Z</time>
      </trkpt>
      <trkpt lat="43.60526" lon="6.66805">
        <ele>265.56</ele>
        <time>2019-10-08T11:20:03Z</time>
      </trkpt>
      <trkpt lat="43.60527" lon="6.66821">
        <ele>265.5</ele>
        <time>2019-10-08T11:20:14Z</time>
      </trkpt>
      <trkpt lat="43.60528" lon="6.66841">
        <ele>265.63</ele>
        <time>2019-10-08T11:20:26Z</time>
      </trkpt>
      <trkpt lat="43.60528" lon="6.66852">
        <ele>265.62</ele>
        <time>2019-10-08T11:20:32Z</time>
      </trkpt>
      <trkpt lat="43.60526" lon="6.66872">
        <ele>265.57</ele>
        <time>2019-10-08T11:20:47Z</time>
      </trkpt>
      <trkpt lat="43.60525" lon="6.66893">
        <ele>265.54</ele>
        <time>2019-10-08T11:21:00Z</time>
      </trkpt>
      <trkpt lat="43.60525" lon="6.66906">
        <ele>265.3</ele>
        <time>2019-10-08T11:21:09Z</time>
      </trkpt>
      <trkpt lat="43.60526" lon="6.66914">
        <ele>265.28</ele>
        <time>2019-10-08T11:21:24Z</time>
      </trkpt>
      <trkpt lat="43.60525" lon="6.66917">
        <ele>265.37</ele>
        <time>2019-10-08T11:21:50Z</time>
      </trkpt>
      <trkpt lat="43.60524" lon="6.66919">
        <ele>265.17</ele>
        <time>2019-10-08T11:22:12Z</time>
      </trkpt>
      <trkpt lat="43.60525" lon="6.66917">
        <ele>265.37</ele>
        <time>2019-10-08T11:22:36Z</time>
      </trkpt>
      <trkpt lat="43.60525" lon="6.6691">
        <ele>265.37</ele>
        <time>2019-10-08T11:22:54Z</time>
      </trkpt>
      <trkpt lat="43.60522" lon="6.66906">
        <ele>265.37</ele>
        <time>2019-10-08T11:23:12Z</time>
      </trkpt>
      <trkpt lat="43.60523" lon="6.66905">
        <ele>265.37</ele>
        <time>2019-10-08T11:23:36Z</time>
      </trkpt>
      <trkpt lat="43.60528" lon="6.66911">
        <ele>265.37</ele>
        <time>2019-10-08T11:23:46Z</time>
      </trkpt>
      <trkpt lat="43.60531" lon="6.66929">
        <ele>265.94</ele>
        <time>2019-10-08T11:23:59Z</time>
      </trkpt>
      <trkpt lat="43.60536" lon="6.66944">
        <ele>265.71</ele>
        <time>2019-10-08T11:24:12Z</time>
      </trkpt>
      <trkpt lat="43.60544" lon="6.66964">
        <ele>265.01</ele>
        <time>2019-10-08T11:24:27Z</time>
      </trkpt>
      <trkpt lat="43.6055" lon="6.66981">
        <ele>264.19</ele>
        <time>2019-10-08T11:24:41Z</time>
      </trkpt>
      <trkpt lat="43.60559" lon="6.66999">
        <ele>262.9</ele>
        <time>2019-10-08T11:24:55Z</time>
      </trkpt>
      <trkpt lat="43.60568" lon="6.67023">
        <ele>261.32</ele>
        <time>2019-10-08T11:25:12Z</time>
      </trkpt>
      <trkpt lat="43.60571" lon="6.67046">
        <ele>259.93</ele>
        <time>2019-10-08T11:25:28Z</time>
      </trkpt>
      <trkpt lat="43.60574" lon="6.67063">
        <ele>258.27</ele>
        <time>2019-10-08T11:25:39Z</time>
      </trkpt>
      <trkpt lat="43.60584" lon="6.67076">
        <ele>256.74</ele>
        <time>2019-10-08T11:25:53Z</time>
      </trkpt>
      <trkpt lat="43.60591" lon="6.67083">
        <ele>255.63</ele>
        <time>2019-10-08T11:26:11Z</time>
      </trkpt>
      <trkpt lat="43.60593" lon="6.67083">
        <ele>255.63</ele>
        <time>2019-10-08T11:26:42Z</time>
      </trkpt>
      <trkpt lat="43.60591" lon="6.67081">
        <ele>255.66</ele>
        <time>2019-10-08T11:26:58Z</time>
      </trkpt>
      <trkpt lat="43.60578" lon="6.67068">
        <ele>257.09</ele>
        <time>2019-10-08T11:27:14Z</time>
      </trkpt>
      <trkpt lat="43.60573" lon="6.67058">
        <ele>257.92</ele>
        <time>2019-10-08T11:27:22Z</time>
      </trkpt>
      <trkpt lat="43.60569" lon="6.67036">
        <ele>259.27</ele>
        <time>2019-10-08T11:27:37Z</time>
      </trkpt>
      <trkpt lat="43.60565" lon="6.67017">
        <ele>260.72</ele>
        <time>2019-10-08T11:27:51Z</time>
      </trkpt>
      <trkpt lat="43.60558" lon="6.66999">
        <ele>261.89</ele>
        <time>2019-10-08T11:28:06Z</time>
      </trkpt>
      <trkpt lat="43.60551" lon="6.66982">
        <ele>263.89</ele>
        <time>2019-10-08T11:28:19Z</time>
      </trkpt>
      <trkpt lat="43.60545" lon="6.66963">
        <ele>265.25</ele>
        <time>2019-10-08T11:28:31Z</time>
      </trkpt>
      <trkpt lat="43.60536" lon="6.66941">
        <ele>265.8</ele>
        <time>2019-10-08T11:28:47Z</time>
      </trkpt>
      <trkpt lat="43.60532" lon="6.66926">
        <ele>266.25</ele>
        <time>2019-10-08T11:28:59Z</time>
      </trkpt>
      <trkpt lat="43.60529" lon="6.66906">
        <ele>266.25</ele>
        <time>2019-10-08T11:29:11Z</time>
      </trkpt>
      <trkpt lat="43.60529" lon="6.66898">
        <ele>266.38</ele>
        <time>2019-10-08T11:29:16Z</time>
      </trkpt>
      <trkpt lat="43.60529" lon="6.66872">
        <ele>266.72</ele>
        <time>2019-10-08T11:29:30Z</time>
      </trkpt>
      <trkpt lat="43.60528" lon="6.66851">
        <ele>266.61</ele>
        <time>2019-10-08T11:29:43Z</time>
      </trkpt>
      <trkpt lat="43.60527" lon="6.66826">
        <ele>266.46</ele>
        <time>2019-10-08T11:30:00Z</time>
      </trkpt>
      <trkpt lat="43.60526" lon="6.66802">
        <ele>267.15</ele>
        <time>2019-10-08T11:30:14Z</time>
      </trkpt>
      <trkpt lat="43.60524" lon="6.66783">
        <ele>266.82</ele>
        <time>2019-10-08T11:30:25Z</time>
      </trkpt>
      <trkpt lat="43.60519" lon="6.66763">
        <ele>267.09</ele>
        <time>2019-10-08T11:30:37Z</time>
      </trkpt>
      <trkpt lat="43.60516" lon="6.66748">
        <ele>267.25</ele>
        <time>2019-10-08T11:30:49Z</time>
      </trkpt>
      <trkpt lat="43.60508" lon="6.66726">
        <ele>267.08</ele>
        <time>2019-10-08T11:31:01Z</time>
      </trkpt>
      <trkpt lat="43.60499" lon="6.66709">
        <ele>267.14</ele>
        <time>2019-10-08T11:31:13Z</time>
      </trkpt>
      <trkpt lat="43.60489" lon="6.66692">
        <ele>267.25</ele>
        <time>2019-10-08T11:31:26Z</time>
      </trkpt>
      <trkpt lat="43.60489" lon="6.66691">
        <ele>267.25</ele>
        <time>2019-10-08T11:31:27Z</time>
      </trkpt>
      <trkpt lat="43.60479" lon="6.66687">
        <ele>267.35</ele>
        <time>2019-10-08T11:31:43Z</time>
      </trkpt>
      <trkpt lat="43.60468" lon="6.6669">
        <ele>267.24</ele>
        <time>2019-10-08T11:32:03Z</time>
      </trkpt>
      <trkpt lat="43.60457" lon="6.66694">
        <ele>267.49</ele>
        <time>2019-10-08T11:32:13Z</time>
      </trkpt>
      <trkpt lat="43.60444" lon="6.667">
        <ele>268.19</ele>
        <time>2019-10-08T11:32:26Z</time>
      </trkpt>
      <trkpt lat="43.60427" lon="6.66707">
        <ele>269.37</ele>
        <time>2019-10-08T11:32:41Z</time>
      </trkpt>
      <trkpt lat="43.60415" lon="6.66716">
        <ele>270.09</ele>
        <time>2019-10-08T11:32:54Z</time>
      </trkpt>
      <trkpt lat="43.604" lon="6.66725">
        <ele>271.01</ele>
        <time>2019-10-08T11:33:06Z</time>
      </trkpt>
      <trkpt lat="43.60397" lon="6.66727">
        <ele>271.29</ele>
        <time>2019-10-08T11:33:09Z</time>
      </trkpt>
      <trkpt lat="43.60381" lon="6.66732">
        <ele>271.87</ele>
        <time>2019-10-08T11:33:22Z</time>
      </trkpt>
      <trkpt lat="43.60365" lon="6.66739">
        <ele>272</ele>
        <time>2019-10-08T11:33:36Z</time>
      </trkpt>
      <trkpt lat="43.60357" lon="6.66743">
        <ele>272.02</ele>
        <time>2019-10-08T11:33:44Z</time>
      </trkpt>
      <trkpt lat="43.60347" lon="6.66746">
        <ele>271.85</ele>
        <time>2019-10-08T11:33:52Z</time>
      </trkpt>
      <trkpt lat="43.60328" lon="6.66749">
        <ele>271.81</ele>
        <time>2019-10-08T11:34:07Z</time>
      </trkpt>
      <trkpt lat="43.60312" lon="6.66755">
        <ele>271.27</ele>
        <time>2019-10-08T11:34:21Z</time>
      </trkpt>
      <trkpt lat="43.60297" lon="6.66763">
        <ele>270.94</ele>
        <time>2019-10-08T11:34:32Z</time>
      </trkpt>
      <trkpt lat="43.60277" lon="6.66768">
        <ele>270.57</ele>
        <time>2019-10-08T11:34:47Z</time>
      </trkpt>
      <trkpt lat="43.60262" lon="6.6677">
        <ele>270.47</ele>
        <time>2019-10-08T11:35:00Z</time>
      </trkpt>
      <trkpt lat="43.60248" lon="6.66778">
        <ele>270.5</ele>
        <time>2019-10-08T11:35:13Z</time>
      </trkpt>
      <trkpt lat="43.60233" lon="6.66782">
        <ele>270.59</ele>
        <time>2019-10-08T11:35:25Z</time>
      </trkpt>
      <trkpt lat="43.60225" lon="6.66786">
        <ele>270.84</ele>
        <time>2019-10-08T11:35:36Z</time>
      </trkpt>
      <trkpt lat="43.60224" lon="6.66787">
        <ele>270.93</ele>
        <time>2019-10-08T11:35:51Z</time>
      </trkpt>
      <trkpt lat="43.60214" lon="6.66794">
        <ele>270.91</ele>
        <time>2019-10-08T11:36:07Z</time>
      </trkpt>
      <trkpt lat="43.60209" lon="6.66795">
        <ele>270.87</ele>
        <time>2019-10-08T11:36:11Z</time>
      </trkpt>
      <trkpt lat="43.60193" lon="6.66797">
        <ele>270.82</ele>
        <time>2019-10-08T11:36:27Z</time>
      </trkpt>
      <trkpt lat="43.60183" lon="6.66801">
        <ele>271.03</ele>
        <time>2019-10-08T11:36:36Z</time>
      </trkpt>
      <trkpt lat="43.60163" lon="6.66806">
        <ele>272.11</ele>
        <time>2019-10-08T11:36:52Z</time>
      </trkpt>
      <trkpt lat="43.60147" lon="6.66812">
        <ele>272.99</ele>
        <time>2019-10-08T11:37:06Z</time>
      </trkpt>
      <trkpt lat="43.60137" lon="6.66813">
        <ele>273.49</ele>
        <time>2019-10-08T11:37:17Z</time>
      </trkpt>
      <trkpt lat="43.60123" lon="6.66815">
        <ele>273.29</ele>
        <time>2019-10-08T11:37:28Z</time>
      </trkpt>
      <trkpt lat="43.60108" lon="6.66817">
        <ele>273.88</ele>
        <time>2019-10-08T11:37:40Z</time>
      </trkpt>
      <trkpt lat="43.60095" lon="6.66824">
        <ele>274.61</ele>
        <time>2019-10-08T11:37:53Z</time>
      </trkpt>
      <trkpt lat="43.60089" lon="6.66823">
        <ele>274.72</ele>
        <time>2019-10-08T11:37:57Z</time>
      </trkpt>
      <trkpt lat="43.6008" lon="6.66825">
        <ele>274.61</ele>
        <time>2019-10-08T11:38:04Z</time>
      </trkpt>
      <trkpt lat="43.60066" lon="6.66829">
        <ele>274.46</ele>
        <time>2019-10-08T11:38:15Z</time>
      </trkpt>
      <trkpt lat="43.60054" lon="6.66834">
        <ele>273.93</ele>
        <time>2019-10-08T11:38:26Z</time>
      </trkpt>
      <trkpt lat="43.60036" lon="6.66837">
        <ele>273.79</ele>
        <time>2019-10-08T11:38:40Z</time>
      </trkpt>
      <trkpt lat="43.60021" lon="6.6684">
        <ele>273.74</ele>
        <time>2019-10-08T11:38:52Z</time>
      </trkpt>
      <trkpt lat="43.60009" lon="6.66841">
        <ele>273.55</ele>
        <time>2019-10-08T11:39:02Z</time>
      </trkpt>
      <trkpt lat="43.59996" lon="6.66845">
        <ele>273.72</ele>
        <time>2019-10-08T11:39:12Z</time>
      </trkpt>
      <trkpt lat="43.59995" lon="6.66845">
        <ele>273.73</ele>
        <time>2019-10-08T11:39:13Z</time>
      </trkpt>
      <trkpt lat="43.59981" lon="6.66848">
        <ele>273.77</ele>
        <time>2019-10-08T11:39:25Z</time>
      </trkpt>
      <trkpt lat="43.59979" lon="6.66849">
        <ele>273.79</ele>
        <time>2019-10-08T11:39:27Z</time>
      </trkpt>
      <trkpt lat="43.59966" lon="6.66857">
        <ele>274.08</ele>
        <time>2019-10-08T11:39:40Z</time>
      </trkpt>
      <trkpt lat="43.59949" lon="6.66863">
        <ele>274.21</ele>
        <time>2019-10-08T11:39:54Z</time>
      </trkpt>
      <trkpt lat="43.59946" lon="6.66863">
        <ele>274.24</ele>
        <time>2019-10-08T11:39:56Z</time>
      </trkpt>
      <trkpt lat="43.59933" lon="6.66875">
        <ele>274.26</ele>
        <time>2019-10-08T11:40:10Z</time>
      </trkpt>
      <trkpt lat="43.59917" lon="6.66883">
        <ele>274.2</ele>
        <time>2019-10-08T11:40:27Z</time>
      </trkpt>
      <trkpt lat="43.5991" lon="6.66884">
        <ele>274.24</ele>
        <time>2019-10-08T11:40:32Z</time>
      </trkpt>
      <trkpt lat="43.59892" lon="6.66884">
        <ele>273.9</ele>
        <time>2019-10-08T11:40:46Z</time>
      </trkpt>
      <trkpt lat="43.59872" lon="6.6688">
        <ele>272.98</ele>
        <time>2019-10-08T11:41:00Z</time>
      </trkpt>
      <trkpt lat="43.59858" lon="6.6688">
        <ele>271.99</ele>
        <time>2019-10-08T11:41:12Z</time>
      </trkpt>
      <trkpt lat="43.59844" lon="6.66881">
        <ele>271.51</ele>
        <time>2019-10-08T11:41:24Z</time>
      </trkpt>
      <trkpt lat="43.59831" lon="6.66882">
        <ele>271.13</ele>
        <time>2019-10-08T11:41:34Z</time>
      </trkpt>
      <trkpt lat="43.59814" lon="6.66882">
        <ele>270.53</ele>
        <time>2019-10-08T11:41:48Z</time>
      </trkpt>
      <trkpt lat="43.59799" lon="6.6689">
        <ele>270.39</ele>
        <time>2019-10-08T11:42:01Z</time>
      </trkpt>
      <trkpt lat="43.59782" lon="6.66892">
        <ele>270.34</ele>
        <time>2019-10-08T11:42:16Z</time>
      </trkpt>
      <trkpt lat="43.5976" lon="6.66893">
        <ele>269.7</ele>
        <time>2019-10-08T11:42:34Z</time>
      </trkpt>
      <trkpt lat="43.59751" lon="6.66891">
        <ele>269.3</ele>
        <time>2019-10-08T11:42:43Z</time>
      </trkpt>
      <trkpt lat="43.59736" lon="6.66893">
        <ele>269.02</ele>
        <time>2019-10-08T11:42:55Z</time>
      </trkpt>
      <trkpt lat="43.59715" lon="6.66895">
        <ele>269.21</ele>
        <time>2019-10-08T11:43:09Z</time>
      </trkpt>
      <trkpt lat="43.59704" lon="6.66896">
        <ele>269.22</ele>
        <time>2019-10-08T11:43:20Z</time>
      </trkpt>
      <trkpt lat="43.59696" lon="6.66899">
        <ele>269.51</ele>
        <time>2019-10-08T11:43:26Z</time>
      </trkpt>
      <trkpt lat="43.59682" lon="6.66904">
        <ele>270.07</ele>
        <time>2019-10-08T11:43:37Z</time>
      </trkpt>
      <trkpt lat="43.59662" lon="6.66911">
        <ele>269.52</ele>
        <time>2019-10-08T11:43:54Z</time>
      </trkpt>
      <trkpt lat="43.59655" lon="6.66915">
        <ele>269.61</ele>
        <time>2019-10-08T11:43:59Z</time>
      </trkpt>
      <trkpt lat="43.59646" lon="6.66916">
        <ele>269.56</ele>
        <time>2019-10-08T11:44:06Z</time>
      </trkpt>
      <trkpt lat="43.5963" lon="6.6692">
        <ele>269.06</ele>
        <time>2019-10-08T11:44:19Z</time>
      </trkpt>
      <trkpt lat="43.59615" lon="6.66929">
        <ele>268.64</ele>
        <time>2019-10-08T11:44:32Z</time>
      </trkpt>
      <trkpt lat="43.59599" lon="6.6693">
        <ele>267.9</ele>
        <time>2019-10-08T11:44:45Z</time>
      </trkpt>
      <trkpt lat="43.59583" lon="6.66933">
        <ele>267.25</ele>
        <time>2019-10-08T11:44:57Z</time>
      </trkpt>
      <trkpt lat="43.5958" lon="6.66934">
        <ele>267.1</ele>
        <time>2019-10-08T11:44:59Z</time>
      </trkpt>
      <trkpt lat="43.5957" lon="6.66938">
        <ele>266.75</ele>
        <time>2019-10-08T11:45:06Z</time>
      </trkpt>
      <trkpt lat="43.59551" lon="6.66944">
        <ele>266.01</ele>
        <time>2019-10-08T11:45:21Z</time>
      </trkpt>
      <trkpt lat="43.59533" lon="6.66946">
        <ele>265.43</ele>
        <time>2019-10-08T11:45:35Z</time>
      </trkpt>
      <trkpt lat="43.59515" lon="6.66952">
        <ele>264.57</ele>
        <time>2019-10-08T11:45:48Z</time>
      </trkpt>
      <trkpt lat="43.59502" lon="6.66951">
        <ele>263.66</ele>
        <time>2019-10-08T11:46:01Z</time>
      </trkpt>
      <trkpt lat="43.59488" lon="6.66951">
        <ele>263.62</ele>
        <time>2019-10-08T11:46:12Z</time>
      </trkpt>
      <trkpt lat="43.59485" lon="6.6695">
        <ele>263.62</ele>
        <time>2019-10-08T11:46:14Z</time>
      </trkpt>
      <trkpt lat="43.5947" lon="6.66952">
        <ele>263.86</ele>
        <time>2019-10-08T11:46:26Z</time>
      </trkpt>
      <trkpt lat="43.59452" lon="6.66951">
        <ele>264.4</ele>
        <time>2019-10-08T11:46:38Z</time>
      </trkpt>
      <trkpt lat="43.59438" lon="6.66952">
        <ele>264.75</ele>
        <time>2019-10-08T11:46:50Z</time>
      </trkpt>
      <trkpt lat="43.59422" lon="6.66947">
        <ele>265.42</ele>
        <time>2019-10-08T11:47:03Z</time>
      </trkpt>
      <trkpt lat="43.59415" lon="6.66947">
        <ele>265.28</ele>
        <time>2019-10-08T11:47:17Z</time>
      </trkpt>
      <trkpt lat="43.5941" lon="6.66949">
        <ele>265.23</ele>
        <time>2019-10-08T11:47:21Z</time>
      </trkpt>
      <trkpt lat="43.59406" lon="6.66949">
        <ele>265.29</ele>
        <time>2019-10-08T11:47:33Z</time>
      </trkpt>
      <trkpt lat="43.59414" lon="6.66951">
        <ele>265.4</ele>
        <time>2019-10-08T11:47:52Z</time>
      </trkpt>
      <trkpt lat="43.59425" lon="6.6695">
        <ele>265.71</ele>
        <time>2019-10-08T11:48:09Z</time>
      </trkpt>
      <trkpt lat="43.59444" lon="6.6695">
        <ele>265.56</ele>
        <time>2019-10-08T11:48:27Z</time>
      </trkpt>
      <trkpt lat="43.5945" lon="6.66944">
        <ele>265.15</ele>
        <time>2019-10-08T11:48:41Z</time>
      </trkpt>
      <trkpt lat="43.59448" lon="6.66943">
        <ele>264.93</ele>
        <time>2019-10-08T11:49:02Z</time>
      </trkpt>
      <trkpt lat="43.59447" lon="6.66943">
        <ele>264.73</ele>
        <time>2019-10-08T11:49:28Z</time>
      </trkpt>
      <trkpt lat="43.59447" lon="6.66942">
        <ele>264.8</ele>
        <time>2019-10-08T11:49:51Z</time>
      </trkpt>
      <trkpt lat="43.59448" lon="6.66937">
        <ele>264.72</ele>
        <time>2019-10-08T11:50:10Z</time>
      </trkpt>
      <trkpt lat="43.59448" lon="6.6693">
        <ele>264.17</ele>
        <time>2019-10-08T11:50:24Z</time>
      </trkpt>
      <trkpt lat="43.59447" lon="6.6691">
        <ele>263.02</ele>
        <time>2019-10-08T11:50:41Z</time>
      </trkpt>
      <trkpt lat="43.5945" lon="6.66888">
        <ele>262.03</ele>
        <time>2019-10-08T11:50:55Z</time>
      </trkpt>
      <trkpt lat="43.59454" lon="6.66866">
        <ele>259.85</ele>
        <time>2019-10-08T11:51:12Z</time>
      </trkpt>
      <trkpt lat="43.59454" lon="6.66862">
        <ele>259.6</ele>
        <time>2019-10-08T11:51:14Z</time>
      </trkpt>
      <trkpt lat="43.59458" lon="6.66837">
        <ele>257.61</ele>
        <time>2019-10-08T11:51:31Z</time>
      </trkpt>
      <trkpt lat="43.59462" lon="6.66803">
        <ele>256.37</ele>
        <time>2019-10-08T11:51:50Z</time>
      </trkpt>
      <trkpt lat="43.59464" lon="6.66782">
        <ele>255.56</ele>
        <time>2019-10-08T11:52:03Z</time>
      </trkpt>
      <trkpt lat="43.59468" lon="6.66764">
        <ele>254.33</ele>
        <time>2019-10-08T11:52:14Z</time>
      </trkpt>
      <trkpt lat="43.59478" lon="6.66746">
        <ele>252.22</ele>
        <time>2019-10-08T11:52:29Z</time>
      </trkpt>
      <trkpt lat="43.59485" lon="6.66724">
        <ele>249.61</ele>
        <time>2019-10-08T11:52:45Z</time>
      </trkpt>
      <trkpt lat="43.59494" lon="6.66699">
        <ele>246.72</ele>
        <time>2019-10-08T11:53:02Z</time>
      </trkpt>
      <trkpt lat="43.59501" lon="6.66673">
        <ele>243.83</ele>
        <time>2019-10-08T11:53:20Z</time>
      </trkpt>
      <trkpt lat="43.59517" lon="6.66653">
        <ele>240.75</ele>
        <time>2019-10-08T11:53:38Z</time>
      </trkpt>
      <trkpt lat="43.59528" lon="6.66633">
        <ele>237.85</ele>
        <time>2019-10-08T11:53:52Z</time>
      </trkpt>
      <trkpt lat="43.59532" lon="6.66618">
        <ele>235.46</ele>
        <time>2019-10-08T11:54:05Z</time>
      </trkpt>
      <trkpt lat="43.59538" lon="6.66603">
        <ele>233.18</ele>
        <time>2019-10-08T11:54:16Z</time>
      </trkpt>
      <trkpt lat="43.59543" lon="6.66578">
        <ele>230.6</ele>
        <time>2019-10-08T11:54:30Z</time>
      </trkpt>
      <trkpt lat="43.59545" lon="6.66555">
        <ele>230.59</ele>
        <time>2019-10-08T11:54:45Z</time>
      </trkpt>
      <trkpt lat="43.5955" lon="6.66536">
        <ele>232.22</ele>
        <time>2019-10-08T11:54:58Z</time>
      </trkpt>
      <trkpt lat="43.59551" lon="6.6652">
        <ele>233.88</ele>
        <time>2019-10-08T11:55:09Z</time>
      </trkpt>
      <trkpt lat="43.59554" lon="6.66499">
        <ele>236.36</ele>
        <time>2019-10-08T11:55:27Z</time>
      </trkpt>
      <trkpt lat="43.59552" lon="6.66475">
        <ele>237.93</ele>
        <time>2019-10-08T11:55:44Z</time>
      </trkpt>
      <trkpt lat="43.59553" lon="6.66453">
        <ele>239.32</ele>
        <time>2019-10-08T11:56:00Z</time>
      </trkpt>
      <trkpt lat="43.5956" lon="6.66429">
        <ele>240.61</ele>
        <time>2019-10-08T11:56:18Z</time>
      </trkpt>
      <trkpt lat="43.59566" lon="6.66409">
        <ele>242.04</ele>
        <time>2019-10-08T11:56:35Z</time>
      </trkpt>
      <trkpt lat="43.59574" lon="6.66384">
        <ele>243.39</ele>
        <time>2019-10-08T11:56:54Z</time>
      </trkpt>
      <trkpt lat="43.59577" lon="6.66377">
        <ele>243.63</ele>
        <time>2019-10-08T11:56:59Z</time>
      </trkpt>
      <trkpt lat="43.59585" lon="6.66354">
        <ele>244.43</ele>
        <time>2019-10-08T11:57:17Z</time>
      </trkpt>
      <trkpt lat="43.59592" lon="6.66342">
        <ele>244.89</ele>
        <time>2019-10-08T11:57:34Z</time>
      </trkpt>
      <trkpt lat="43.59598" lon="6.66328">
        <ele>245.93</ele>
        <time>2019-10-08T11:57:48Z</time>
      </trkpt>
      <trkpt lat="43.59606" lon="6.66307">
        <ele>246.23</ele>
        <time>2019-10-08T11:58:04Z</time>
      </trkpt>
      <trkpt lat="43.59604" lon="6.66288">
        <ele>246.54</ele>
        <time>2019-10-08T11:58:16Z</time>
      </trkpt>
      <trkpt lat="43.59603" lon="6.66263">
        <ele>246.47</ele>
        <time>2019-10-08T11:58:34Z</time>
      </trkpt>
      <trkpt lat="43.59602" lon="6.66236">
        <ele>246.52</ele>
        <time>2019-10-08T11:58:54Z</time>
      </trkpt>
      <trkpt lat="43.59602" lon="6.66231">
        <ele>246.48</ele>
        <time>2019-10-08T11:58:57Z</time>
      </trkpt>
      <trkpt lat="43.59601" lon="6.66212">
        <ele>246.3</ele>
        <time>2019-10-08T11:59:09Z</time>
      </trkpt>
      <trkpt lat="43.59591" lon="6.66196">
        <ele>245.98</ele>
        <time>2019-10-08T11:59:23Z</time>
      </trkpt>
      <trkpt lat="43.59569" lon="6.66182">
        <ele>245.77</ele>
        <time>2019-10-08T11:59:40Z</time>
      </trkpt>
      <trkpt lat="43.59553" lon="6.66169">
        <ele>245.67</ele>
        <time>2019-10-08T11:59:57Z</time>
      </trkpt>
      <trkpt lat="43.59539" lon="6.66155">
        <ele>245.94</ele>
        <time>2019-10-08T12:00:11Z</time>
      </trkpt>
      <trkpt lat="43.59525" lon="6.66145">
        <ele>246.73</ele>
        <time>2019-10-08T12:00:25Z</time>
      </trkpt>
      <trkpt lat="43.59512" lon="6.66127">
        <ele>247.5</ele>
        <time>2019-10-08T12:00:42Z</time>
      </trkpt>
      <trkpt lat="43.59512" lon="6.66113">
        <ele>247.3</ele>
        <time>2019-10-08T12:00:52Z</time>
      </trkpt>
      <trkpt lat="43.59524" lon="6.66099">
        <ele>245.97</ele>
        <time>2019-10-08T12:01:07Z</time>
      </trkpt>
      <trkpt lat="43.59525" lon="6.66098">
        <ele>245.84</ele>
        <time>2019-10-08T12:01:08Z</time>
      </trkpt>
      <trkpt lat="43.5954" lon="6.6609">
        <ele>244.19</ele>
        <time>2019-10-08T12:01:22Z</time>
      </trkpt>
      <trkpt lat="43.59556" lon="6.66081">
        <ele>241.31</ele>
        <time>2019-10-08T12:01:40Z</time>
      </trkpt>
      <trkpt lat="43.59573" lon="6.66073">
        <ele>239.09</ele>
        <time>2019-10-08T12:01:56Z</time>
      </trkpt>
      <trkpt lat="43.59583" lon="6.66067">
        <ele>237.19</ele>
        <time>2019-10-08T12:02:08Z</time>
      </trkpt>
      <trkpt lat="43.59589" lon="6.66062">
        <ele>236.08</ele>
        <time>2019-10-08T12:02:14Z</time>
      </trkpt>
      <trkpt lat="43.59591" lon="6.66055">
        <ele>235.78</ele>
        <time>2019-10-08T12:02:18Z</time>
      </trkpt>
      <trkpt lat="43.59593" lon="6.66034">
        <ele>236.3</ele>
        <time>2019-10-08T12:02:32Z</time>
      </trkpt>
      <trkpt lat="43.59593" lon="6.66017">
        <ele>237.93</ele>
        <time>2019-10-08T12:02:47Z</time>
      </trkpt>
      <trkpt lat="43.59597" lon="6.65991">
        <ele>239.85</ele>
        <time>2019-10-08T12:03:07Z</time>
      </trkpt>
      <trkpt lat="43.5961" lon="6.65975">
        <ele>241.03</ele>
        <time>2019-10-08T12:03:25Z</time>
      </trkpt>
      <trkpt lat="43.59621" lon="6.65962">
        <ele>241</ele>
        <time>2019-10-08T12:03:38Z</time>
      </trkpt>
      <trkpt lat="43.59633" lon="6.65947">
        <ele>239.1</ele>
        <time>2019-10-08T12:03:55Z</time>
      </trkpt>
      <trkpt lat="43.59635" lon="6.65946">
        <ele>238.75</ele>
        <time>2019-10-08T12:03:57Z</time>
      </trkpt>
      <trkpt lat="43.59653" lon="6.65927">
        <ele>236.42</ele>
        <time>2019-10-08T12:04:16Z</time>
      </trkpt>
      <trkpt lat="43.59654" lon="6.65926">
        <ele>236.35</ele>
        <time>2019-10-08T12:04:17Z</time>
      </trkpt>
      <trkpt lat="43.59656" lon="6.6591">
        <ele>235.77</ele>
        <time>2019-10-08T12:04:29Z</time>
      </trkpt>
      <trkpt lat="43.59647" lon="6.65892">
        <ele>236.36</ele>
        <time>2019-10-08T12:04:43Z</time>
      </trkpt>
      <trkpt lat="43.59639" lon="6.65868">
        <ele>237.49</ele>
        <time>2019-10-08T12:05:03Z</time>
      </trkpt>
      <trkpt lat="43.59637" lon="6.65862">
        <ele>237.52</ele>
        <time>2019-10-08T12:05:08Z</time>
      </trkpt>
      <trkpt lat="43.59638" lon="6.65838">
        <ele>237.4</ele>
        <time>2019-10-08T12:05:22Z</time>
      </trkpt>
      <trkpt lat="43.59644" lon="6.65821">
        <ele>236.96</ele>
        <time>2019-10-08T12:05:35Z</time>
      </trkpt>
      <trkpt lat="43.59652" lon="6.65795">
        <ele>236.16</ele>
        <time>2019-10-08T12:05:53Z</time>
      </trkpt>
      <trkpt lat="43.59657" lon="6.65776">
        <ele>235.47</ele>
        <time>2019-10-08T12:06:07Z</time>
      </trkpt>
      <trkpt lat="43.59661" lon="6.65768">
        <ele>235.3</ele>
        <time>2019-10-08T12:06:13Z</time>
      </trkpt>
      <trkpt lat="43.59668" lon="6.65745">
        <ele>234.58</ele>
        <time>2019-10-08T12:06:28Z</time>
      </trkpt>
      <trkpt lat="43.59675" lon="6.65723">
        <ele>234.19</ele>
        <time>2019-10-08T12:06:43Z</time>
      </trkpt>
      <trkpt lat="43.59682" lon="6.65702">
        <ele>233.98</ele>
        <time>2019-10-08T12:06:58Z</time>
      </trkpt>
      <trkpt lat="43.59688" lon="6.6568">
        <ele>233.48</ele>
        <time>2019-10-08T12:07:14Z</time>
      </trkpt>
      <trkpt lat="43.59697" lon="6.65657">
        <ele>233.27</ele>
        <time>2019-10-08T12:07:30Z</time>
      </trkpt>
      <trkpt lat="43.59704" lon="6.65641">
        <ele>233.33</ele>
        <time>2019-10-08T12:07:41Z</time>
      </trkpt>
      <trkpt lat="43.59706" lon="6.65635">
        <ele>233.36</ele>
        <time>2019-10-08T12:07:45Z</time>
      </trkpt>
      <trkpt lat="43.59712" lon="6.65624">
        <ele>233.59</ele>
        <time>2019-10-08T12:07:54Z</time>
      </trkpt>
      <trkpt lat="43.5972" lon="6.6561">
        <ele>233.88</ele>
        <time>2019-10-08T12:08:09Z</time>
      </trkpt>
      <trkpt lat="43.59729" lon="6.65597">
        <ele>235.5</ele>
        <time>2019-10-08T12:08:26Z</time>
      </trkpt>
      <trkpt lat="43.5973" lon="6.65591">
        <ele>236.06</ele>
        <time>2019-10-08T12:08:48Z</time>
      </trkpt>
      <trkpt lat="43.59731" lon="6.65585">
        <ele>236.29</ele>
        <time>2019-10-08T12:09:09Z</time>
      </trkpt>
      <trkpt lat="43.5973" lon="6.65589">
        <ele>236.49</ele>
        <time>2019-10-08T12:09:27Z</time>
      </trkpt>
      <trkpt lat="43.59729" lon="6.65588">
        <ele>236.38</ele>
        <time>2019-10-08T12:09:46Z</time>
      </trkpt>
      <trkpt lat="43.59728" lon="6.65581">
        <ele>236.71</ele>
        <time>2019-10-08T12:10:11Z</time>
      </trkpt>
      <trkpt lat="43.59731" lon="6.65575">
        <ele>236.74</ele>
        <time>2019-10-08T12:10:31Z</time>
      </trkpt>
      <trkpt lat="43.59736" lon="6.65583">
        <ele>236.74</ele>
        <time>2019-10-08T12:10:53Z</time>
      </trkpt>
      <trkpt lat="43.59735" lon="6.65585">
        <ele>236.74</ele>
        <time>2019-10-08T12:11:14Z</time>
      </trkpt>
      <trkpt lat="43.59733" lon="6.65587">
        <ele>236.74</ele>
        <time>2019-10-08T12:11:41Z</time>
      </trkpt>
      <trkpt lat="43.59735" lon="6.65588">
        <ele>236.74</ele>
        <time>2019-10-08T12:12:27Z</time>
      </trkpt>
      <trkpt lat="43.59736" lon="6.65586">
        <ele>236.74</ele>
        <time>2019-10-08T12:12:49Z</time>
      </trkpt>
      <trkpt lat="43.59735" lon="6.65584">
        <ele>236.74</ele>
        <time>2019-10-08T12:13:11Z</time>
      </trkpt>
      <trkpt lat="43.59735" lon="6.65584">
        <ele>236.74</ele>
        <time>2019-10-08T12:13:34Z</time>
      </trkpt>
      <trkpt lat="43.59733" lon="6.65594">
        <ele>236.74</ele>
        <time>2019-10-08T12:14:00Z</time>
      </trkpt>
      <trkpt lat="43.59731" lon="6.65595">
        <ele>236.74</ele>
        <time>2019-10-08T12:14:26Z</time>
      </trkpt>
      <trkpt lat="43.5973" lon="6.65596">
        <ele>236.74</ele>
        <time>2019-10-08T12:14:52Z</time>
      </trkpt>
      <trkpt lat="43.59732" lon="6.65596">
        <ele>236.74</ele>
        <time>2019-10-08T12:15:16Z</time>
      </trkpt>
      <trkpt lat="43.59731" lon="6.65595">
        <ele>236.74</ele>
        <time>2019-10-08T12:15:39Z</time>
      </trkpt>
      <trkpt lat="43.59733" lon="6.65592">
        <ele>236.74</ele>
        <time>2019-10-08T12:16:03Z</time>
      </trkpt>
      <trkpt lat="43.59734" lon="6.65585">
        <ele>236.74</ele>
        <time>2019-10-08T12:16:27Z</time>
      </trkpt>
      <trkpt lat="43.59735" lon="6.65588">
        <ele>236.74</ele>
        <time>2019-10-08T12:16:53Z</time>
      </trkpt>
      <trkpt lat="43.59735" lon="6.65586">
        <ele>236.74</ele>
        <time>2019-10-08T12:17:20Z</time>
      </trkpt>
      <trkpt lat="43.59732" lon="6.65576">
        <ele>236.74</ele>
        <time>2019-10-08T12:17:39Z</time>
      </trkpt>
      <trkpt lat="43.5974" lon="6.65565">
        <ele>236.74</ele>
        <time>2019-10-08T12:17:58Z</time>
      </trkpt>
      <trkpt lat="43.59744" lon="6.6555">
        <ele>236.74</ele>
        <time>2019-10-08T12:18:14Z</time>
      </trkpt>
      <trkpt lat="43.59749" lon="6.65544">
        <ele>241.52</ele>
        <time>2019-10-08T12:18:22Z</time>
      </trkpt>
      <trkpt lat="43.59751" lon="6.65543">
        <ele>243.34</ele>
        <time>2019-10-08T12:18:25Z</time>
      </trkpt>
      <trkpt lat="43.59754" lon="6.6554">
        <ele>243.86</ele>
        <time>2019-10-08T12:18:29Z</time>
      </trkpt>
      <trkpt lat="43.59767" lon="6.65534">
        <ele>244.19</ele>
        <time>2019-10-08T12:18:44Z</time>
      </trkpt>
      <trkpt lat="43.59771" lon="6.65532">
        <ele>244.24</ele>
        <time>2019-10-08T12:18:50Z</time>
      </trkpt>
      <trkpt lat="43.59787" lon="6.65522">
        <ele>244.25</ele>
        <time>2019-10-08T12:19:05Z</time>
      </trkpt>
      <trkpt lat="43.59803" lon="6.65509">
        <ele>244.38</ele>
        <time>2019-10-08T12:19:22Z</time>
      </trkpt>
      <trkpt lat="43.59812" lon="6.65498">
        <ele>244.58</ele>
        <time>2019-10-08T12:19:34Z</time>
      </trkpt>
      <trkpt lat="43.59826" lon="6.65485">
        <ele>245.26</ele>
        <time>2019-10-08T12:19:51Z</time>
      </trkpt>
      <trkpt lat="43.59832" lon="6.65481">
        <ele>245.46</ele>
        <time>2019-10-08T12:19:57Z</time>
      </trkpt>
      <trkpt lat="43.59849" lon="6.65467">
        <ele>245.5</ele>
        <time>2019-10-08T12:20:10Z</time>
      </trkpt>
      <trkpt lat="43.59861" lon="6.65456">
        <ele>245.18</ele>
        <time>2019-10-08T12:20:23Z</time>
      </trkpt>
      <trkpt lat="43.59873" lon="6.65446">
        <ele>245.18</ele>
        <time>2019-10-08T12:20:36Z</time>
      </trkpt>
      <trkpt lat="43.59881" lon="6.65434">
        <ele>245.06</ele>
        <time>2019-10-08T12:20:48Z</time>
      </trkpt>
      <trkpt lat="43.59892" lon="6.65419">
        <ele>244.9</ele>
        <time>2019-10-08T12:21:01Z</time>
      </trkpt>
      <trkpt lat="43.59906" lon="6.65406">
        <ele>244.26</ele>
        <time>2019-10-08T12:21:13Z</time>
      </trkpt>
      <trkpt lat="43.59915" lon="6.65395">
        <ele>243.21</ele>
        <time>2019-10-08T12:21:24Z</time>
      </trkpt>
      <trkpt lat="43.59928" lon="6.6538">
        <ele>242.85</ele>
        <time>2019-10-08T12:21:39Z</time>
      </trkpt>
      <trkpt lat="43.59941" lon="6.65365">
        <ele>242.65</ele>
        <time>2019-10-08T12:21:53Z</time>
      </trkpt>
      <trkpt lat="43.59954" lon="6.6535">
        <ele>243.36</ele>
        <time>2019-10-08T12:22:11Z</time>
      </trkpt>
      <trkpt lat="43.59955" lon="6.6535">
        <ele>243.4</ele>
        <time>2019-10-08T12:22:12Z</time>
      </trkpt>
      <trkpt lat="43.59968" lon="6.65341">
        <ele>244.31</ele>
        <time>2019-10-08T12:22:28Z</time>
      </trkpt>
      <trkpt lat="43.59979" lon="6.65334">
        <ele>244.9</ele>
        <time>2019-10-08T12:22:39Z</time>
      </trkpt>
      <trkpt lat="43.59993" lon="6.65327">
        <ele>245.46</ele>
        <time>2019-10-08T12:22:55Z</time>
      </trkpt>
      <trkpt lat="43.60008" lon="6.65317">
        <ele>246.07</ele>
        <time>2019-10-08T12:23:12Z</time>
      </trkpt>
      <trkpt lat="43.60024" lon="6.65307">
        <ele>247.78</ele>
        <time>2019-10-08T12:23:32Z</time>
      </trkpt>
      <trkpt lat="43.60038" lon="6.653">
        <ele>249.59</ele>
        <time>2019-10-08T12:23:50Z</time>
      </trkpt>
      <trkpt lat="43.60053" lon="6.65283">
        <ele>251</ele>
        <time>2019-10-08T12:24:07Z</time>
      </trkpt>
      <trkpt lat="43.60069" lon="6.65263">
        <ele>253.4</ele>
        <time>2019-10-08T12:24:29Z</time>
      </trkpt>
      <trkpt lat="43.60083" lon="6.65254">
        <ele>255.93</ele>
        <time>2019-10-08T12:24:47Z</time>
      </trkpt>
      <trkpt lat="43.60089" lon="6.65242">
        <ele>257.01</ele>
        <time>2019-10-08T12:25:03Z</time>
      </trkpt>
      <trkpt lat="43.601" lon="6.65236">
        <ele>256.63</ele>
        <time>2019-10-08T12:25:19Z</time>
      </trkpt>
      <trkpt lat="43.60112" lon="6.65235">
        <ele>257.39</ele>
        <time>2019-10-08T12:25:32Z</time>
      </trkpt>
      <trkpt lat="43.60125" lon="6.65229">
        <ele>258.39</ele>
        <time>2019-10-08T12:25:46Z</time>
      </trkpt>
      <trkpt lat="43.60139" lon="6.65222">
        <ele>259.77</ele>
        <time>2019-10-08T12:26:02Z</time>
      </trkpt>
      <trkpt lat="43.60154" lon="6.65217">
        <ele>260.85</ele>
        <time>2019-10-08T12:26:18Z</time>
      </trkpt>
      <trkpt lat="43.60166" lon="6.65212">
        <ele>261.66</ele>
        <time>2019-10-08T12:26:30Z</time>
      </trkpt>
      <trkpt lat="43.60179" lon="6.65207">
        <ele>262.5</ele>
        <time>2019-10-08T12:26:43Z</time>
      </trkpt>
      <trkpt lat="43.60194" lon="6.65204">
        <ele>263.38</ele>
        <time>2019-10-08T12:26:58Z</time>
      </trkpt>
      <trkpt lat="43.60204" lon="6.65204">
        <ele>264.2</ele>
        <time>2019-10-08T12:27:11Z</time>
      </trkpt>
      <trkpt lat="43.60221" lon="6.65206">
        <ele>264.75</ele>
        <time>2019-10-08T12:27:27Z</time>
      </trkpt>
      <trkpt lat="43.60235" lon="6.65206">
        <ele>265.3</ele>
        <time>2019-10-08T12:27:40Z</time>
      </trkpt>
      <trkpt lat="43.60246" lon="6.65207">
        <ele>265.83</ele>
        <time>2019-10-08T12:27:52Z</time>
      </trkpt>
      <trkpt lat="43.60256" lon="6.65208">
        <ele>266.74</ele>
        <time>2019-10-08T12:28:07Z</time>
      </trkpt>
      <trkpt lat="43.60264" lon="6.65213">
        <ele>267.59</ele>
        <time>2019-10-08T12:28:23Z</time>
      </trkpt>
      <trkpt lat="43.60262" lon="6.65206">
        <ele>267.86</ele>
        <time>2019-10-08T12:28:41Z</time>
      </trkpt>
      <trkpt lat="43.60249" lon="6.65195">
        <ele>266.68</ele>
        <time>2019-10-08T12:29:00Z</time>
      </trkpt>
      <trkpt lat="43.60251" lon="6.65194">
        <ele>266.52</ele>
        <time>2019-10-08T12:29:20Z</time>
      </trkpt>
      <trkpt lat="43.60257" lon="6.65194">
        <ele>266.52</ele>
        <time>2019-10-08T12:29:39Z</time>
      </trkpt>
      <trkpt lat="43.60264" lon="6.65196">
        <ele>266.52</ele>
        <time>2019-10-08T12:29:55Z</time>
      </trkpt>
      <trkpt lat="43.60267" lon="6.65196">
        <ele>266.52</ele>
        <time>2019-10-08T12:30:11Z</time>
      </trkpt>
      <trkpt lat="43.60268" lon="6.65204">
        <ele>266.52</ele>
        <time>2019-10-08T12:30:29Z</time>
      </trkpt>
      <trkpt lat="43.60267" lon="6.65209">
        <ele>266.52</ele>
        <time>2019-10-08T12:30:50Z</time>
      </trkpt>
      <trkpt lat="43.60272" lon="6.65212">
        <ele>266.52</ele>
        <time>2019-10-08T12:31:14Z</time>
      </trkpt>
      <trkpt lat="43.60274" lon="6.65209">
        <ele>266.52</ele>
        <time>2019-10-08T12:31:34Z</time>
      </trkpt>
      <trkpt lat="43.60271" lon="6.65204">
        <ele>266.52</ele>
        <time>2019-10-08T12:31:54Z</time>
      </trkpt>
      <trkpt lat="43.60268" lon="6.65201">
        <ele>266.52</ele>
        <time>2019-10-08T12:32:16Z</time>
      </trkpt>
      <trkpt lat="43.60272" lon="6.65204">
        <ele>266.52</ele>
        <time>2019-10-08T12:32:39Z</time>
      </trkpt>
      <trkpt lat="43.60271" lon="6.65207">
        <ele>266.52</ele>
        <time>2019-10-08T12:33:02Z</time>
      </trkpt>
      <trkpt lat="43.60271" lon="6.6521">
        <ele>266.52</ele>
        <time>2019-10-08T12:33:27Z</time>
      </trkpt>
      <trkpt lat="43.60267" lon="6.65209">
        <ele>266.52</ele>
        <time>2019-10-08T12:33:48Z</time>
      </trkpt>
      <trkpt lat="43.60264" lon="6.6521">
        <ele>266.52</ele>
        <time>2019-10-08T12:34:12Z</time>
      </trkpt>
      <trkpt lat="43.60264" lon="6.65212">
        <ele>266.52</ele>
        <time>2019-10-08T12:34:39Z</time>
      </trkpt>
      <trkpt lat="43.60266" lon="6.65216">
        <ele>266.52</ele>
        <time>2019-10-08T12:35:03Z</time>
      </trkpt>
      <trkpt lat="43.6026" lon="6.65204">
        <ele>266.52</ele>
        <time>2019-10-08T12:35:20Z</time>
      </trkpt>
      <trkpt lat="43.60243" lon="6.65201">
        <ele>266.52</ele>
        <time>2019-10-08T12:35:38Z</time>
      </trkpt>
      <trkpt lat="43.60236" lon="6.65201">
        <ele>266.16</ele>
        <time>2019-10-08T12:35:45Z</time>
      </trkpt>
      <trkpt lat="43.60218" lon="6.65197">
        <ele>264.84</ele>
        <time>2019-10-08T12:36:01Z</time>
      </trkpt>
      <trkpt lat="43.60202" lon="6.65195">
        <ele>264.45</ele>
        <time>2019-10-08T12:36:15Z</time>
      </trkpt>
      <trkpt lat="43.60186" lon="6.65198">
        <ele>263.77</ele>
        <time>2019-10-08T12:36:30Z</time>
      </trkpt>
      <trkpt lat="43.6017" lon="6.65205">
        <ele>262.5</ele>
        <time>2019-10-08T12:36:47Z</time>
      </trkpt>
      <trkpt lat="43.60153" lon="6.6521">
        <ele>261.48</ele>
        <time>2019-10-08T12:37:03Z</time>
      </trkpt>
      <trkpt lat="43.60135" lon="6.65215">
        <ele>260.56</ele>
        <time>2019-10-08T12:37:19Z</time>
      </trkpt>
      <trkpt lat="43.60135" lon="6.65215">
        <ele>260.48</ele>
        <time>2019-10-08T12:37:20Z</time>
      </trkpt>
      <trkpt lat="43.60132" lon="6.65221">
        <ele>259.72</ele>
        <time>2019-10-08T12:37:31Z</time>
      </trkpt>
      <trkpt lat="43.60131" lon="6.6522">
        <ele>259.7</ele>
        <time>2019-10-08T12:37:32Z</time>
      </trkpt>
      <trkpt lat="43.6012" lon="6.65223">
        <ele>259.08</ele>
        <time>2019-10-08T12:37:44Z</time>
      </trkpt>
      <trkpt lat="43.60105" lon="6.65227">
        <ele>257.83</ele>
        <time>2019-10-08T12:37:58Z</time>
      </trkpt>
      <trkpt lat="43.60097" lon="6.65224">
        <ele>256.65</ele>
        <time>2019-10-08T12:38:09Z</time>
      </trkpt>
      <trkpt lat="43.60095" lon="6.6521">
        <ele>255.65</ele>
        <time>2019-10-08T12:38:23Z</time>
      </trkpt>
      <trkpt lat="43.60097" lon="6.65206">
        <ele>255.43</ele>
        <time>2019-10-08T12:38:27Z</time>
      </trkpt>
      <trkpt lat="43.60104" lon="6.65183">
        <ele>254.05</ele>
        <time>2019-10-08T12:38:45Z</time>
      </trkpt>
      <trkpt lat="43.60105" lon="6.65157">
        <ele>253.16</ele>
        <time>2019-10-08T12:39:02Z</time>
      </trkpt>
      <trkpt lat="43.601" lon="6.65137">
        <ele>252.05</ele>
        <time>2019-10-08T12:39:16Z</time>
      </trkpt>
      <trkpt lat="43.60088" lon="6.65123">
        <ele>251.43</ele>
        <time>2019-10-08T12:39:29Z</time>
      </trkpt>
      <trkpt lat="43.60079" lon="6.65119">
        <ele>251.55</ele>
        <time>2019-10-08T12:39:38Z</time>
      </trkpt>
      <trkpt lat="43.60062" lon="6.65112">
        <ele>251.59</ele>
        <time>2019-10-08T12:39:53Z</time>
      </trkpt>
      <trkpt lat="43.60049" lon="6.65109">
        <ele>252.17</ele>
        <time>2019-10-08T12:40:05Z</time>
      </trkpt>
      <trkpt lat="43.60036" lon="6.65107">
        <ele>253.01</ele>
        <time>2019-10-08T12:40:19Z</time>
      </trkpt>
      <trkpt lat="43.60018" lon="6.65101">
        <ele>254.11</ele>
        <time>2019-10-08T12:40:38Z</time>
      </trkpt>
      <trkpt lat="43.6001" lon="6.65105">
        <ele>254.73</ele>
        <time>2019-10-08T12:40:51Z</time>
      </trkpt>
      <trkpt lat="43.60003" lon="6.65101">
        <ele>254.83</ele>
        <time>2019-10-08T12:41:07Z</time>
      </trkpt>
      <trkpt lat="43.59985" lon="6.65097">
        <ele>256.19</ele>
        <time>2019-10-08T12:41:23Z</time>
      </trkpt>
      <trkpt lat="43.59971" lon="6.65095">
        <ele>256.93</ele>
        <time>2019-10-08T12:41:37Z</time>
      </trkpt>
      <trkpt lat="43.59967" lon="6.65093">
        <ele>256.75</ele>
        <time>2019-10-08T12:41:41Z</time>
      </trkpt>
      <trkpt lat="43.59951" lon="6.65082">
        <ele>257.43</ele>
        <time>2019-10-08T12:41:55Z</time>
      </trkpt>
      <trkpt lat="43.59938" lon="6.65073">
        <ele>257.67</ele>
        <time>2019-10-08T12:42:07Z</time>
      </trkpt>
      <trkpt lat="43.59925" lon="6.65071">
        <ele>258.23</ele>
        <time>2019-10-08T12:42:19Z</time>
      </trkpt>
      <trkpt lat="43.59915" lon="6.65072">
        <ele>258.51</ele>
        <time>2019-10-08T12:42:27Z</time>
      </trkpt>
      <trkpt lat="43.59903" lon="6.65071">
        <ele>259.4</ele>
        <time>2019-10-08T12:42:40Z</time>
      </trkpt>
      <trkpt lat="43.59891" lon="6.6507">
        <ele>260.51</ele>
        <time>2019-10-08T12:42:53Z</time>
      </trkpt>
      <trkpt lat="43.59882" lon="6.65068">
        <ele>261.51</ele>
        <time>2019-10-08T12:43:04Z</time>
      </trkpt>
      <trkpt lat="43.59868" lon="6.65064">
        <ele>262.33</ele>
        <time>2019-10-08T12:43:17Z</time>
      </trkpt>
      <trkpt lat="43.59857" lon="6.65061">
        <ele>263.06</ele>
        <time>2019-10-08T12:43:29Z</time>
      </trkpt>
      <trkpt lat="43.59851" lon="6.65059">
        <ele>263.62</ele>
        <time>2019-10-08T12:43:36Z</time>
      </trkpt>
      <trkpt lat="43.59834" lon="6.65059">
        <ele>264.47</ele>
        <time>2019-10-08T12:43:50Z</time>
      </trkpt>
      <trkpt lat="43.59818" lon="6.65057">
        <ele>264.85</ele>
        <time>2019-10-08T12:44:04Z</time>
      </trkpt>
      <trkpt lat="43.59804" lon="6.65055">
        <ele>265.41</ele>
        <time>2019-10-08T12:44:18Z</time>
      </trkpt>
      <trkpt lat="43.59791" lon="6.65048">
        <ele>265.29</ele>
        <time>2019-10-08T12:44:31Z</time>
      </trkpt>
      <trkpt lat="43.59778" lon="6.65042">
        <ele>265.14</ele>
        <time>2019-10-08T12:44:42Z</time>
      </trkpt>
      <trkpt lat="43.59777" lon="6.65041">
        <ele>265.14</ele>
        <time>2019-10-08T12:44:44Z</time>
      </trkpt>
      <trkpt lat="43.5976" lon="6.65033">
        <ele>264.75</ele>
        <time>2019-10-08T12:45:00Z</time>
      </trkpt>
      <trkpt lat="43.59743" lon="6.65023">
        <ele>264.62</ele>
        <time>2019-10-08T12:45:15Z</time>
      </trkpt>
      <trkpt lat="43.59726" lon="6.65016">
        <ele>264.59</ele>
        <time>2019-10-08T12:45:29Z</time>
      </trkpt>
      <trkpt lat="43.5971" lon="6.65011">
        <ele>264.79</ele>
        <time>2019-10-08T12:45:43Z</time>
      </trkpt>
      <trkpt lat="43.59693" lon="6.64999">
        <ele>264.78</ele>
        <time>2019-10-08T12:45:58Z</time>
      </trkpt>
      <trkpt lat="43.5968" lon="6.64989">
        <ele>265</ele>
        <time>2019-10-08T12:46:10Z</time>
      </trkpt>
      <trkpt lat="43.59669" lon="6.64978">
        <ele>264.98</ele>
        <time>2019-10-08T12:46:22Z</time>
      </trkpt>
      <trkpt lat="43.59662" lon="6.64974">
        <ele>264.7</ele>
        <time>2019-10-08T12:46:29Z</time>
      </trkpt>
      <trkpt lat="43.59659" lon="6.64973">
        <ele>264.55</ele>
        <time>2019-10-08T12:46:32Z</time>
      </trkpt>
      <trkpt lat="43.59643" lon="6.6496">
        <ele>263.97</ele>
        <time>2019-10-08T12:46:46Z</time>
      </trkpt>
      <trkpt lat="43.59631" lon="6.64944">
        <ele>262.5</ele>
        <time>2019-10-08T12:47:02Z</time>
      </trkpt>
      <trkpt lat="43.59624" lon="6.64924">
        <ele>261.04</ele>
        <time>2019-10-08T12:47:17Z</time>
      </trkpt>
      <trkpt lat="43.59616" lon="6.64903">
        <ele>259.76</ele>
        <time>2019-10-08T12:47:31Z</time>
      </trkpt>
      <trkpt lat="43.59608" lon="6.6488">
        <ele>258.61</ele>
        <time>2019-10-08T12:47:46Z</time>
      </trkpt>
      <trkpt lat="43.59599" lon="6.64856">
        <ele>257.66</ele>
        <time>2019-10-08T12:48:02Z</time>
      </trkpt>
      <trkpt lat="43.59587" lon="6.64836">
        <ele>256.47</ele>
        <time>2019-10-08T12:48:18Z</time>
      </trkpt>
      <trkpt lat="43.59576" lon="6.64823">
        <ele>256.19</ele>
        <time>2019-10-08T12:48:33Z</time>
      </trkpt>
      <trkpt lat="43.59562" lon="6.64809">
        <ele>255.66</ele>
        <time>2019-10-08T12:48:49Z</time>
      </trkpt>
      <trkpt lat="43.59552" lon="6.64796">
        <ele>254.97</ele>
        <time>2019-10-08T12:49:03Z</time>
      </trkpt>
      <trkpt lat="43.59542" lon="6.64786">
        <ele>254.95</ele>
        <time>2019-10-08T12:49:17Z</time>
      </trkpt>
      <trkpt lat="43.5953" lon="6.6478">
        <ele>254.45</ele>
        <time>2019-10-08T12:49:31Z</time>
      </trkpt>
      <trkpt lat="43.59519" lon="6.64783">
        <ele>253.84</ele>
        <time>2019-10-08T12:49:43Z</time>
      </trkpt>
      <trkpt lat="43.59507" lon="6.64797">
        <ele>253.08</ele>
        <time>2019-10-08T12:49:57Z</time>
      </trkpt>
      <trkpt lat="43.59498" lon="6.64813">
        <ele>252.46</ele>
        <time>2019-10-08T12:50:10Z</time>
      </trkpt>
      <trkpt lat="43.59486" lon="6.64829">
        <ele>251.72</ele>
        <time>2019-10-08T12:50:26Z</time>
      </trkpt>
      <trkpt lat="43.59469" lon="6.64836">
        <ele>250.84</ele>
        <time>2019-10-08T12:50:43Z</time>
      </trkpt>
      <trkpt lat="43.59454" lon="6.64832">
        <ele>250.15</ele>
        <time>2019-10-08T12:50:56Z</time>
      </trkpt>
      <trkpt lat="43.5944" lon="6.64827">
        <ele>249</ele>
        <time>2019-10-08T12:51:11Z</time>
      </trkpt>
      <trkpt lat="43.59426" lon="6.6482">
        <ele>247.95</ele>
        <time>2019-10-08T12:51:26Z</time>
      </trkpt>
      <trkpt lat="43.59413" lon="6.6481">
        <ele>247.09</ele>
        <time>2019-10-08T12:51:39Z</time>
      </trkpt>
      <trkpt lat="43.59396" lon="6.64806">
        <ele>246.06</ele>
        <time>2019-10-08T12:51:55Z</time>
      </trkpt>
      <trkpt lat="43.59385" lon="6.648">
        <ele>245.19</ele>
        <time>2019-10-08T12:52:07Z</time>
      </trkpt>
      <trkpt lat="43.59367" lon="6.64788">
        <ele>244.17</ele>
        <time>2019-10-08T12:52:25Z</time>
      </trkpt>
      <trkpt lat="43.59355" lon="6.64781">
        <ele>243.4</ele>
        <time>2019-10-08T12:52:38Z</time>
      </trkpt>
      <trkpt lat="43.59339" lon="6.64773">
        <ele>242.59</ele>
        <time>2019-10-08T12:52:54Z</time>
      </trkpt>
      <trkpt lat="43.59324" lon="6.64766">
        <ele>242.08</ele>
        <time>2019-10-08T12:53:08Z</time>
      </trkpt>
      <trkpt lat="43.59312" lon="6.64763">
        <ele>242.26</ele>
        <time>2019-10-08T12:53:18Z</time>
      </trkpt>
      <trkpt lat="43.5931" lon="6.64762">
        <ele>242.29</ele>
        <time>2019-10-08T12:53:20Z</time>
      </trkpt>
      <trkpt lat="43.59295" lon="6.64758">
        <ele>241.9</ele>
        <time>2019-10-08T12:53:33Z</time>
      </trkpt>
      <trkpt lat="43.59279" lon="6.6475">
        <ele>241.2</ele>
        <time>2019-10-08T12:53:51Z</time>
      </trkpt>
      <trkpt lat="43.59259" lon="6.64747">
        <ele>240.12</ele>
        <time>2019-10-08T12:54:08Z</time>
      </trkpt>
      <trkpt lat="43.59244" lon="6.64743">
        <ele>239.08</ele>
        <time>2019-10-08T12:54:22Z</time>
      </trkpt>
      <trkpt lat="43.5923" lon="6.64736">
        <ele>237.69</ele>
        <time>2019-10-08T12:54:37Z</time>
      </trkpt>
      <trkpt lat="43.59218" lon="6.64732">
        <ele>236.72</ele>
        <time>2019-10-08T12:54:49Z</time>
      </trkpt>
      <trkpt lat="43.59205" lon="6.64727">
        <ele>235.64</ele>
        <time>2019-10-08T12:55:02Z</time>
      </trkpt>
      <trkpt lat="43.5919" lon="6.64717">
        <ele>234.57</ele>
        <time>2019-10-08T12:55:18Z</time>
      </trkpt>
      <trkpt lat="43.59177" lon="6.6471">
        <ele>233.7</ele>
        <time>2019-10-08T12:55:32Z</time>
      </trkpt>
      <trkpt lat="43.59161" lon="6.64701">
        <ele>232.48</ele>
        <time>2019-10-08T12:55:48Z</time>
      </trkpt>
      <trkpt lat="43.59149" lon="6.64695">
        <ele>231.3</ele>
        <time>2019-10-08T12:56:00Z</time>
      </trkpt>
      <trkpt lat="43.59146" lon="6.64693">
        <ele>231.1</ele>
        <time>2019-10-08T12:56:03Z</time>
      </trkpt>
      <trkpt lat="43.59137" lon="6.64687">
        <ele>230.25</ele>
        <time>2019-10-08T12:56:11Z</time>
      </trkpt>
      <trkpt lat="43.59122" lon="6.64683">
        <ele>228.7</ele>
        <time>2019-10-08T12:56:25Z</time>
      </trkpt>
      <trkpt lat="43.59117" lon="6.64681">
        <ele>228.08</ele>
        <time>2019-10-08T12:56:30Z</time>
      </trkpt>
      <trkpt lat="43.59114" lon="6.64681">
        <ele>227.87</ele>
        <time>2019-10-08T12:56:32Z</time>
      </trkpt>
      <trkpt lat="43.59099" lon="6.64677">
        <ele>226.6</ele>
        <time>2019-10-08T12:56:45Z</time>
      </trkpt>
      <trkpt lat="43.59086" lon="6.64672">
        <ele>225.64</ele>
        <time>2019-10-08T12:56:58Z</time>
      </trkpt>
      <trkpt lat="43.59074" lon="6.64669">
        <ele>224.97</ele>
        <time>2019-10-08T12:57:11Z</time>
      </trkpt>
      <trkpt lat="43.5906" lon="6.64663">
        <ele>223.44</ele>
        <time>2019-10-08T12:57:25Z</time>
      </trkpt>
      <trkpt lat="43.59046" lon="6.64658">
        <ele>222.19</ele>
        <time>2019-10-08T12:57:38Z</time>
      </trkpt>
      <trkpt lat="43.5903" lon="6.6466">
        <ele>221.09</ele>
        <time>2019-10-08T12:57:51Z</time>
      </trkpt>
      <trkpt lat="43.59017" lon="6.64664">
        <ele>221.25</ele>
        <time>2019-10-08T12:58:03Z</time>
      </trkpt>
      <trkpt lat="43.59004" lon="6.64668">
        <ele>221.78</ele>
        <time>2019-10-08T12:58:17Z</time>
      </trkpt>
      <trkpt lat="43.5899" lon="6.64671">
        <ele>222.01</ele>
        <time>2019-10-08T12:58:32Z</time>
      </trkpt>
      <trkpt lat="43.58983" lon="6.64672">
        <ele>222.13</ele>
        <time>2019-10-08T12:58:38Z</time>
      </trkpt>
      <trkpt lat="43.58971" lon="6.64673">
        <ele>222.07</ele>
        <time>2019-10-08T12:58:48Z</time>
      </trkpt>
      <trkpt lat="43.58956" lon="6.64678">
        <ele>221.61</ele>
        <time>2019-10-08T12:59:02Z</time>
      </trkpt>
      <trkpt lat="43.58944" lon="6.64684">
        <ele>221.1</ele>
        <time>2019-10-08T12:59:15Z</time>
      </trkpt>
      <trkpt lat="43.58929" lon="6.64689">
        <ele>219.77</ele>
        <time>2019-10-08T12:59:29Z</time>
      </trkpt>
      <trkpt lat="43.58916" lon="6.64693">
        <ele>218.59</ele>
        <time>2019-10-08T12:59:43Z</time>
      </trkpt>
      <trkpt lat="43.58903" lon="6.647">
        <ele>217.05</ele>
        <time>2019-10-08T12:59:56Z</time>
      </trkpt>
      <trkpt lat="43.58892" lon="6.64704">
        <ele>215.81</ele>
        <time>2019-10-08T13:00:08Z</time>
      </trkpt>
      <trkpt lat="43.58877" lon="6.64709">
        <ele>214.23</ele>
        <time>2019-10-08T13:00:22Z</time>
      </trkpt>
      <trkpt lat="43.58875" lon="6.6471">
        <ele>213.93</ele>
        <time>2019-10-08T13:00:25Z</time>
      </trkpt>
      <trkpt lat="43.5886" lon="6.64712">
        <ele>212.43</ele>
        <time>2019-10-08T13:00:40Z</time>
      </trkpt>
      <trkpt lat="43.58848" lon="6.64713">
        <ele>211.32</ele>
        <time>2019-10-08T13:00:52Z</time>
      </trkpt>
      <trkpt lat="43.58833" lon="6.64719">
        <ele>210.33</ele>
        <time>2019-10-08T13:01:05Z</time>
      </trkpt>
      <trkpt lat="43.58831" lon="6.6472">
        <ele>210.16</ele>
        <time>2019-10-08T13:01:07Z</time>
      </trkpt>
      <trkpt lat="43.58816" lon="6.64731">
        <ele>208.75</ele>
        <time>2019-10-08T13:01:22Z</time>
      </trkpt>
      <trkpt lat="43.58806" lon="6.6474">
        <ele>207.99</ele>
        <time>2019-10-08T13:01:34Z</time>
      </trkpt>
      <trkpt lat="43.58791" lon="6.64748">
        <ele>206.89</ele>
        <time>2019-10-08T13:01:48Z</time>
      </trkpt>
      <trkpt lat="43.58788" lon="6.64749">
        <ele>206.87</ele>
        <time>2019-10-08T13:01:51Z</time>
      </trkpt>
      <trkpt lat="43.58781" lon="6.64751">
        <ele>206.72</ele>
        <time>2019-10-08T13:01:57Z</time>
      </trkpt>
      <trkpt lat="43.58767" lon="6.64748">
        <ele>206.46</ele>
        <time>2019-10-08T13:02:11Z</time>
      </trkpt>
      <trkpt lat="43.58756" lon="6.64751">
        <ele>206</ele>
        <time>2019-10-08T13:02:22Z</time>
      </trkpt>
      <trkpt lat="43.58739" lon="6.64751">
        <ele>205.44</ele>
        <time>2019-10-08T13:02:41Z</time>
      </trkpt>
      <trkpt lat="43.5872" lon="6.64752">
        <ele>205.1</ele>
        <time>2019-10-08T13:02:57Z</time>
      </trkpt>
      <trkpt lat="43.58702" lon="6.6475">
        <ele>204.63</ele>
        <time>2019-10-08T13:03:12Z</time>
      </trkpt>
      <trkpt lat="43.58685" lon="6.64749">
        <ele>203.87</ele>
        <time>2019-10-08T13:03:25Z</time>
      </trkpt>
      <trkpt lat="43.58671" lon="6.64752">
        <ele>202.4</ele>
        <time>2019-10-08T13:03:39Z</time>
      </trkpt>
      <trkpt lat="43.58655" lon="6.64758">
        <ele>201.36</ele>
        <time>2019-10-08T13:03:55Z</time>
      </trkpt>
      <trkpt lat="43.58637" lon="6.64764">
        <ele>200.7</ele>
        <time>2019-10-08T13:04:08Z</time>
      </trkpt>
      <trkpt lat="43.58624" lon="6.64769">
        <ele>200.29</ele>
        <time>2019-10-08T13:04:21Z</time>
      </trkpt>
      <trkpt lat="43.58607" lon="6.64772">
        <ele>199.95</ele>
        <time>2019-10-08T13:04:36Z</time>
      </trkpt>
      <trkpt lat="43.586" lon="6.64774">
        <ele>199.69</ele>
        <time>2019-10-08T13:04:43Z</time>
      </trkpt>
      <trkpt lat="43.58586" lon="6.64781">
        <ele>200.18</ele>
        <time>2019-10-08T13:04:55Z</time>
      </trkpt>
      <trkpt lat="43.5857" lon="6.64789">
        <ele>200.94</ele>
        <time>2019-10-08T13:05:13Z</time>
      </trkpt>
      <trkpt lat="43.58562" lon="6.64781">
        <ele>201.44</ele>
        <time>2019-10-08T13:05:25Z</time>
      </trkpt>
      <trkpt lat="43.58552" lon="6.64765">
        <ele>202</ele>
        <time>2019-10-08T13:05:39Z</time>
      </trkpt>
      <trkpt lat="43.58541" lon="6.64749">
        <ele>202.28</ele>
        <time>2019-10-08T13:05:53Z</time>
      </trkpt>
      <trkpt lat="43.58531" lon="6.64733">
        <ele>202.67</ele>
        <time>2019-10-08T13:06:06Z</time>
      </trkpt>
      <trkpt lat="43.58526" lon="6.6472">
        <ele>203.37</ele>
        <time>2019-10-08T13:06:20Z</time>
      </trkpt>
      <trkpt lat="43.58526" lon="6.64718">
        <ele>203.47</ele>
        <time>2019-10-08T13:06:21Z</time>
      </trkpt>
      <trkpt lat="43.58527" lon="6.64698">
        <ele>204.91</ele>
        <time>2019-10-08T13:06:36Z</time>
      </trkpt>
      <trkpt lat="43.58527" lon="6.64682">
        <ele>205.62</ele>
        <time>2019-10-08T13:06:47Z</time>
      </trkpt>
      <trkpt lat="43.5853" lon="6.64665">
        <ele>206.88</ele>
        <time>2019-10-08T13:06:59Z</time>
      </trkpt>
      <trkpt lat="43.58533" lon="6.64647">
        <ele>207.48</ele>
        <time>2019-10-08T13:07:11Z</time>
      </trkpt>
      <trkpt lat="43.58537" lon="6.64632">
        <ele>207.95</ele>
        <time>2019-10-08T13:07:23Z</time>
      </trkpt>
      <trkpt lat="43.58545" lon="6.6461">
        <ele>208.16</ele>
        <time>2019-10-08T13:07:38Z</time>
      </trkpt>
      <trkpt lat="43.58552" lon="6.64589">
        <ele>208.63</ele>
        <time>2019-10-08T13:07:51Z</time>
      </trkpt>
      <trkpt lat="43.58564" lon="6.64563">
        <ele>209.27</ele>
        <time>2019-10-08T13:08:09Z</time>
      </trkpt>
      <trkpt lat="43.58573" lon="6.64545">
        <ele>209.67</ele>
        <time>2019-10-08T13:08:22Z</time>
      </trkpt>
      <trkpt lat="43.58582" lon="6.64528">
        <ele>210.08</ele>
        <time>2019-10-08T13:08:35Z</time>
      </trkpt>
      <trkpt lat="43.5859" lon="6.64511">
        <ele>210.7</ele>
        <time>2019-10-08T13:08:48Z</time>
      </trkpt>
      <trkpt lat="43.58594" lon="6.64494">
        <ele>211.42</ele>
        <time>2019-10-08T13:09:01Z</time>
      </trkpt>
      <trkpt lat="43.58603" lon="6.64478">
        <ele>212.53</ele>
        <time>2019-10-08T13:09:15Z</time>
      </trkpt>
      <trkpt lat="43.5861" lon="6.64466">
        <ele>213.25</ele>
        <time>2019-10-08T13:09:26Z</time>
      </trkpt>
      <trkpt lat="43.5861" lon="6.64465">
        <ele>213.3</ele>
        <time>2019-10-08T13:09:27Z</time>
      </trkpt>
      <trkpt lat="43.58618" lon="6.64449">
        <ele>214.19</ele>
        <time>2019-10-08T13:09:39Z</time>
      </trkpt>
      <trkpt lat="43.58623" lon="6.64429">
        <ele>215.11</ele>
        <time>2019-10-08T13:09:52Z</time>
      </trkpt>
      <trkpt lat="43.58638" lon="6.64416">
        <ele>215.86</ele>
        <time>2019-10-08T13:10:06Z</time>
      </trkpt>
      <trkpt lat="43.58654" lon="6.64409">
        <ele>216.31</ele>
        <time>2019-10-08T13:10:22Z</time>
      </trkpt>
      <trkpt lat="43.58657" lon="6.64407">
        <ele>216.34</ele>
        <time>2019-10-08T13:10:25Z</time>
      </trkpt>
      <trkpt lat="43.58671" lon="6.64403">
        <ele>216.41</ele>
        <time>2019-10-08T13:10:35Z</time>
      </trkpt>
      <trkpt lat="43.58682" lon="6.64392">
        <ele>216.78</ele>
        <time>2019-10-08T13:10:47Z</time>
      </trkpt>
      <trkpt lat="43.58683" lon="6.64388">
        <ele>216.88</ele>
        <time>2019-10-08T13:10:49Z</time>
      </trkpt>
      <trkpt lat="43.58685" lon="6.64361">
        <ele>217.7</ele>
        <time>2019-10-08T13:11:04Z</time>
      </trkpt>
      <trkpt lat="43.58686" lon="6.6434">
        <ele>218.73</ele>
        <time>2019-10-08T13:11:18Z</time>
      </trkpt>
      <trkpt lat="43.58684" lon="6.64322">
        <ele>219.33</ele>
        <time>2019-10-08T13:11:30Z</time>
      </trkpt>
      <trkpt lat="43.58686" lon="6.64304">
        <ele>219.84</ele>
        <time>2019-10-08T13:11:42Z</time>
      </trkpt>
      <trkpt lat="43.5869" lon="6.64293">
        <ele>220.18</ele>
        <time>2019-10-08T13:11:53Z</time>
      </trkpt>
      <trkpt lat="43.58699" lon="6.64292">
        <ele>220.38</ele>
        <time>2019-10-08T13:12:04Z</time>
      </trkpt>
      <trkpt lat="43.58715" lon="6.64289">
        <ele>220.82</ele>
        <time>2019-10-08T13:12:17Z</time>
      </trkpt>
      <trkpt lat="43.58731" lon="6.64284">
        <ele>221.25</ele>
        <time>2019-10-08T13:12:31Z</time>
      </trkpt>
      <trkpt lat="43.58747" lon="6.6428">
        <ele>221.94</ele>
        <time>2019-10-08T13:12:44Z</time>
      </trkpt>
      <trkpt lat="43.58764" lon="6.64277">
        <ele>222.38</ele>
        <time>2019-10-08T13:12:57Z</time>
      </trkpt>
      <trkpt lat="43.5877" lon="6.64272">
        <ele>222.31</ele>
        <time>2019-10-08T13:13:09Z</time>
      </trkpt>
      <trkpt lat="43.58777" lon="6.6427">
        <ele>222.57</ele>
        <time>2019-10-08T13:13:24Z</time>
      </trkpt>
      <trkpt lat="43.58783" lon="6.64259">
        <ele>222.69</ele>
        <time>2019-10-08T13:13:39Z</time>
      </trkpt>
      <trkpt lat="43.58782" lon="6.64256">
        <ele>222.87</ele>
        <time>2019-10-08T13:14:02Z</time>
      </trkpt>
      <trkpt lat="43.58778" lon="6.64254">
        <ele>222.8</ele>
        <time>2019-10-08T13:14:25Z</time>
      </trkpt>
      <trkpt lat="43.58774" lon="6.6425">
        <ele>222.8</ele>
        <time>2019-10-08T13:14:43Z</time>
      </trkpt>
      <trkpt lat="43.58772" lon="6.64247">
        <ele>222.8</ele>
        <time>2019-10-08T13:15:00Z</time>
      </trkpt>
      <trkpt lat="43.58775" lon="6.64252">
        <ele>222.8</ele>
        <time>2019-10-08T13:15:06Z</time>
      </trkpt>
      <trkpt lat="43.58778" lon="6.64253">
        <ele>222.8</ele>
        <time>2019-10-08T13:15:25Z</time>
      </trkpt>
      <trkpt lat="43.58785" lon="6.64259">
        <ele>222.8</ele>
        <time>2019-10-08T13:15:42Z</time>
      </trkpt>
      <trkpt lat="43.58783" lon="6.64257">
        <ele>222.8</ele>
        <time>2019-10-08T13:16:01Z</time>
      </trkpt>
      <trkpt lat="43.58781" lon="6.64255">
        <ele>222.8</ele>
        <time>2019-10-08T13:16:20Z</time>
      </trkpt>
      <trkpt lat="43.58781" lon="6.64253">
        <ele>222.8</ele>
        <time>2019-10-08T13:16:54Z</time>
      </trkpt>
      <trkpt lat="43.58789" lon="6.64255">
        <ele>222.8</ele>
        <time>2019-10-08T13:17:15Z</time>
      </trkpt>
      <trkpt lat="43.58794" lon="6.64255">
        <ele>222.8</ele>
        <time>2019-10-08T13:17:19Z</time>
      </trkpt>
      <trkpt lat="43.58809" lon="6.64252">
        <ele>223.46</ele>
        <time>2019-10-08T13:17:33Z</time>
      </trkpt>
      <trkpt lat="43.58825" lon="6.64251">
        <ele>223.1</ele>
        <time>2019-10-08T13:17:47Z</time>
      </trkpt>
      <trkpt lat="43.58833" lon="6.64243">
        <ele>222.99</ele>
        <time>2019-10-08T13:17:58Z</time>
      </trkpt>
      <trkpt lat="43.58843" lon="6.64228">
        <ele>223.26</ele>
        <time>2019-10-08T13:18:12Z</time>
      </trkpt>
      <trkpt lat="43.58845" lon="6.64227">
        <ele>223.26</ele>
        <time>2019-10-08T13:18:14Z</time>
      </trkpt>
      <trkpt lat="43.58862" lon="6.64212">
        <ele>223.32</ele>
        <time>2019-10-08T13:18:31Z</time>
      </trkpt>
      <trkpt lat="43.58873" lon="6.64202">
        <ele>223.56</ele>
        <time>2019-10-08T13:18:43Z</time>
      </trkpt>
      <trkpt lat="43.58875" lon="6.64198">
        <ele>223.57</ele>
        <time>2019-10-08T13:18:47Z</time>
      </trkpt>
      <trkpt lat="43.58882" lon="6.64186">
        <ele>224.03</ele>
        <time>2019-10-08T13:18:56Z</time>
      </trkpt>
      <trkpt lat="43.58891" lon="6.64173">
        <ele>224.96</ele>
        <time>2019-10-08T13:19:09Z</time>
      </trkpt>
      <trkpt lat="43.58903" lon="6.64165">
        <ele>225</ele>
        <time>2019-10-08T13:19:20Z</time>
      </trkpt>
      <trkpt lat="43.58921" lon="6.6415">
        <ele>225.32</ele>
        <time>2019-10-08T13:19:37Z</time>
      </trkpt>
      <trkpt lat="43.58933" lon="6.64142">
        <ele>225.18</ele>
        <time>2019-10-08T13:19:51Z</time>
      </trkpt>
      <trkpt lat="43.58948" lon="6.64137">
        <ele>225.62</ele>
        <time>2019-10-08T13:20:05Z</time>
      </trkpt>
      <trkpt lat="43.58954" lon="6.64132">
        <ele>225.79</ele>
        <time>2019-10-08T13:20:11Z</time>
      </trkpt>
      <trkpt lat="43.58967" lon="6.64125">
        <ele>225.98</ele>
        <time>2019-10-08T13:20:25Z</time>
      </trkpt>
      <trkpt lat="43.58981" lon="6.6412">
        <ele>226.26</ele>
        <time>2019-10-08T13:20:38Z</time>
      </trkpt>
      <trkpt lat="43.58993" lon="6.64114">
        <ele>226.41</ele>
        <time>2019-10-08T13:20:50Z</time>
      </trkpt>
      <trkpt lat="43.59011" lon="6.64109">
        <ele>227.03</ele>
        <time>2019-10-08T13:21:07Z</time>
      </trkpt>
      <trkpt lat="43.59027" lon="6.64101">
        <ele>227.82</ele>
        <time>2019-10-08T13:21:24Z</time>
      </trkpt>
      <trkpt lat="43.59041" lon="6.64088">
        <ele>228.57</ele>
        <time>2019-10-08T13:21:37Z</time>
      </trkpt>
      <trkpt lat="43.59057" lon="6.64074">
        <ele>229.9</ele>
        <time>2019-10-08T13:21:55Z</time>
      </trkpt>
      <trkpt lat="43.59069" lon="6.64063">
        <ele>230.6</ele>
        <time>2019-10-08T13:22:09Z</time>
      </trkpt>
      <trkpt lat="43.59071" lon="6.64061">
        <ele>230.58</ele>
        <time>2019-10-08T13:22:22Z</time>
      </trkpt>
      <trkpt lat="43.59069" lon="6.64057">
        <ele>230.93</ele>
        <time>2019-10-08T13:22:39Z</time>
      </trkpt>
      <trkpt lat="43.59069" lon="6.64056">
        <ele>230.64</ele>
        <time>2019-10-08T13:23:03Z</time>
      </trkpt>
      <trkpt lat="43.59067" lon="6.64053">
        <ele>230.52</ele>
        <time>2019-10-08T13:23:28Z</time>
      </trkpt>
      <trkpt lat="43.59067" lon="6.64055">
        <ele>230.52</ele>
        <time>2019-10-08T13:23:47Z</time>
      </trkpt>
      <trkpt lat="43.59067" lon="6.64056">
        <ele>230.52</ele>
        <time>2019-10-08T13:23:48Z</time>
      </trkpt>
    </trkseg>
  </trk>
</gpx>